<?xml version="1.0" encoding="UTF-8" standalone="no" ?>
<gpx xmlns="http://www.topografix.com/GPX/1/1" xmlns:xsi="http://www.w3.org/2001/XMLSchema-instance" xsi:schemaLocation="http://www.topografix.com/GPX/1/1 http://www.topografix.com/GPX/1/1/gpx.xsd" version="1.1" creator="VisuGPX - https://www.visugpx.com">
  <metadata>
    <name>Udange crépusculaire 35 km 20 07 2018 </name>
    <desc><![CDATA[ Randonnée Vtt crépusculaire udange 35 km 20 juillet2018 ]]></desc>
  </metadata>
  <trk>
    <name><![CDATA[MA-rando-2018-07-20-205936]]></name>
    <trkseg>
      <trkpt lat="49.6393" lon="5.78047">
        <ele>327</ele>
        <time>2018-07-20T16:43:18Z</time>
      </trkpt>
      <trkpt lat="49.63933" lon="5.78033">
        <ele>323</ele>
        <time>2018-07-20T16:43:48Z</time>
      </trkpt>
      <trkpt lat="49.63942" lon="5.7804">
        <ele>323</ele>
        <time>2018-07-20T16:44:12Z</time>
      </trkpt>
      <trkpt lat="49.6395" lon="5.78047">
        <ele>323</ele>
        <time>2018-07-20T16:44:38Z</time>
      </trkpt>
      <trkpt lat="49.63943" lon="5.7804">
        <ele>320</ele>
        <time>2018-07-20T16:45:07Z</time>
      </trkpt>
      <trkpt lat="49.63934" lon="5.78036">
        <ele>320</ele>
        <time>2018-07-20T16:45:16Z</time>
      </trkpt>
      <trkpt lat="49.63925" lon="5.78031">
        <ele>318</ele>
        <time>2018-07-20T16:45:37Z</time>
      </trkpt>
      <trkpt lat="49.63917" lon="5.78024">
        <ele>317</ele>
        <time>2018-07-20T16:45:46Z</time>
      </trkpt>
      <trkpt lat="49.63928" lon="5.78028">
        <ele>320</ele>
        <time>2018-07-20T16:49:19Z</time>
      </trkpt>
      <trkpt lat="49.63936" lon="5.78037">
        <ele>323</ele>
        <time>2018-07-20T16:49:24Z</time>
      </trkpt>
      <trkpt lat="49.63945" lon="5.78043">
        <ele>326</ele>
        <time>2018-07-20T16:49:28Z</time>
      </trkpt>
      <trkpt lat="49.63954" lon="5.78043">
        <ele>326</ele>
        <time>2018-07-20T16:49:31Z</time>
      </trkpt>
      <trkpt lat="49.63963" lon="5.78038">
        <ele>323</ele>
        <time>2018-07-20T16:49:34Z</time>
      </trkpt>
      <trkpt lat="49.6397" lon="5.78028">
        <ele>325</ele>
        <time>2018-07-20T16:49:37Z</time>
      </trkpt>
      <trkpt lat="49.63976" lon="5.78016">
        <ele>327</ele>
        <time>2018-07-20T16:49:40Z</time>
      </trkpt>
      <trkpt lat="49.63982" lon="5.78004">
        <ele>325</ele>
        <time>2018-07-20T16:49:43Z</time>
      </trkpt>
      <trkpt lat="49.63991" lon="5.77985">
        <ele>326</ele>
        <time>2018-07-20T16:49:45Z</time>
      </trkpt>
      <trkpt lat="49.63999" lon="5.77971">
        <ele>325</ele>
        <time>2018-07-20T16:49:48Z</time>
      </trkpt>
      <trkpt lat="49.64005" lon="5.77956">
        <ele>325</ele>
        <time>2018-07-20T16:49:52Z</time>
      </trkpt>
      <trkpt lat="49.64011" lon="5.77941">
        <ele>325</ele>
        <time>2018-07-20T16:49:54Z</time>
      </trkpt>
      <trkpt lat="49.64017" lon="5.77926">
        <ele>325</ele>
        <time>2018-07-20T16:49:57Z</time>
      </trkpt>
      <trkpt lat="49.64022" lon="5.77913">
        <ele>326</ele>
        <time>2018-07-20T16:50:00Z</time>
      </trkpt>
      <trkpt lat="49.64027" lon="5.77899">
        <ele>325</ele>
        <time>2018-07-20T16:50:04Z</time>
      </trkpt>
      <trkpt lat="49.64032" lon="5.77885">
        <ele>326</ele>
        <time>2018-07-20T16:50:08Z</time>
      </trkpt>
      <trkpt lat="49.64038" lon="5.77873">
        <ele>325</ele>
        <time>2018-07-20T16:50:12Z</time>
      </trkpt>
      <trkpt lat="49.64045" lon="5.77856">
        <ele>326</ele>
        <time>2018-07-20T16:50:14Z</time>
      </trkpt>
      <trkpt lat="49.64049" lon="5.77843">
        <ele>326</ele>
        <time>2018-07-20T16:50:17Z</time>
      </trkpt>
      <trkpt lat="49.64055" lon="5.77829">
        <ele>328</ele>
        <time>2018-07-20T16:50:21Z</time>
      </trkpt>
      <trkpt lat="49.64058" lon="5.77816">
        <ele>327</ele>
        <time>2018-07-20T16:50:24Z</time>
      </trkpt>
      <trkpt lat="49.64062" lon="5.77802">
        <ele>329</ele>
        <time>2018-07-20T16:50:27Z</time>
      </trkpt>
      <trkpt lat="49.64065" lon="5.77787">
        <ele>329</ele>
        <time>2018-07-20T16:50:30Z</time>
      </trkpt>
      <trkpt lat="49.6407" lon="5.77765">
        <ele>326</ele>
        <time>2018-07-20T16:50:32Z</time>
      </trkpt>
      <trkpt lat="49.64072" lon="5.77748">
        <ele>331</ele>
        <time>2018-07-20T16:50:35Z</time>
      </trkpt>
      <trkpt lat="49.64076" lon="5.77731">
        <ele>331</ele>
        <time>2018-07-20T16:50:38Z</time>
      </trkpt>
      <trkpt lat="49.64079" lon="5.77714">
        <ele>331</ele>
        <time>2018-07-20T16:50:41Z</time>
      </trkpt>
      <trkpt lat="49.64083" lon="5.77696">
        <ele>334</ele>
        <time>2018-07-20T16:50:44Z</time>
      </trkpt>
      <trkpt lat="49.64086" lon="5.77678">
        <ele>332</ele>
        <time>2018-07-20T16:50:47Z</time>
      </trkpt>
      <trkpt lat="49.64088" lon="5.77659">
        <ele>332</ele>
        <time>2018-07-20T16:50:50Z</time>
      </trkpt>
      <trkpt lat="49.6409" lon="5.77645">
        <ele>331</ele>
        <time>2018-07-20T16:50:53Z</time>
      </trkpt>
      <trkpt lat="49.64092" lon="5.7763">
        <ele>332</ele>
        <time>2018-07-20T16:50:57Z</time>
      </trkpt>
      <trkpt lat="49.64095" lon="5.77611">
        <ele>331</ele>
        <time>2018-07-20T16:50:59Z</time>
      </trkpt>
      <trkpt lat="49.64098" lon="5.77591">
        <ele>333</ele>
        <time>2018-07-20T16:51:02Z</time>
      </trkpt>
      <trkpt lat="49.64098" lon="5.77575">
        <ele>331</ele>
        <time>2018-07-20T16:51:04Z</time>
      </trkpt>
      <trkpt lat="49.64102" lon="5.7756">
        <ele>330</ele>
        <time>2018-07-20T16:51:07Z</time>
      </trkpt>
      <trkpt lat="49.6411" lon="5.77554">
        <ele>329</ele>
        <time>2018-07-20T16:51:12Z</time>
      </trkpt>
      <trkpt lat="49.64122" lon="5.77559">
        <ele>327</ele>
        <time>2018-07-20T16:51:16Z</time>
      </trkpt>
      <trkpt lat="49.64132" lon="5.77565">
        <ele>325</ele>
        <time>2018-07-20T16:51:20Z</time>
      </trkpt>
      <trkpt lat="49.64133" lon="5.77548">
        <ele>327</ele>
        <time>2018-07-20T16:51:27Z</time>
      </trkpt>
      <trkpt lat="49.64135" lon="5.77532">
        <ele>327</ele>
        <time>2018-07-20T16:51:32Z</time>
      </trkpt>
      <trkpt lat="49.64141" lon="5.77517">
        <ele>327</ele>
        <time>2018-07-20T16:51:36Z</time>
      </trkpt>
      <trkpt lat="49.64147" lon="5.77506">
        <ele>324</ele>
        <time>2018-07-20T16:51:39Z</time>
      </trkpt>
      <trkpt lat="49.64154" lon="5.77495">
        <ele>329</ele>
        <time>2018-07-20T16:51:42Z</time>
      </trkpt>
      <trkpt lat="49.64165" lon="5.77476">
        <ele>331</ele>
        <time>2018-07-20T16:51:44Z</time>
      </trkpt>
      <trkpt lat="49.64167" lon="5.77456">
        <ele>328</ele>
        <time>2018-07-20T16:51:47Z</time>
      </trkpt>
      <trkpt lat="49.64168" lon="5.77437">
        <ele>329</ele>
        <time>2018-07-20T16:51:50Z</time>
      </trkpt>
      <trkpt lat="49.6417" lon="5.77419">
        <ele>331</ele>
        <time>2018-07-20T16:51:53Z</time>
      </trkpt>
      <trkpt lat="49.6417" lon="5.77401">
        <ele>332</ele>
        <time>2018-07-20T16:51:56Z</time>
      </trkpt>
      <trkpt lat="49.64172" lon="5.77384">
        <ele>332</ele>
        <time>2018-07-20T16:51:59Z</time>
      </trkpt>
      <trkpt lat="49.64174" lon="5.77366">
        <ele>331</ele>
        <time>2018-07-20T16:52:02Z</time>
      </trkpt>
      <trkpt lat="49.64176" lon="5.77349">
        <ele>330</ele>
        <time>2018-07-20T16:52:05Z</time>
      </trkpt>
      <trkpt lat="49.64177" lon="5.77331">
        <ele>330</ele>
        <time>2018-07-20T16:52:08Z</time>
      </trkpt>
      <trkpt lat="49.64178" lon="5.77314">
        <ele>330</ele>
        <time>2018-07-20T16:52:11Z</time>
      </trkpt>
      <trkpt lat="49.6418" lon="5.77297">
        <ele>331</ele>
        <time>2018-07-20T16:52:14Z</time>
      </trkpt>
      <trkpt lat="49.64181" lon="5.77279">
        <ele>330</ele>
        <time>2018-07-20T16:52:17Z</time>
      </trkpt>
      <trkpt lat="49.64183" lon="5.77261">
        <ele>335</ele>
        <time>2018-07-20T16:52:20Z</time>
      </trkpt>
      <trkpt lat="49.64186" lon="5.77245">
        <ele>334</ele>
        <time>2018-07-20T16:52:23Z</time>
      </trkpt>
      <trkpt lat="49.64189" lon="5.77227">
        <ele>334</ele>
        <time>2018-07-20T16:52:26Z</time>
      </trkpt>
      <trkpt lat="49.64191" lon="5.77209">
        <ele>332</ele>
        <time>2018-07-20T16:52:29Z</time>
      </trkpt>
      <trkpt lat="49.64194" lon="5.77193">
        <ele>332</ele>
        <time>2018-07-20T16:52:31Z</time>
      </trkpt>
      <trkpt lat="49.64197" lon="5.77177">
        <ele>331</ele>
        <time>2018-07-20T16:52:33Z</time>
      </trkpt>
      <trkpt lat="49.64197" lon="5.77158">
        <ele>331</ele>
        <time>2018-07-20T16:52:36Z</time>
      </trkpt>
      <trkpt lat="49.64198" lon="5.77139">
        <ele>329</ele>
        <time>2018-07-20T16:52:39Z</time>
      </trkpt>
      <trkpt lat="49.64198" lon="5.77125">
        <ele>328</ele>
        <time>2018-07-20T16:52:41Z</time>
      </trkpt>
      <trkpt lat="49.642" lon="5.77111">
        <ele>328</ele>
        <time>2018-07-20T16:52:43Z</time>
      </trkpt>
      <trkpt lat="49.64201" lon="5.77096">
        <ele>327</ele>
        <time>2018-07-20T16:52:45Z</time>
      </trkpt>
      <trkpt lat="49.64199" lon="5.77077">
        <ele>329</ele>
        <time>2018-07-20T16:52:48Z</time>
      </trkpt>
      <trkpt lat="49.642" lon="5.77057">
        <ele>329</ele>
        <time>2018-07-20T16:52:51Z</time>
      </trkpt>
      <trkpt lat="49.64204" lon="5.77044">
        <ele>331</ele>
        <time>2018-07-20T16:52:53Z</time>
      </trkpt>
      <trkpt lat="49.64205" lon="5.77025">
        <ele>329</ele>
        <time>2018-07-20T16:52:55Z</time>
      </trkpt>
      <trkpt lat="49.64206" lon="5.77007">
        <ele>329</ele>
        <time>2018-07-20T16:52:59Z</time>
      </trkpt>
      <trkpt lat="49.64208" lon="5.76989">
        <ele>325</ele>
        <time>2018-07-20T16:53:02Z</time>
      </trkpt>
      <trkpt lat="49.64208" lon="5.7697">
        <ele>325</ele>
        <time>2018-07-20T16:53:05Z</time>
      </trkpt>
      <trkpt lat="49.64209" lon="5.76951">
        <ele>323</ele>
        <time>2018-07-20T16:53:08Z</time>
      </trkpt>
      <trkpt lat="49.64208" lon="5.76931">
        <ele>322</ele>
        <time>2018-07-20T16:53:11Z</time>
      </trkpt>
      <trkpt lat="49.64208" lon="5.76914">
        <ele>321</ele>
        <time>2018-07-20T16:53:14Z</time>
      </trkpt>
      <trkpt lat="49.64209" lon="5.76897">
        <ele>323</ele>
        <time>2018-07-20T16:53:17Z</time>
      </trkpt>
      <trkpt lat="49.64209" lon="5.76879">
        <ele>325</ele>
        <time>2018-07-20T16:53:20Z</time>
      </trkpt>
      <trkpt lat="49.64212" lon="5.76862">
        <ele>329</ele>
        <time>2018-07-20T16:53:23Z</time>
      </trkpt>
      <trkpt lat="49.64215" lon="5.76844">
        <ele>332</ele>
        <time>2018-07-20T16:53:26Z</time>
      </trkpt>
      <trkpt lat="49.64217" lon="5.76827">
        <ele>330</ele>
        <time>2018-07-20T16:53:29Z</time>
      </trkpt>
      <trkpt lat="49.64218" lon="5.7681">
        <ele>332</ele>
        <time>2018-07-20T16:53:31Z</time>
      </trkpt>
      <trkpt lat="49.64219" lon="5.76793">
        <ele>331</ele>
        <time>2018-07-20T16:53:35Z</time>
      </trkpt>
      <trkpt lat="49.64221" lon="5.76776">
        <ele>331</ele>
        <time>2018-07-20T16:53:38Z</time>
      </trkpt>
      <trkpt lat="49.64221" lon="5.76759">
        <ele>330</ele>
        <time>2018-07-20T16:53:41Z</time>
      </trkpt>
      <trkpt lat="49.6422" lon="5.76743">
        <ele>331</ele>
        <time>2018-07-20T16:53:45Z</time>
      </trkpt>
      <trkpt lat="49.64218" lon="5.76727">
        <ele>332</ele>
        <time>2018-07-20T16:53:52Z</time>
      </trkpt>
      <trkpt lat="49.64214" lon="5.76713">
        <ele>332</ele>
        <time>2018-07-20T16:53:55Z</time>
      </trkpt>
      <trkpt lat="49.6421" lon="5.76698">
        <ele>332</ele>
        <time>2018-07-20T16:53:58Z</time>
      </trkpt>
      <trkpt lat="49.64205" lon="5.76682">
        <ele>333</ele>
        <time>2018-07-20T16:54:01Z</time>
      </trkpt>
      <trkpt lat="49.64201" lon="5.76668">
        <ele>332</ele>
        <time>2018-07-20T16:54:04Z</time>
      </trkpt>
      <trkpt lat="49.64193" lon="5.76636">
        <ele>332</ele>
        <time>2018-07-20T16:54:07Z</time>
      </trkpt>
      <trkpt lat="49.64188" lon="5.76617">
        <ele>330</ele>
        <time>2018-07-20T16:54:10Z</time>
      </trkpt>
      <trkpt lat="49.64185" lon="5.76598">
        <ele>331</ele>
        <time>2018-07-20T16:54:13Z</time>
      </trkpt>
      <trkpt lat="49.64182" lon="5.7658">
        <ele>332</ele>
        <time>2018-07-20T16:54:16Z</time>
      </trkpt>
      <trkpt lat="49.64178" lon="5.76565">
        <ele>333</ele>
        <time>2018-07-20T16:54:19Z</time>
      </trkpt>
      <trkpt lat="49.64175" lon="5.7655">
        <ele>334</ele>
        <time>2018-07-20T16:54:23Z</time>
      </trkpt>
      <trkpt lat="49.64167" lon="5.76541">
        <ele>334</ele>
        <time>2018-07-20T16:54:27Z</time>
      </trkpt>
      <trkpt lat="49.64157" lon="5.76546">
        <ele>335</ele>
        <time>2018-07-20T16:54:28Z</time>
      </trkpt>
      <trkpt lat="49.64145" lon="5.76555">
        <ele>336</ele>
        <time>2018-07-20T16:54:30Z</time>
      </trkpt>
      <trkpt lat="49.64133" lon="5.76561">
        <ele>336</ele>
        <time>2018-07-20T16:54:32Z</time>
      </trkpt>
      <trkpt lat="49.6412" lon="5.76567">
        <ele>335</ele>
        <time>2018-07-20T16:54:34Z</time>
      </trkpt>
      <trkpt lat="49.64108" lon="5.76574">
        <ele>334</ele>
        <time>2018-07-20T16:54:36Z</time>
      </trkpt>
      <trkpt lat="49.64097" lon="5.76581">
        <ele>333</ele>
        <time>2018-07-20T16:54:38Z</time>
      </trkpt>
      <trkpt lat="49.64085" lon="5.76587">
        <ele>334</ele>
        <time>2018-07-20T16:54:40Z</time>
      </trkpt>
      <trkpt lat="49.64073" lon="5.76587">
        <ele>332</ele>
        <time>2018-07-20T16:54:42Z</time>
      </trkpt>
      <trkpt lat="49.64064" lon="5.766">
        <ele>334</ele>
        <time>2018-07-20T16:54:44Z</time>
      </trkpt>
      <trkpt lat="49.64053" lon="5.76602">
        <ele>335</ele>
        <time>2018-07-20T16:54:46Z</time>
      </trkpt>
      <trkpt lat="49.64042" lon="5.76608">
        <ele>334</ele>
        <time>2018-07-20T16:54:48Z</time>
      </trkpt>
      <trkpt lat="49.64031" lon="5.76613">
        <ele>335</ele>
        <time>2018-07-20T16:54:50Z</time>
      </trkpt>
      <trkpt lat="49.64021" lon="5.76618">
        <ele>335</ele>
        <time>2018-07-20T16:54:52Z</time>
      </trkpt>
      <trkpt lat="49.64011" lon="5.76623">
        <ele>334</ele>
        <time>2018-07-20T16:54:54Z</time>
      </trkpt>
      <trkpt lat="49.64" lon="5.76629">
        <ele>335</ele>
        <time>2018-07-20T16:54:56Z</time>
      </trkpt>
      <trkpt lat="49.63989" lon="5.76634">
        <ele>335</ele>
        <time>2018-07-20T16:54:58Z</time>
      </trkpt>
      <trkpt lat="49.63979" lon="5.76638">
        <ele>335</ele>
        <time>2018-07-20T16:55:00Z</time>
      </trkpt>
      <trkpt lat="49.6397" lon="5.76643">
        <ele>334</ele>
        <time>2018-07-20T16:55:02Z</time>
      </trkpt>
      <trkpt lat="49.6396" lon="5.76648">
        <ele>333</ele>
        <time>2018-07-20T16:55:04Z</time>
      </trkpt>
      <trkpt lat="49.6395" lon="5.76649">
        <ele>332</ele>
        <time>2018-07-20T16:55:06Z</time>
      </trkpt>
      <trkpt lat="49.63941" lon="5.76642">
        <ele>331</ele>
        <time>2018-07-20T16:55:08Z</time>
      </trkpt>
      <trkpt lat="49.63932" lon="5.76635">
        <ele>332</ele>
        <time>2018-07-20T16:55:10Z</time>
      </trkpt>
      <trkpt lat="49.63923" lon="5.76626">
        <ele>331</ele>
        <time>2018-07-20T16:55:12Z</time>
      </trkpt>
      <trkpt lat="49.63914" lon="5.76617">
        <ele>331</ele>
        <time>2018-07-20T16:55:14Z</time>
      </trkpt>
      <trkpt lat="49.63903" lon="5.76606">
        <ele>329</ele>
        <time>2018-07-20T16:55:16Z</time>
      </trkpt>
      <trkpt lat="49.63892" lon="5.76595">
        <ele>329</ele>
        <time>2018-07-20T16:55:18Z</time>
      </trkpt>
      <trkpt lat="49.63882" lon="5.76585">
        <ele>329</ele>
        <time>2018-07-20T16:55:20Z</time>
      </trkpt>
      <trkpt lat="49.63871" lon="5.76573">
        <ele>328</ele>
        <time>2018-07-20T16:55:22Z</time>
      </trkpt>
      <trkpt lat="49.6386" lon="5.76562">
        <ele>326</ele>
        <time>2018-07-20T16:55:24Z</time>
      </trkpt>
      <trkpt lat="49.6385" lon="5.76551">
        <ele>326</ele>
        <time>2018-07-20T16:55:26Z</time>
      </trkpt>
      <trkpt lat="49.6384" lon="5.76539">
        <ele>325</ele>
        <time>2018-07-20T16:55:28Z</time>
      </trkpt>
      <trkpt lat="49.6383" lon="5.76538">
        <ele>325</ele>
        <time>2018-07-20T16:55:31Z</time>
      </trkpt>
      <trkpt lat="49.63823" lon="5.76548">
        <ele>325</ele>
        <time>2018-07-20T16:55:33Z</time>
      </trkpt>
      <trkpt lat="49.63815" lon="5.76567">
        <ele>325</ele>
        <time>2018-07-20T16:55:36Z</time>
      </trkpt>
      <trkpt lat="49.63809" lon="5.76581">
        <ele>326</ele>
        <time>2018-07-20T16:55:38Z</time>
      </trkpt>
      <trkpt lat="49.63803" lon="5.76594">
        <ele>326</ele>
        <time>2018-07-20T16:55:40Z</time>
      </trkpt>
      <trkpt lat="49.63797" lon="5.76607">
        <ele>325</ele>
        <time>2018-07-20T16:55:42Z</time>
      </trkpt>
      <trkpt lat="49.63789" lon="5.7662">
        <ele>326</ele>
        <time>2018-07-20T16:55:44Z</time>
      </trkpt>
      <trkpt lat="49.6378" lon="5.76633">
        <ele>324</ele>
        <time>2018-07-20T16:55:46Z</time>
      </trkpt>
      <trkpt lat="49.6377" lon="5.76646">
        <ele>325</ele>
        <time>2018-07-20T16:55:48Z</time>
      </trkpt>
      <trkpt lat="49.63762" lon="5.76658">
        <ele>324</ele>
        <time>2018-07-20T16:55:50Z</time>
      </trkpt>
      <trkpt lat="49.63758" lon="5.76645">
        <ele>323</ele>
        <time>2018-07-20T16:55:58Z</time>
      </trkpt>
      <trkpt lat="49.63763" lon="5.76628">
        <ele>325</ele>
        <time>2018-07-20T16:56:02Z</time>
      </trkpt>
      <trkpt lat="49.63765" lon="5.76614">
        <ele>325</ele>
        <time>2018-07-20T16:56:05Z</time>
      </trkpt>
      <trkpt lat="49.63769" lon="5.76598">
        <ele>323</ele>
        <time>2018-07-20T16:56:08Z</time>
      </trkpt>
      <trkpt lat="49.63774" lon="5.76579">
        <ele>323</ele>
        <time>2018-07-20T16:56:10Z</time>
      </trkpt>
      <trkpt lat="49.63779" lon="5.76567">
        <ele>323</ele>
        <time>2018-07-20T16:56:11Z</time>
      </trkpt>
      <trkpt lat="49.63784" lon="5.76552">
        <ele>324</ele>
        <time>2018-07-20T16:56:13Z</time>
      </trkpt>
      <trkpt lat="49.6379" lon="5.76538">
        <ele>320</ele>
        <time>2018-07-20T16:56:15Z</time>
      </trkpt>
      <trkpt lat="49.63796" lon="5.76523">
        <ele>320</ele>
        <time>2018-07-20T16:56:17Z</time>
      </trkpt>
      <trkpt lat="49.63801" lon="5.76508">
        <ele>320</ele>
        <time>2018-07-20T16:56:19Z</time>
      </trkpt>
      <trkpt lat="49.63806" lon="5.76492">
        <ele>321</ele>
        <time>2018-07-20T16:56:21Z</time>
      </trkpt>
      <trkpt lat="49.63809" lon="5.76474">
        <ele>321</ele>
        <time>2018-07-20T16:56:23Z</time>
      </trkpt>
      <trkpt lat="49.63811" lon="5.76457">
        <ele>322</ele>
        <time>2018-07-20T16:56:25Z</time>
      </trkpt>
      <trkpt lat="49.63813" lon="5.76439">
        <ele>322</ele>
        <time>2018-07-20T16:56:27Z</time>
      </trkpt>
      <trkpt lat="49.63814" lon="5.76421">
        <ele>323</ele>
        <time>2018-07-20T16:56:29Z</time>
      </trkpt>
      <trkpt lat="49.63815" lon="5.76402">
        <ele>324</ele>
        <time>2018-07-20T16:56:31Z</time>
      </trkpt>
      <trkpt lat="49.63814" lon="5.76384">
        <ele>323</ele>
        <time>2018-07-20T16:56:33Z</time>
      </trkpt>
      <trkpt lat="49.63814" lon="5.76365">
        <ele>324</ele>
        <time>2018-07-20T16:56:35Z</time>
      </trkpt>
      <trkpt lat="49.63815" lon="5.76348">
        <ele>326</ele>
        <time>2018-07-20T16:56:37Z</time>
      </trkpt>
      <trkpt lat="49.63814" lon="5.7633">
        <ele>327</ele>
        <time>2018-07-20T16:56:39Z</time>
      </trkpt>
      <trkpt lat="49.63814" lon="5.76313">
        <ele>327</ele>
        <time>2018-07-20T16:56:41Z</time>
      </trkpt>
      <trkpt lat="49.63814" lon="5.76296">
        <ele>328</ele>
        <time>2018-07-20T16:56:43Z</time>
      </trkpt>
      <trkpt lat="49.63814" lon="5.7628">
        <ele>327</ele>
        <time>2018-07-20T16:56:45Z</time>
      </trkpt>
      <trkpt lat="49.63813" lon="5.7626">
        <ele>326</ele>
        <time>2018-07-20T16:56:48Z</time>
      </trkpt>
      <trkpt lat="49.63814" lon="5.76244">
        <ele>326</ele>
        <time>2018-07-20T16:56:51Z</time>
      </trkpt>
      <trkpt lat="49.63814" lon="5.76222">
        <ele>328</ele>
        <time>2018-07-20T16:56:54Z</time>
      </trkpt>
      <trkpt lat="49.63814" lon="5.76205">
        <ele>329</ele>
        <time>2018-07-20T16:56:56Z</time>
      </trkpt>
      <trkpt lat="49.63814" lon="5.7619">
        <ele>327</ele>
        <time>2018-07-20T16:56:58Z</time>
      </trkpt>
      <trkpt lat="49.63815" lon="5.76176">
        <ele>328</ele>
        <time>2018-07-20T16:57:00Z</time>
      </trkpt>
      <trkpt lat="49.63814" lon="5.76159">
        <ele>329</ele>
        <time>2018-07-20T16:57:02Z</time>
      </trkpt>
      <trkpt lat="49.63814" lon="5.76144">
        <ele>328</ele>
        <time>2018-07-20T16:57:04Z</time>
      </trkpt>
      <trkpt lat="49.63815" lon="5.76129">
        <ele>327</ele>
        <time>2018-07-20T16:57:06Z</time>
      </trkpt>
      <trkpt lat="49.63817" lon="5.76112">
        <ele>325</ele>
        <time>2018-07-20T16:57:08Z</time>
      </trkpt>
      <trkpt lat="49.6382" lon="5.76094">
        <ele>325</ele>
        <time>2018-07-20T16:57:10Z</time>
      </trkpt>
      <trkpt lat="49.63829" lon="5.76079">
        <ele>324</ele>
        <time>2018-07-20T16:57:12Z</time>
      </trkpt>
      <trkpt lat="49.63837" lon="5.76059">
        <ele>324</ele>
        <time>2018-07-20T16:57:14Z</time>
      </trkpt>
      <trkpt lat="49.63847" lon="5.76044">
        <ele>323</ele>
        <time>2018-07-20T16:57:16Z</time>
      </trkpt>
      <trkpt lat="49.6386" lon="5.76027">
        <ele>326</ele>
        <time>2018-07-20T16:57:18Z</time>
      </trkpt>
      <trkpt lat="49.63873" lon="5.76015">
        <ele>325</ele>
        <time>2018-07-20T16:57:20Z</time>
      </trkpt>
      <trkpt lat="49.63889" lon="5.76004">
        <ele>327</ele>
        <time>2018-07-20T16:57:22Z</time>
      </trkpt>
      <trkpt lat="49.63905" lon="5.75989">
        <ele>324</ele>
        <time>2018-07-20T16:57:24Z</time>
      </trkpt>
      <trkpt lat="49.63917" lon="5.75973">
        <ele>323</ele>
        <time>2018-07-20T16:57:26Z</time>
      </trkpt>
      <trkpt lat="49.63929" lon="5.75956">
        <ele>323</ele>
        <time>2018-07-20T16:57:28Z</time>
      </trkpt>
      <trkpt lat="49.63941" lon="5.75941">
        <ele>323</ele>
        <time>2018-07-20T16:57:30Z</time>
      </trkpt>
      <trkpt lat="49.63952" lon="5.75931">
        <ele>325</ele>
        <time>2018-07-20T16:57:32Z</time>
      </trkpt>
      <trkpt lat="49.63961" lon="5.75923">
        <ele>323</ele>
        <time>2018-07-20T16:57:34Z</time>
      </trkpt>
      <trkpt lat="49.63973" lon="5.75918">
        <ele>321</ele>
        <time>2018-07-20T16:57:37Z</time>
      </trkpt>
      <trkpt lat="49.63984" lon="5.75905">
        <ele>324</ele>
        <time>2018-07-20T16:57:41Z</time>
      </trkpt>
      <trkpt lat="49.63993" lon="5.75895">
        <ele>324</ele>
        <time>2018-07-20T16:57:44Z</time>
      </trkpt>
      <trkpt lat="49.64001" lon="5.75881">
        <ele>326</ele>
        <time>2018-07-20T16:57:47Z</time>
      </trkpt>
      <trkpt lat="49.64008" lon="5.75867">
        <ele>327</ele>
        <time>2018-07-20T16:57:50Z</time>
      </trkpt>
      <trkpt lat="49.64013" lon="5.75849">
        <ele>329</ele>
        <time>2018-07-20T16:57:53Z</time>
      </trkpt>
      <trkpt lat="49.64013" lon="5.75829">
        <ele>331</ele>
        <time>2018-07-20T16:57:56Z</time>
      </trkpt>
      <trkpt lat="49.64013" lon="5.75809">
        <ele>332</ele>
        <time>2018-07-20T16:57:59Z</time>
      </trkpt>
      <trkpt lat="49.64014" lon="5.75794">
        <ele>332</ele>
        <time>2018-07-20T16:58:02Z</time>
      </trkpt>
      <trkpt lat="49.64013" lon="5.75774">
        <ele>332</ele>
        <time>2018-07-20T16:58:04Z</time>
      </trkpt>
      <trkpt lat="49.64011" lon="5.75758">
        <ele>331</ele>
        <time>2018-07-20T16:58:06Z</time>
      </trkpt>
      <trkpt lat="49.64008" lon="5.75742">
        <ele>330</ele>
        <time>2018-07-20T16:58:08Z</time>
      </trkpt>
      <trkpt lat="49.64005" lon="5.75727">
        <ele>332</ele>
        <time>2018-07-20T16:58:10Z</time>
      </trkpt>
      <trkpt lat="49.64" lon="5.75713">
        <ele>332</ele>
        <time>2018-07-20T16:58:12Z</time>
      </trkpt>
      <trkpt lat="49.63996" lon="5.75698">
        <ele>331</ele>
        <time>2018-07-20T16:58:14Z</time>
      </trkpt>
      <trkpt lat="49.6399" lon="5.75682">
        <ele>332</ele>
        <time>2018-07-20T16:58:16Z</time>
      </trkpt>
      <trkpt lat="49.63985" lon="5.75666">
        <ele>331</ele>
        <time>2018-07-20T16:58:18Z</time>
      </trkpt>
      <trkpt lat="49.6398" lon="5.7565">
        <ele>331</ele>
        <time>2018-07-20T16:58:20Z</time>
      </trkpt>
      <trkpt lat="49.63976" lon="5.75634">
        <ele>331</ele>
        <time>2018-07-20T16:58:22Z</time>
      </trkpt>
      <trkpt lat="49.63972" lon="5.75619">
        <ele>331</ele>
        <time>2018-07-20T16:58:24Z</time>
      </trkpt>
      <trkpt lat="49.63968" lon="5.75604">
        <ele>331</ele>
        <time>2018-07-20T16:58:26Z</time>
      </trkpt>
      <trkpt lat="49.63965" lon="5.75588">
        <ele>330</ele>
        <time>2018-07-20T16:58:28Z</time>
      </trkpt>
      <trkpt lat="49.63963" lon="5.75571">
        <ele>331</ele>
        <time>2018-07-20T16:58:30Z</time>
      </trkpt>
      <trkpt lat="49.63962" lon="5.75554">
        <ele>331</ele>
        <time>2018-07-20T16:58:32Z</time>
      </trkpt>
      <trkpt lat="49.63962" lon="5.75537">
        <ele>330</ele>
        <time>2018-07-20T16:58:34Z</time>
      </trkpt>
      <trkpt lat="49.63962" lon="5.75521">
        <ele>332</ele>
        <time>2018-07-20T16:58:36Z</time>
      </trkpt>
      <trkpt lat="49.63963" lon="5.75505">
        <ele>331</ele>
        <time>2018-07-20T16:58:38Z</time>
      </trkpt>
      <trkpt lat="49.63965" lon="5.7549">
        <ele>332</ele>
        <time>2018-07-20T16:58:40Z</time>
      </trkpt>
      <trkpt lat="49.63966" lon="5.75473">
        <ele>333</ele>
        <time>2018-07-20T16:58:42Z</time>
      </trkpt>
      <trkpt lat="49.63968" lon="5.75458">
        <ele>336</ele>
        <time>2018-07-20T16:58:44Z</time>
      </trkpt>
      <trkpt lat="49.6397" lon="5.75442">
        <ele>335</ele>
        <time>2018-07-20T16:58:46Z</time>
      </trkpt>
      <trkpt lat="49.63972" lon="5.75428">
        <ele>335</ele>
        <time>2018-07-20T16:58:48Z</time>
      </trkpt>
      <trkpt lat="49.63973" lon="5.75411">
        <ele>335</ele>
        <time>2018-07-20T16:58:50Z</time>
      </trkpt>
      <trkpt lat="49.63976" lon="5.75397">
        <ele>336</ele>
        <time>2018-07-20T16:58:52Z</time>
      </trkpt>
      <trkpt lat="49.63976" lon="5.75382">
        <ele>334</ele>
        <time>2018-07-20T16:58:54Z</time>
      </trkpt>
      <trkpt lat="49.63979" lon="5.75367">
        <ele>333</ele>
        <time>2018-07-20T16:58:56Z</time>
      </trkpt>
      <trkpt lat="49.63981" lon="5.75352">
        <ele>333</ele>
        <time>2018-07-20T16:58:58Z</time>
      </trkpt>
      <trkpt lat="49.63982" lon="5.75336">
        <ele>333</ele>
        <time>2018-07-20T16:59:00Z</time>
      </trkpt>
      <trkpt lat="49.63984" lon="5.75323">
        <ele>335</ele>
        <time>2018-07-20T16:59:02Z</time>
      </trkpt>
      <trkpt lat="49.63985" lon="5.75309">
        <ele>336</ele>
        <time>2018-07-20T16:59:04Z</time>
      </trkpt>
      <trkpt lat="49.63989" lon="5.75295">
        <ele>335</ele>
        <time>2018-07-20T16:59:06Z</time>
      </trkpt>
      <trkpt lat="49.6399" lon="5.75281">
        <ele>336</ele>
        <time>2018-07-20T16:59:09Z</time>
      </trkpt>
      <trkpt lat="49.63995" lon="5.75261">
        <ele>337</ele>
        <time>2018-07-20T16:59:11Z</time>
      </trkpt>
      <trkpt lat="49.63994" lon="5.75243">
        <ele>335</ele>
        <time>2018-07-20T16:59:14Z</time>
      </trkpt>
      <trkpt lat="49.63994" lon="5.75226">
        <ele>336</ele>
        <time>2018-07-20T16:59:18Z</time>
      </trkpt>
      <trkpt lat="49.6399" lon="5.75214">
        <ele>335</ele>
        <time>2018-07-20T16:59:19Z</time>
      </trkpt>
      <trkpt lat="49.63989" lon="5.75198">
        <ele>337</ele>
        <time>2018-07-20T16:59:23Z</time>
      </trkpt>
      <trkpt lat="49.63988" lon="5.75181">
        <ele>340</ele>
        <time>2018-07-20T16:59:27Z</time>
      </trkpt>
      <trkpt lat="49.63986" lon="5.75163">
        <ele>340</ele>
        <time>2018-07-20T16:59:31Z</time>
      </trkpt>
      <trkpt lat="49.63978" lon="5.75154">
        <ele>342</ele>
        <time>2018-07-20T16:59:35Z</time>
      </trkpt>
      <trkpt lat="49.63966" lon="5.7516">
        <ele>344</ele>
        <time>2018-07-20T16:59:37Z</time>
      </trkpt>
      <trkpt lat="49.63955" lon="5.75169">
        <ele>344</ele>
        <time>2018-07-20T16:59:40Z</time>
      </trkpt>
      <trkpt lat="49.63944" lon="5.75176">
        <ele>342</ele>
        <time>2018-07-20T16:59:42Z</time>
      </trkpt>
      <trkpt lat="49.63933" lon="5.75183">
        <ele>343</ele>
        <time>2018-07-20T16:59:44Z</time>
      </trkpt>
      <trkpt lat="49.63923" lon="5.75192">
        <ele>342</ele>
        <time>2018-07-20T16:59:46Z</time>
      </trkpt>
      <trkpt lat="49.63911" lon="5.75199">
        <ele>340</ele>
        <time>2018-07-20T16:59:48Z</time>
      </trkpt>
      <trkpt lat="49.63899" lon="5.75206">
        <ele>340</ele>
        <time>2018-07-20T16:59:50Z</time>
      </trkpt>
      <trkpt lat="49.63888" lon="5.7521">
        <ele>342</ele>
        <time>2018-07-20T16:59:52Z</time>
      </trkpt>
      <trkpt lat="49.63874" lon="5.75204">
        <ele>341</ele>
        <time>2018-07-20T16:59:54Z</time>
      </trkpt>
      <trkpt lat="49.6386" lon="5.75193">
        <ele>340</ele>
        <time>2018-07-20T16:59:56Z</time>
      </trkpt>
      <trkpt lat="49.63852" lon="5.75175">
        <ele>339</ele>
        <time>2018-07-20T16:59:58Z</time>
      </trkpt>
      <trkpt lat="49.63844" lon="5.75158">
        <ele>340</ele>
        <time>2018-07-20T17:00:00Z</time>
      </trkpt>
      <trkpt lat="49.63838" lon="5.75144">
        <ele>340</ele>
        <time>2018-07-20T17:00:02Z</time>
      </trkpt>
      <trkpt lat="49.63833" lon="5.75128">
        <ele>340</ele>
        <time>2018-07-20T17:00:04Z</time>
      </trkpt>
      <trkpt lat="49.63827" lon="5.75115">
        <ele>340</ele>
        <time>2018-07-20T17:00:06Z</time>
      </trkpt>
      <trkpt lat="49.63815" lon="5.75109">
        <ele>340</ele>
        <time>2018-07-20T17:00:08Z</time>
      </trkpt>
      <trkpt lat="49.63802" lon="5.75108">
        <ele>341</ele>
        <time>2018-07-20T17:00:10Z</time>
      </trkpt>
      <trkpt lat="49.63794" lon="5.75116">
        <ele>341</ele>
        <time>2018-07-20T17:00:12Z</time>
      </trkpt>
      <trkpt lat="49.63786" lon="5.75126">
        <ele>338</ele>
        <time>2018-07-20T17:00:14Z</time>
      </trkpt>
      <trkpt lat="49.63778" lon="5.75137">
        <ele>339</ele>
        <time>2018-07-20T17:00:16Z</time>
      </trkpt>
      <trkpt lat="49.63767" lon="5.75138">
        <ele>338</ele>
        <time>2018-07-20T17:00:18Z</time>
      </trkpt>
      <trkpt lat="49.63757" lon="5.75137">
        <ele>339</ele>
        <time>2018-07-20T17:00:21Z</time>
      </trkpt>
      <trkpt lat="49.63745" lon="5.75132">
        <ele>339</ele>
        <time>2018-07-20T17:00:23Z</time>
      </trkpt>
      <trkpt lat="49.63735" lon="5.75132">
        <ele>341</ele>
        <time>2018-07-20T17:00:26Z</time>
      </trkpt>
      <trkpt lat="49.63723" lon="5.75137">
        <ele>341</ele>
        <time>2018-07-20T17:00:29Z</time>
      </trkpt>
      <trkpt lat="49.63711" lon="5.75144">
        <ele>342</ele>
        <time>2018-07-20T17:00:31Z</time>
      </trkpt>
      <trkpt lat="49.63701" lon="5.75146">
        <ele>343</ele>
        <time>2018-07-20T17:00:33Z</time>
      </trkpt>
      <trkpt lat="49.63686" lon="5.75153">
        <ele>342</ele>
        <time>2018-07-20T17:00:36Z</time>
      </trkpt>
      <trkpt lat="49.6367" lon="5.75167">
        <ele>342</ele>
        <time>2018-07-20T17:00:37Z</time>
      </trkpt>
      <trkpt lat="49.63651" lon="5.75177">
        <ele>343</ele>
        <time>2018-07-20T17:00:39Z</time>
      </trkpt>
      <trkpt lat="49.6364" lon="5.7518">
        <ele>339</ele>
        <time>2018-07-20T17:00:41Z</time>
      </trkpt>
      <trkpt lat="49.63626" lon="5.75181">
        <ele>335</ele>
        <time>2018-07-20T17:00:43Z</time>
      </trkpt>
      <trkpt lat="49.6361" lon="5.75187">
        <ele>335</ele>
        <time>2018-07-20T17:00:45Z</time>
      </trkpt>
      <trkpt lat="49.63592" lon="5.7519">
        <ele>333</ele>
        <time>2018-07-20T17:00:47Z</time>
      </trkpt>
      <trkpt lat="49.63576" lon="5.75203">
        <ele>335</ele>
        <time>2018-07-20T17:00:49Z</time>
      </trkpt>
      <trkpt lat="49.63567" lon="5.75206">
        <ele>335</ele>
        <time>2018-07-20T17:00:50Z</time>
      </trkpt>
      <trkpt lat="49.63541" lon="5.75205">
        <ele>332</ele>
        <time>2018-07-20T17:00:53Z</time>
      </trkpt>
      <trkpt lat="49.63528" lon="5.752">
        <ele>332</ele>
        <time>2018-07-20T17:00:55Z</time>
      </trkpt>
      <trkpt lat="49.63515" lon="5.75194">
        <ele>333</ele>
        <time>2018-07-20T17:00:58Z</time>
      </trkpt>
      <trkpt lat="49.63518" lon="5.75175">
        <ele>333</ele>
        <time>2018-07-20T17:01:02Z</time>
      </trkpt>
      <trkpt lat="49.63519" lon="5.75156">
        <ele>333</ele>
        <time>2018-07-20T17:01:04Z</time>
      </trkpt>
      <trkpt lat="49.63522" lon="5.75135">
        <ele>335</ele>
        <time>2018-07-20T17:01:08Z</time>
      </trkpt>
      <trkpt lat="49.63525" lon="5.7512">
        <ele>335</ele>
        <time>2018-07-20T17:01:10Z</time>
      </trkpt>
      <trkpt lat="49.6353" lon="5.75101">
        <ele>334</ele>
        <time>2018-07-20T17:01:14Z</time>
      </trkpt>
      <trkpt lat="49.63531" lon="5.75087">
        <ele>333</ele>
        <time>2018-07-20T17:01:16Z</time>
      </trkpt>
      <trkpt lat="49.63537" lon="5.75074">
        <ele>335</ele>
        <time>2018-07-20T17:01:18Z</time>
      </trkpt>
      <trkpt lat="49.63538" lon="5.75057">
        <ele>334</ele>
        <time>2018-07-20T17:01:20Z</time>
      </trkpt>
      <trkpt lat="49.63539" lon="5.75041">
        <ele>334</ele>
        <time>2018-07-20T17:01:22Z</time>
      </trkpt>
      <trkpt lat="49.6354" lon="5.75026">
        <ele>335</ele>
        <time>2018-07-20T17:01:24Z</time>
      </trkpt>
      <trkpt lat="49.63537" lon="5.75012">
        <ele>332</ele>
        <time>2018-07-20T17:01:27Z</time>
      </trkpt>
      <trkpt lat="49.63535" lon="5.74998">
        <ele>331</ele>
        <time>2018-07-20T17:01:28Z</time>
      </trkpt>
      <trkpt lat="49.6354" lon="5.74981">
        <ele>330</ele>
        <time>2018-07-20T17:01:30Z</time>
      </trkpt>
      <trkpt lat="49.63547" lon="5.74967">
        <ele>333</ele>
        <time>2018-07-20T17:01:32Z</time>
      </trkpt>
      <trkpt lat="49.63551" lon="5.74951">
        <ele>334</ele>
        <time>2018-07-20T17:01:34Z</time>
      </trkpt>
      <trkpt lat="49.63553" lon="5.74935">
        <ele>333</ele>
        <time>2018-07-20T17:01:36Z</time>
      </trkpt>
      <trkpt lat="49.63557" lon="5.74912">
        <ele>336</ele>
        <time>2018-07-20T17:01:39Z</time>
      </trkpt>
      <trkpt lat="49.63559" lon="5.74896">
        <ele>337</ele>
        <time>2018-07-20T17:01:41Z</time>
      </trkpt>
      <trkpt lat="49.63559" lon="5.74873">
        <ele>334</ele>
        <time>2018-07-20T17:01:44Z</time>
      </trkpt>
      <trkpt lat="49.63563" lon="5.7486">
        <ele>334</ele>
        <time>2018-07-20T17:01:46Z</time>
      </trkpt>
      <trkpt lat="49.63567" lon="5.74847">
        <ele>334</ele>
        <time>2018-07-20T17:01:49Z</time>
      </trkpt>
      <trkpt lat="49.63571" lon="5.74832">
        <ele>335</ele>
        <time>2018-07-20T17:01:53Z</time>
      </trkpt>
      <trkpt lat="49.63577" lon="5.74816">
        <ele>335</ele>
        <time>2018-07-20T17:01:55Z</time>
      </trkpt>
      <trkpt lat="49.63581" lon="5.748">
        <ele>338</ele>
        <time>2018-07-20T17:01:58Z</time>
      </trkpt>
      <trkpt lat="49.63589" lon="5.74791">
        <ele>342</ele>
        <time>2018-07-20T17:02:03Z</time>
      </trkpt>
      <trkpt lat="49.63599" lon="5.74784">
        <ele>342</ele>
        <time>2018-07-20T17:02:08Z</time>
      </trkpt>
      <trkpt lat="49.63608" lon="5.74776">
        <ele>342</ele>
        <time>2018-07-20T17:02:13Z</time>
      </trkpt>
      <trkpt lat="49.63616" lon="5.74765">
        <ele>340</ele>
        <time>2018-07-20T17:02:18Z</time>
      </trkpt>
      <trkpt lat="49.63624" lon="5.74754">
        <ele>337</ele>
        <time>2018-07-20T17:02:21Z</time>
      </trkpt>
      <trkpt lat="49.63631" lon="5.74742">
        <ele>340</ele>
        <time>2018-07-20T17:02:24Z</time>
      </trkpt>
      <trkpt lat="49.63639" lon="5.74732">
        <ele>341</ele>
        <time>2018-07-20T17:02:27Z</time>
      </trkpt>
      <trkpt lat="49.63646" lon="5.74723">
        <ele>344</ele>
        <time>2018-07-20T17:02:30Z</time>
      </trkpt>
      <trkpt lat="49.63653" lon="5.74712">
        <ele>348</ele>
        <time>2018-07-20T17:02:34Z</time>
      </trkpt>
      <trkpt lat="49.63662" lon="5.74702">
        <ele>351</ele>
        <time>2018-07-20T17:02:39Z</time>
      </trkpt>
      <trkpt lat="49.63668" lon="5.74692">
        <ele>356</ele>
        <time>2018-07-20T17:02:44Z</time>
      </trkpt>
      <trkpt lat="49.63673" lon="5.74677">
        <ele>353</ele>
        <time>2018-07-20T17:02:49Z</time>
      </trkpt>
      <trkpt lat="49.63676" lon="5.74663">
        <ele>351</ele>
        <time>2018-07-20T17:02:53Z</time>
      </trkpt>
      <trkpt lat="49.63681" lon="5.74651">
        <ele>349</ele>
        <time>2018-07-20T17:02:57Z</time>
      </trkpt>
      <trkpt lat="49.63688" lon="5.74638">
        <ele>350</ele>
        <time>2018-07-20T17:03:02Z</time>
      </trkpt>
      <trkpt lat="49.63694" lon="5.74625">
        <ele>352</ele>
        <time>2018-07-20T17:03:06Z</time>
      </trkpt>
      <trkpt lat="49.63701" lon="5.74611">
        <ele>351</ele>
        <time>2018-07-20T17:03:10Z</time>
      </trkpt>
      <trkpt lat="49.63703" lon="5.74596">
        <ele>352</ele>
        <time>2018-07-20T17:03:14Z</time>
      </trkpt>
      <trkpt lat="49.63693" lon="5.74583">
        <ele>350</ele>
        <time>2018-07-20T17:03:17Z</time>
      </trkpt>
      <trkpt lat="49.63682" lon="5.74572">
        <ele>353</ele>
        <time>2018-07-20T17:03:20Z</time>
      </trkpt>
      <trkpt lat="49.63672" lon="5.74559">
        <ele>353</ele>
        <time>2018-07-20T17:03:23Z</time>
      </trkpt>
      <trkpt lat="49.63664" lon="5.74547">
        <ele>352</ele>
        <time>2018-07-20T17:03:26Z</time>
      </trkpt>
      <trkpt lat="49.63658" lon="5.74536">
        <ele>351</ele>
        <time>2018-07-20T17:03:31Z</time>
      </trkpt>
      <trkpt lat="49.63651" lon="5.74524">
        <ele>354</ele>
        <time>2018-07-20T17:03:34Z</time>
      </trkpt>
      <trkpt lat="49.63643" lon="5.74514">
        <ele>357</ele>
        <time>2018-07-20T17:03:37Z</time>
      </trkpt>
      <trkpt lat="49.63637" lon="5.74504">
        <ele>356</ele>
        <time>2018-07-20T17:03:40Z</time>
      </trkpt>
      <trkpt lat="49.63631" lon="5.74494">
        <ele>358</ele>
        <time>2018-07-20T17:03:43Z</time>
      </trkpt>
      <trkpt lat="49.63624" lon="5.74483">
        <ele>357</ele>
        <time>2018-07-20T17:03:46Z</time>
      </trkpt>
      <trkpt lat="49.63616" lon="5.74474">
        <ele>356</ele>
        <time>2018-07-20T17:03:49Z</time>
      </trkpt>
      <trkpt lat="49.63607" lon="5.74464">
        <ele>358</ele>
        <time>2018-07-20T17:03:50Z</time>
      </trkpt>
      <trkpt lat="49.63597" lon="5.74453">
        <ele>359</ele>
        <time>2018-07-20T17:03:53Z</time>
      </trkpt>
      <trkpt lat="49.63587" lon="5.74441">
        <ele>356</ele>
        <time>2018-07-20T17:03:56Z</time>
      </trkpt>
      <trkpt lat="49.63578" lon="5.74429">
        <ele>357</ele>
        <time>2018-07-20T17:03:59Z</time>
      </trkpt>
      <trkpt lat="49.6357" lon="5.7442">
        <ele>359</ele>
        <time>2018-07-20T17:04:03Z</time>
      </trkpt>
      <trkpt lat="49.6356" lon="5.7441">
        <ele>360</ele>
        <time>2018-07-20T17:04:07Z</time>
      </trkpt>
      <trkpt lat="49.63552" lon="5.74401">
        <ele>359</ele>
        <time>2018-07-20T17:04:10Z</time>
      </trkpt>
      <trkpt lat="49.63544" lon="5.74391">
        <ele>358</ele>
        <time>2018-07-20T17:04:13Z</time>
      </trkpt>
      <trkpt lat="49.63536" lon="5.74381">
        <ele>358</ele>
        <time>2018-07-20T17:04:16Z</time>
      </trkpt>
      <trkpt lat="49.63527" lon="5.74374">
        <ele>360</ele>
        <time>2018-07-20T17:04:19Z</time>
      </trkpt>
      <trkpt lat="49.63518" lon="5.74367">
        <ele>360</ele>
        <time>2018-07-20T17:04:22Z</time>
      </trkpt>
      <trkpt lat="49.63507" lon="5.74358">
        <ele>361</ele>
        <time>2018-07-20T17:04:25Z</time>
      </trkpt>
      <trkpt lat="49.63498" lon="5.7435">
        <ele>358</ele>
        <time>2018-07-20T17:04:28Z</time>
      </trkpt>
      <trkpt lat="49.63487" lon="5.7434">
        <ele>356</ele>
        <time>2018-07-20T17:04:31Z</time>
      </trkpt>
      <trkpt lat="49.63476" lon="5.7433">
        <ele>354</ele>
        <time>2018-07-20T17:04:34Z</time>
      </trkpt>
      <trkpt lat="49.63466" lon="5.74321">
        <ele>357</ele>
        <time>2018-07-20T17:04:37Z</time>
      </trkpt>
      <trkpt lat="49.63457" lon="5.74315">
        <ele>358</ele>
        <time>2018-07-20T17:04:40Z</time>
      </trkpt>
      <trkpt lat="49.63447" lon="5.74311">
        <ele>359</ele>
        <time>2018-07-20T17:04:44Z</time>
      </trkpt>
      <trkpt lat="49.63438" lon="5.74305">
        <ele>360</ele>
        <time>2018-07-20T17:04:49Z</time>
      </trkpt>
      <trkpt lat="49.63449" lon="5.74284">
        <ele>359</ele>
        <time>2018-07-20T17:04:53Z</time>
      </trkpt>
      <trkpt lat="49.63456" lon="5.74269">
        <ele>358</ele>
        <time>2018-07-20T17:04:56Z</time>
      </trkpt>
      <trkpt lat="49.63464" lon="5.74256">
        <ele>356</ele>
        <time>2018-07-20T17:04:59Z</time>
      </trkpt>
      <trkpt lat="49.63475" lon="5.74247">
        <ele>360</ele>
        <time>2018-07-20T17:05:01Z</time>
      </trkpt>
      <trkpt lat="49.63485" lon="5.74235">
        <ele>363</ele>
        <time>2018-07-20T17:05:04Z</time>
      </trkpt>
      <trkpt lat="49.63493" lon="5.74218">
        <ele>360</ele>
        <time>2018-07-20T17:05:07Z</time>
      </trkpt>
      <trkpt lat="49.63502" lon="5.74203">
        <ele>357</ele>
        <time>2018-07-20T17:05:10Z</time>
      </trkpt>
      <trkpt lat="49.63511" lon="5.74192">
        <ele>358</ele>
        <time>2018-07-20T17:05:12Z</time>
      </trkpt>
      <trkpt lat="49.6352" lon="5.74177">
        <ele>359</ele>
        <time>2018-07-20T17:05:15Z</time>
      </trkpt>
      <trkpt lat="49.63532" lon="5.74168">
        <ele>360</ele>
        <time>2018-07-20T17:05:17Z</time>
      </trkpt>
      <trkpt lat="49.63541" lon="5.74159">
        <ele>361</ele>
        <time>2018-07-20T17:05:19Z</time>
      </trkpt>
      <trkpt lat="49.63546" lon="5.74141">
        <ele>360</ele>
        <time>2018-07-20T17:05:21Z</time>
      </trkpt>
      <trkpt lat="49.63553" lon="5.74128">
        <ele>361</ele>
        <time>2018-07-20T17:05:23Z</time>
      </trkpt>
      <trkpt lat="49.63558" lon="5.74113">
        <ele>361</ele>
        <time>2018-07-20T17:05:25Z</time>
      </trkpt>
      <trkpt lat="49.63567" lon="5.74106">
        <ele>361</ele>
        <time>2018-07-20T17:05:27Z</time>
      </trkpt>
      <trkpt lat="49.63577" lon="5.74089">
        <ele>361</ele>
        <time>2018-07-20T17:05:30Z</time>
      </trkpt>
      <trkpt lat="49.63587" lon="5.74075">
        <ele>361</ele>
        <time>2018-07-20T17:05:32Z</time>
      </trkpt>
      <trkpt lat="49.63595" lon="5.74059">
        <ele>361</ele>
        <time>2018-07-20T17:05:34Z</time>
      </trkpt>
      <trkpt lat="49.63601" lon="5.74043">
        <ele>361</ele>
        <time>2018-07-20T17:05:36Z</time>
      </trkpt>
      <trkpt lat="49.63612" lon="5.74027">
        <ele>361</ele>
        <time>2018-07-20T17:05:38Z</time>
      </trkpt>
      <trkpt lat="49.6362" lon="5.74014">
        <ele>365</ele>
        <time>2018-07-20T17:05:40Z</time>
      </trkpt>
      <trkpt lat="49.63626" lon="5.74">
        <ele>364</ele>
        <time>2018-07-20T17:05:42Z</time>
      </trkpt>
      <trkpt lat="49.63629" lon="5.73981">
        <ele>364</ele>
        <time>2018-07-20T17:05:44Z</time>
      </trkpt>
      <trkpt lat="49.63633" lon="5.73968">
        <ele>364</ele>
        <time>2018-07-20T17:05:46Z</time>
      </trkpt>
      <trkpt lat="49.6364" lon="5.73954">
        <ele>361</ele>
        <time>2018-07-20T17:05:48Z</time>
      </trkpt>
      <trkpt lat="49.6365" lon="5.73941">
        <ele>358</ele>
        <time>2018-07-20T17:05:50Z</time>
      </trkpt>
      <trkpt lat="49.63657" lon="5.73927">
        <ele>357</ele>
        <time>2018-07-20T17:05:52Z</time>
      </trkpt>
      <trkpt lat="49.63663" lon="5.73913">
        <ele>357</ele>
        <time>2018-07-20T17:05:54Z</time>
      </trkpt>
      <trkpt lat="49.63669" lon="5.73898">
        <ele>357</ele>
        <time>2018-07-20T17:05:56Z</time>
      </trkpt>
      <trkpt lat="49.63676" lon="5.73885">
        <ele>355</ele>
        <time>2018-07-20T17:05:58Z</time>
      </trkpt>
      <trkpt lat="49.63682" lon="5.73871">
        <ele>355</ele>
        <time>2018-07-20T17:06:00Z</time>
      </trkpt>
      <trkpt lat="49.63687" lon="5.73855">
        <ele>355</ele>
        <time>2018-07-20T17:06:02Z</time>
      </trkpt>
      <trkpt lat="49.63692" lon="5.73839">
        <ele>355</ele>
        <time>2018-07-20T17:06:04Z</time>
      </trkpt>
      <trkpt lat="49.63697" lon="5.73821">
        <ele>357</ele>
        <time>2018-07-20T17:06:06Z</time>
      </trkpt>
      <trkpt lat="49.63703" lon="5.73805">
        <ele>357</ele>
        <time>2018-07-20T17:06:08Z</time>
      </trkpt>
      <trkpt lat="49.63708" lon="5.7379">
        <ele>356</ele>
        <time>2018-07-20T17:06:10Z</time>
      </trkpt>
      <trkpt lat="49.63714" lon="5.73773">
        <ele>355</ele>
        <time>2018-07-20T17:06:12Z</time>
      </trkpt>
      <trkpt lat="49.63721" lon="5.73758">
        <ele>354</ele>
        <time>2018-07-20T17:06:14Z</time>
      </trkpt>
      <trkpt lat="49.63729" lon="5.73743">
        <ele>353</ele>
        <time>2018-07-20T17:06:16Z</time>
      </trkpt>
      <trkpt lat="49.63739" lon="5.73728">
        <ele>352</ele>
        <time>2018-07-20T17:06:18Z</time>
      </trkpt>
      <trkpt lat="49.63753" lon="5.7372">
        <ele>350</ele>
        <time>2018-07-20T17:06:20Z</time>
      </trkpt>
      <trkpt lat="49.63766" lon="5.73725">
        <ele>350</ele>
        <time>2018-07-20T17:06:22Z</time>
      </trkpt>
      <trkpt lat="49.63777" lon="5.73731">
        <ele>349</ele>
        <time>2018-07-20T17:06:24Z</time>
      </trkpt>
      <trkpt lat="49.63787" lon="5.73732">
        <ele>349</ele>
        <time>2018-07-20T17:06:26Z</time>
      </trkpt>
      <trkpt lat="49.63798" lon="5.73723">
        <ele>350</ele>
        <time>2018-07-20T17:06:28Z</time>
      </trkpt>
      <trkpt lat="49.63803" lon="5.73707">
        <ele>350</ele>
        <time>2018-07-20T17:06:30Z</time>
      </trkpt>
      <trkpt lat="49.63809" lon="5.73691">
        <ele>352</ele>
        <time>2018-07-20T17:06:32Z</time>
      </trkpt>
      <trkpt lat="49.63814" lon="5.73674">
        <ele>350</ele>
        <time>2018-07-20T17:06:34Z</time>
      </trkpt>
      <trkpt lat="49.6382" lon="5.73658">
        <ele>350</ele>
        <time>2018-07-20T17:06:36Z</time>
      </trkpt>
      <trkpt lat="49.63826" lon="5.73643">
        <ele>349</ele>
        <time>2018-07-20T17:06:38Z</time>
      </trkpt>
      <trkpt lat="49.63833" lon="5.73627">
        <ele>347</ele>
        <time>2018-07-20T17:06:40Z</time>
      </trkpt>
      <trkpt lat="49.63839" lon="5.73613">
        <ele>347</ele>
        <time>2018-07-20T17:06:42Z</time>
      </trkpt>
      <trkpt lat="49.63855" lon="5.73617">
        <ele>352</ele>
        <time>2018-07-20T17:06:49Z</time>
      </trkpt>
      <trkpt lat="49.63865" lon="5.73624">
        <ele>350</ele>
        <time>2018-07-20T17:06:53Z</time>
      </trkpt>
      <trkpt lat="49.63875" lon="5.73626">
        <ele>355</ele>
        <time>2018-07-20T17:06:58Z</time>
      </trkpt>
      <trkpt lat="49.63891" lon="5.73624">
        <ele>354</ele>
        <time>2018-07-20T17:07:01Z</time>
      </trkpt>
      <trkpt lat="49.63901" lon="5.73616">
        <ele>350</ele>
        <time>2018-07-20T17:07:05Z</time>
      </trkpt>
      <trkpt lat="49.63911" lon="5.73624">
        <ele>352</ele>
        <time>2018-07-20T17:07:08Z</time>
      </trkpt>
      <trkpt lat="49.63915" lon="5.73637">
        <ele>355</ele>
        <time>2018-07-20T17:07:11Z</time>
      </trkpt>
      <trkpt lat="49.63918" lon="5.7365">
        <ele>353</ele>
        <time>2018-07-20T17:07:14Z</time>
      </trkpt>
      <trkpt lat="49.63923" lon="5.73665">
        <ele>356</ele>
        <time>2018-07-20T17:07:18Z</time>
      </trkpt>
      <trkpt lat="49.63932" lon="5.73671">
        <ele>358</ele>
        <time>2018-07-20T17:07:21Z</time>
      </trkpt>
      <trkpt lat="49.63941" lon="5.73679">
        <ele>355</ele>
        <time>2018-07-20T17:07:24Z</time>
      </trkpt>
      <trkpt lat="49.63951" lon="5.73688">
        <ele>356</ele>
        <time>2018-07-20T17:07:25Z</time>
      </trkpt>
      <trkpt lat="49.63954" lon="5.73706">
        <ele>353</ele>
        <time>2018-07-20T17:07:30Z</time>
      </trkpt>
      <trkpt lat="49.63958" lon="5.73725">
        <ele>348</ele>
        <time>2018-07-20T17:07:32Z</time>
      </trkpt>
      <trkpt lat="49.63972" lon="5.73736">
        <ele>348</ele>
        <time>2018-07-20T17:07:34Z</time>
      </trkpt>
      <trkpt lat="49.63981" lon="5.73748">
        <ele>347</ele>
        <time>2018-07-20T17:07:36Z</time>
      </trkpt>
      <trkpt lat="49.6399" lon="5.73758">
        <ele>347</ele>
        <time>2018-07-20T17:07:38Z</time>
      </trkpt>
      <trkpt lat="49.64" lon="5.73754">
        <ele>346</ele>
        <time>2018-07-20T17:07:41Z</time>
      </trkpt>
      <trkpt lat="49.6401" lon="5.7375">
        <ele>347</ele>
        <time>2018-07-20T17:07:45Z</time>
      </trkpt>
      <trkpt lat="49.64022" lon="5.73754">
        <ele>344</ele>
        <time>2018-07-20T17:07:49Z</time>
      </trkpt>
      <trkpt lat="49.64032" lon="5.73758">
        <ele>343</ele>
        <time>2018-07-20T17:07:52Z</time>
      </trkpt>
      <trkpt lat="49.64042" lon="5.73759">
        <ele>349</ele>
        <time>2018-07-20T17:07:55Z</time>
      </trkpt>
      <trkpt lat="49.6405" lon="5.73752">
        <ele>346</ele>
        <time>2018-07-20T17:07:58Z</time>
      </trkpt>
      <trkpt lat="49.64056" lon="5.73741">
        <ele>345</ele>
        <time>2018-07-20T17:08:01Z</time>
      </trkpt>
      <trkpt lat="49.64062" lon="5.73729">
        <ele>346</ele>
        <time>2018-07-20T17:08:04Z</time>
      </trkpt>
      <trkpt lat="49.64069" lon="5.73719">
        <ele>348</ele>
        <time>2018-07-20T17:08:08Z</time>
      </trkpt>
      <trkpt lat="49.64077" lon="5.73711">
        <ele>349</ele>
        <time>2018-07-20T17:08:10Z</time>
      </trkpt>
      <trkpt lat="49.64084" lon="5.737">
        <ele>349</ele>
        <time>2018-07-20T17:08:13Z</time>
      </trkpt>
      <trkpt lat="49.64084" lon="5.73685">
        <ele>348</ele>
        <time>2018-07-20T17:08:17Z</time>
      </trkpt>
      <trkpt lat="49.64075" lon="5.73683">
        <ele>346</ele>
        <time>2018-07-20T17:08:22Z</time>
      </trkpt>
      <trkpt lat="49.64065" lon="5.73686">
        <ele>349</ele>
        <time>2018-07-20T17:08:26Z</time>
      </trkpt>
      <trkpt lat="49.64056" lon="5.73679">
        <ele>352</ele>
        <time>2018-07-20T17:08:30Z</time>
      </trkpt>
      <trkpt lat="49.64048" lon="5.73669">
        <ele>348</ele>
        <time>2018-07-20T17:08:34Z</time>
      </trkpt>
      <trkpt lat="49.64039" lon="5.73657">
        <ele>346</ele>
        <time>2018-07-20T17:08:38Z</time>
      </trkpt>
      <trkpt lat="49.64031" lon="5.73646">
        <ele>347</ele>
        <time>2018-07-20T17:08:41Z</time>
      </trkpt>
      <trkpt lat="49.64024" lon="5.73635">
        <ele>349</ele>
        <time>2018-07-20T17:08:44Z</time>
      </trkpt>
      <trkpt lat="49.64023" lon="5.73617">
        <ele>349</ele>
        <time>2018-07-20T17:08:48Z</time>
      </trkpt>
      <trkpt lat="49.6402" lon="5.73601">
        <ele>345</ele>
        <time>2018-07-20T17:08:51Z</time>
      </trkpt>
      <trkpt lat="49.64011" lon="5.73596">
        <ele>344</ele>
        <time>2018-07-20T17:08:54Z</time>
      </trkpt>
      <trkpt lat="49.64" lon="5.73599">
        <ele>344</ele>
        <time>2018-07-20T17:08:57Z</time>
      </trkpt>
      <trkpt lat="49.63977" lon="5.73584">
        <ele>349</ele>
        <time>2018-07-20T17:09:00Z</time>
      </trkpt>
      <trkpt lat="49.63966" lon="5.73572">
        <ele>352</ele>
        <time>2018-07-20T17:09:03Z</time>
      </trkpt>
      <trkpt lat="49.63955" lon="5.73565">
        <ele>351</ele>
        <time>2018-07-20T17:09:05Z</time>
      </trkpt>
      <trkpt lat="49.63944" lon="5.73556">
        <ele>352</ele>
        <time>2018-07-20T17:09:07Z</time>
      </trkpt>
      <trkpt lat="49.63937" lon="5.73544">
        <ele>351</ele>
        <time>2018-07-20T17:09:09Z</time>
      </trkpt>
      <trkpt lat="49.6393" lon="5.7353">
        <ele>349</ele>
        <time>2018-07-20T17:09:11Z</time>
      </trkpt>
      <trkpt lat="49.63928" lon="5.73511">
        <ele>347</ele>
        <time>2018-07-20T17:09:13Z</time>
      </trkpt>
      <trkpt lat="49.63927" lon="5.73493">
        <ele>348</ele>
        <time>2018-07-20T17:09:15Z</time>
      </trkpt>
      <trkpt lat="49.63924" lon="5.73477">
        <ele>350</ele>
        <time>2018-07-20T17:09:17Z</time>
      </trkpt>
      <trkpt lat="49.63923" lon="5.73461">
        <ele>351</ele>
        <time>2018-07-20T17:09:21Z</time>
      </trkpt>
      <trkpt lat="49.6392" lon="5.73442">
        <ele>349</ele>
        <time>2018-07-20T17:09:24Z</time>
      </trkpt>
      <trkpt lat="49.6391" lon="5.73441">
        <ele>351</ele>
        <time>2018-07-20T17:09:28Z</time>
      </trkpt>
      <trkpt lat="49.63902" lon="5.73455">
        <ele>352</ele>
        <time>2018-07-20T17:09:30Z</time>
      </trkpt>
      <trkpt lat="49.63895" lon="5.73468">
        <ele>353</ele>
        <time>2018-07-20T17:09:33Z</time>
      </trkpt>
      <trkpt lat="49.63887" lon="5.73482">
        <ele>353</ele>
        <time>2018-07-20T17:09:36Z</time>
      </trkpt>
      <trkpt lat="49.63882" lon="5.735">
        <ele>353</ele>
        <time>2018-07-20T17:09:38Z</time>
      </trkpt>
      <trkpt lat="49.63875" lon="5.73511">
        <ele>355</ele>
        <time>2018-07-20T17:09:40Z</time>
      </trkpt>
      <trkpt lat="49.63871" lon="5.73528">
        <ele>354</ele>
        <time>2018-07-20T17:09:42Z</time>
      </trkpt>
      <trkpt lat="49.63865" lon="5.73544">
        <ele>353</ele>
        <time>2018-07-20T17:09:44Z</time>
      </trkpt>
      <trkpt lat="49.63858" lon="5.73557">
        <ele>352</ele>
        <time>2018-07-20T17:09:46Z</time>
      </trkpt>
      <trkpt lat="49.63852" lon="5.7357">
        <ele>352</ele>
        <time>2018-07-20T17:09:48Z</time>
      </trkpt>
      <trkpt lat="49.63845" lon="5.73585">
        <ele>352</ele>
        <time>2018-07-20T17:09:50Z</time>
      </trkpt>
      <trkpt lat="49.6384" lon="5.73562">
        <ele>347</ele>
        <time>2018-07-20T17:10:00Z</time>
      </trkpt>
      <trkpt lat="49.63842" lon="5.73548">
        <ele>345</ele>
        <time>2018-07-20T17:10:02Z</time>
      </trkpt>
      <trkpt lat="49.63844" lon="5.73531">
        <ele>347</ele>
        <time>2018-07-20T17:10:05Z</time>
      </trkpt>
      <trkpt lat="49.63843" lon="5.73514">
        <ele>348</ele>
        <time>2018-07-20T17:10:08Z</time>
      </trkpt>
      <trkpt lat="49.63842" lon="5.73498">
        <ele>348</ele>
        <time>2018-07-20T17:10:10Z</time>
      </trkpt>
      <trkpt lat="49.63838" lon="5.73482">
        <ele>349</ele>
        <time>2018-07-20T17:10:14Z</time>
      </trkpt>
      <trkpt lat="49.63822" lon="5.73478">
        <ele>350</ele>
        <time>2018-07-20T17:10:17Z</time>
      </trkpt>
      <trkpt lat="49.63813" lon="5.73472">
        <ele>351</ele>
        <time>2018-07-20T17:10:19Z</time>
      </trkpt>
      <trkpt lat="49.63803" lon="5.73478">
        <ele>351</ele>
        <time>2018-07-20T17:10:21Z</time>
      </trkpt>
      <trkpt lat="49.63792" lon="5.73486">
        <ele>351</ele>
        <time>2018-07-20T17:10:23Z</time>
      </trkpt>
      <trkpt lat="49.63784" lon="5.73496">
        <ele>348</ele>
        <time>2018-07-20T17:10:25Z</time>
      </trkpt>
      <trkpt lat="49.63771" lon="5.73497">
        <ele>349</ele>
        <time>2018-07-20T17:10:28Z</time>
      </trkpt>
      <trkpt lat="49.63755" lon="5.73488">
        <ele>349</ele>
        <time>2018-07-20T17:10:32Z</time>
      </trkpt>
      <trkpt lat="49.63748" lon="5.73476">
        <ele>348</ele>
        <time>2018-07-20T17:10:34Z</time>
      </trkpt>
      <trkpt lat="49.63744" lon="5.73462">
        <ele>349</ele>
        <time>2018-07-20T17:10:36Z</time>
      </trkpt>
      <trkpt lat="49.63744" lon="5.73438">
        <ele>351</ele>
        <time>2018-07-20T17:10:40Z</time>
      </trkpt>
      <trkpt lat="49.63741" lon="5.73424">
        <ele>350</ele>
        <time>2018-07-20T17:10:43Z</time>
      </trkpt>
      <trkpt lat="49.63739" lon="5.73406">
        <ele>351</ele>
        <time>2018-07-20T17:10:47Z</time>
      </trkpt>
      <trkpt lat="49.63732" lon="5.73385">
        <ele>351</ele>
        <time>2018-07-20T17:10:49Z</time>
      </trkpt>
      <trkpt lat="49.63728" lon="5.73361">
        <ele>353</ele>
        <time>2018-07-20T17:10:51Z</time>
      </trkpt>
      <trkpt lat="49.63729" lon="5.7334">
        <ele>353</ele>
        <time>2018-07-20T17:10:54Z</time>
      </trkpt>
      <trkpt lat="49.63729" lon="5.73325">
        <ele>356</ele>
        <time>2018-07-20T17:10:57Z</time>
      </trkpt>
      <trkpt lat="49.63732" lon="5.733">
        <ele>356</ele>
        <time>2018-07-20T17:11:01Z</time>
      </trkpt>
      <trkpt lat="49.63737" lon="5.73288">
        <ele>356</ele>
        <time>2018-07-20T17:11:02Z</time>
      </trkpt>
      <trkpt lat="49.63735" lon="5.73274">
        <ele>353</ele>
        <time>2018-07-20T17:11:04Z</time>
      </trkpt>
      <trkpt lat="49.63732" lon="5.73258">
        <ele>353</ele>
        <time>2018-07-20T17:11:06Z</time>
      </trkpt>
      <trkpt lat="49.63722" lon="5.73242">
        <ele>352</ele>
        <time>2018-07-20T17:11:08Z</time>
      </trkpt>
      <trkpt lat="49.63713" lon="5.73255">
        <ele>351</ele>
        <time>2018-07-20T17:11:10Z</time>
      </trkpt>
      <trkpt lat="49.63703" lon="5.73259">
        <ele>354</ele>
        <time>2018-07-20T17:11:12Z</time>
      </trkpt>
      <trkpt lat="49.63688" lon="5.73268">
        <ele>354</ele>
        <time>2018-07-20T17:11:16Z</time>
      </trkpt>
      <trkpt lat="49.63673" lon="5.73273">
        <ele>349</ele>
        <time>2018-07-20T17:11:19Z</time>
      </trkpt>
      <trkpt lat="49.63661" lon="5.73284">
        <ele>348</ele>
        <time>2018-07-20T17:11:21Z</time>
      </trkpt>
      <trkpt lat="49.63647" lon="5.73288">
        <ele>350</ele>
        <time>2018-07-20T17:11:23Z</time>
      </trkpt>
      <trkpt lat="49.63638" lon="5.73286">
        <ele>349</ele>
        <time>2018-07-20T17:11:25Z</time>
      </trkpt>
      <trkpt lat="49.63627" lon="5.73282">
        <ele>351</ele>
        <time>2018-07-20T17:11:27Z</time>
      </trkpt>
      <trkpt lat="49.63616" lon="5.7327">
        <ele>350</ele>
        <time>2018-07-20T17:11:29Z</time>
      </trkpt>
      <trkpt lat="49.63609" lon="5.7326">
        <ele>350</ele>
        <time>2018-07-20T17:11:31Z</time>
      </trkpt>
      <trkpt lat="49.63616" lon="5.73249">
        <ele>353</ele>
        <time>2018-07-20T17:11:35Z</time>
      </trkpt>
      <trkpt lat="49.63614" lon="5.73227">
        <ele>354</ele>
        <time>2018-07-20T17:11:39Z</time>
      </trkpt>
      <trkpt lat="49.63601" lon="5.7323">
        <ele>351</ele>
        <time>2018-07-20T17:11:44Z</time>
      </trkpt>
      <trkpt lat="49.63587" lon="5.73239">
        <ele>353</ele>
        <time>2018-07-20T17:11:46Z</time>
      </trkpt>
      <trkpt lat="49.63577" lon="5.73252">
        <ele>355</ele>
        <time>2018-07-20T17:11:48Z</time>
      </trkpt>
      <trkpt lat="49.63569" lon="5.73263">
        <ele>355</ele>
        <time>2018-07-20T17:11:50Z</time>
      </trkpt>
      <trkpt lat="49.63563" lon="5.73275">
        <ele>360</ele>
        <time>2018-07-20T17:11:56Z</time>
      </trkpt>
      <trkpt lat="49.63566" lon="5.73293">
        <ele>364</ele>
        <time>2018-07-20T17:12:00Z</time>
      </trkpt>
      <trkpt lat="49.63571" lon="5.73304">
        <ele>361</ele>
        <time>2018-07-20T17:12:03Z</time>
      </trkpt>
      <trkpt lat="49.63578" lon="5.73335">
        <ele>362</ele>
        <time>2018-07-20T17:12:06Z</time>
      </trkpt>
      <trkpt lat="49.63576" lon="5.73361">
        <ele>362</ele>
        <time>2018-07-20T17:12:07Z</time>
      </trkpt>
      <trkpt lat="49.63581" lon="5.73376">
        <ele>362</ele>
        <time>2018-07-20T17:12:09Z</time>
      </trkpt>
      <trkpt lat="49.63586" lon="5.73389">
        <ele>363</ele>
        <time>2018-07-20T17:12:11Z</time>
      </trkpt>
      <trkpt lat="49.63577" lon="5.73397">
        <ele>365</ele>
        <time>2018-07-20T17:12:17Z</time>
      </trkpt>
      <trkpt lat="49.63567" lon="5.73394">
        <ele>367</ele>
        <time>2018-07-20T17:12:22Z</time>
      </trkpt>
      <trkpt lat="49.63558" lon="5.73392">
        <ele>364</ele>
        <time>2018-07-20T17:12:25Z</time>
      </trkpt>
      <trkpt lat="49.63537" lon="5.73392">
        <ele>364</ele>
        <time>2018-07-20T17:12:26Z</time>
      </trkpt>
      <trkpt lat="49.63528" lon="5.73393">
        <ele>362</ele>
        <time>2018-07-20T17:12:28Z</time>
      </trkpt>
      <trkpt lat="49.63514" lon="5.73391">
        <ele>360</ele>
        <time>2018-07-20T17:12:30Z</time>
      </trkpt>
      <trkpt lat="49.63516" lon="5.73376">
        <ele>366</ele>
        <time>2018-07-20T17:12:35Z</time>
      </trkpt>
      <trkpt lat="49.6351" lon="5.73342">
        <ele>365</ele>
        <time>2018-07-20T17:12:39Z</time>
      </trkpt>
      <trkpt lat="49.63506" lon="5.73326">
        <ele>364</ele>
        <time>2018-07-20T17:12:43Z</time>
      </trkpt>
      <trkpt lat="49.63502" lon="5.73309">
        <ele>364</ele>
        <time>2018-07-20T17:12:48Z</time>
      </trkpt>
      <trkpt lat="49.63498" lon="5.73293">
        <ele>367</ele>
        <time>2018-07-20T17:12:51Z</time>
      </trkpt>
      <trkpt lat="49.6349" lon="5.73282">
        <ele>363</ele>
        <time>2018-07-20T17:12:54Z</time>
      </trkpt>
      <trkpt lat="49.63479" lon="5.73276">
        <ele>361</ele>
        <time>2018-07-20T17:12:57Z</time>
      </trkpt>
      <trkpt lat="49.63462" lon="5.73265">
        <ele>363</ele>
        <time>2018-07-20T17:12:59Z</time>
      </trkpt>
      <trkpt lat="49.63449" lon="5.73243">
        <ele>360</ele>
        <time>2018-07-20T17:13:01Z</time>
      </trkpt>
      <trkpt lat="49.63445" lon="5.73228">
        <ele>356</ele>
        <time>2018-07-20T17:13:08Z</time>
      </trkpt>
      <trkpt lat="49.63445" lon="5.73211">
        <ele>358</ele>
        <time>2018-07-20T17:13:13Z</time>
      </trkpt>
      <trkpt lat="49.63448" lon="5.73198">
        <ele>358</ele>
        <time>2018-07-20T17:13:16Z</time>
      </trkpt>
      <trkpt lat="49.63455" lon="5.73188">
        <ele>363</ele>
        <time>2018-07-20T17:13:19Z</time>
      </trkpt>
      <trkpt lat="49.63463" lon="5.7318">
        <ele>367</ele>
        <time>2018-07-20T17:13:22Z</time>
      </trkpt>
      <trkpt lat="49.63471" lon="5.73168">
        <ele>368</ele>
        <time>2018-07-20T17:13:23Z</time>
      </trkpt>
      <trkpt lat="49.63479" lon="5.73153">
        <ele>366</ele>
        <time>2018-07-20T17:13:25Z</time>
      </trkpt>
      <trkpt lat="49.6349" lon="5.73126">
        <ele>364</ele>
        <time>2018-07-20T17:13:27Z</time>
      </trkpt>
      <trkpt lat="49.63495" lon="5.7311">
        <ele>365</ele>
        <time>2018-07-20T17:13:31Z</time>
      </trkpt>
      <trkpt lat="49.63499" lon="5.73096">
        <ele>366</ele>
        <time>2018-07-20T17:13:35Z</time>
      </trkpt>
      <trkpt lat="49.63503" lon="5.73083">
        <ele>365</ele>
        <time>2018-07-20T17:13:39Z</time>
      </trkpt>
      <trkpt lat="49.63509" lon="5.73069">
        <ele>367</ele>
        <time>2018-07-20T17:13:47Z</time>
      </trkpt>
      <trkpt lat="49.63516" lon="5.73056">
        <ele>367</ele>
        <time>2018-07-20T17:13:52Z</time>
      </trkpt>
      <trkpt lat="49.63519" lon="5.7304">
        <ele>369</ele>
        <time>2018-07-20T17:13:56Z</time>
      </trkpt>
      <trkpt lat="49.63523" lon="5.73022">
        <ele>367</ele>
        <time>2018-07-20T17:14:00Z</time>
      </trkpt>
      <trkpt lat="49.63528" lon="5.73005">
        <ele>364</ele>
        <time>2018-07-20T17:14:03Z</time>
      </trkpt>
      <trkpt lat="49.63532" lon="5.72988">
        <ele>365</ele>
        <time>2018-07-20T17:14:06Z</time>
      </trkpt>
      <trkpt lat="49.63538" lon="5.72974">
        <ele>363</ele>
        <time>2018-07-20T17:14:09Z</time>
      </trkpt>
      <trkpt lat="49.63543" lon="5.72962">
        <ele>362</ele>
        <time>2018-07-20T17:14:12Z</time>
      </trkpt>
      <trkpt lat="49.63551" lon="5.72948">
        <ele>362</ele>
        <time>2018-07-20T17:14:16Z</time>
      </trkpt>
      <trkpt lat="49.63562" lon="5.7294">
        <ele>364</ele>
        <time>2018-07-20T17:14:19Z</time>
      </trkpt>
      <trkpt lat="49.63574" lon="5.72934">
        <ele>364</ele>
        <time>2018-07-20T17:14:22Z</time>
      </trkpt>
      <trkpt lat="49.63587" lon="5.72932">
        <ele>365</ele>
        <time>2018-07-20T17:14:23Z</time>
      </trkpt>
      <trkpt lat="49.63595" lon="5.72923">
        <ele>361</ele>
        <time>2018-07-20T17:14:25Z</time>
      </trkpt>
      <trkpt lat="49.63596" lon="5.72908">
        <ele>360</ele>
        <time>2018-07-20T17:14:27Z</time>
      </trkpt>
      <trkpt lat="49.63593" lon="5.7289">
        <ele>364</ele>
        <time>2018-07-20T17:14:31Z</time>
      </trkpt>
      <trkpt lat="49.6359" lon="5.72873">
        <ele>367</ele>
        <time>2018-07-20T17:14:34Z</time>
      </trkpt>
      <trkpt lat="49.63588" lon="5.72845">
        <ele>369</ele>
        <time>2018-07-20T17:14:36Z</time>
      </trkpt>
      <trkpt lat="49.63582" lon="5.72834">
        <ele>370</ele>
        <time>2018-07-20T17:14:38Z</time>
      </trkpt>
      <trkpt lat="49.63572" lon="5.72827">
        <ele>370</ele>
        <time>2018-07-20T17:14:40Z</time>
      </trkpt>
      <trkpt lat="49.63566" lon="5.7281">
        <ele>368</ele>
        <time>2018-07-20T17:14:42Z</time>
      </trkpt>
      <trkpt lat="49.63561" lon="5.72796">
        <ele>367</ele>
        <time>2018-07-20T17:14:44Z</time>
      </trkpt>
      <trkpt lat="49.63558" lon="5.72778">
        <ele>366</ele>
        <time>2018-07-20T17:14:46Z</time>
      </trkpt>
      <trkpt lat="49.63549" lon="5.72768">
        <ele>366</ele>
        <time>2018-07-20T17:14:48Z</time>
      </trkpt>
      <trkpt lat="49.63541" lon="5.72755">
        <ele>367</ele>
        <time>2018-07-20T17:14:50Z</time>
      </trkpt>
      <trkpt lat="49.63534" lon="5.72737">
        <ele>369</ele>
        <time>2018-07-20T17:14:53Z</time>
      </trkpt>
      <trkpt lat="49.63528" lon="5.72725">
        <ele>369</ele>
        <time>2018-07-20T17:14:55Z</time>
      </trkpt>
      <trkpt lat="49.63521" lon="5.72716">
        <ele>367</ele>
        <time>2018-07-20T17:14:57Z</time>
      </trkpt>
      <trkpt lat="49.63515" lon="5.72703">
        <ele>369</ele>
        <time>2018-07-20T17:15:01Z</time>
      </trkpt>
      <trkpt lat="49.63508" lon="5.72689">
        <ele>373</ele>
        <time>2018-07-20T17:15:03Z</time>
      </trkpt>
      <trkpt lat="49.63498" lon="5.72676">
        <ele>371</ele>
        <time>2018-07-20T17:15:05Z</time>
      </trkpt>
      <trkpt lat="49.63489" lon="5.72662">
        <ele>373</ele>
        <time>2018-07-20T17:15:07Z</time>
      </trkpt>
      <trkpt lat="49.63481" lon="5.72647">
        <ele>372</ele>
        <time>2018-07-20T17:15:09Z</time>
      </trkpt>
      <trkpt lat="49.63472" lon="5.72635">
        <ele>373</ele>
        <time>2018-07-20T17:15:11Z</time>
      </trkpt>
      <trkpt lat="49.63465" lon="5.72624">
        <ele>377</ele>
        <time>2018-07-20T17:15:14Z</time>
      </trkpt>
      <trkpt lat="49.63458" lon="5.72612">
        <ele>376</ele>
        <time>2018-07-20T17:15:15Z</time>
      </trkpt>
      <trkpt lat="49.63449" lon="5.72593">
        <ele>373</ele>
        <time>2018-07-20T17:15:17Z</time>
      </trkpt>
      <trkpt lat="49.63441" lon="5.7258">
        <ele>372</ele>
        <time>2018-07-20T17:15:19Z</time>
      </trkpt>
      <trkpt lat="49.63435" lon="5.72565">
        <ele>371</ele>
        <time>2018-07-20T17:15:21Z</time>
      </trkpt>
      <trkpt lat="49.63426" lon="5.72551">
        <ele>369</ele>
        <time>2018-07-20T17:15:23Z</time>
      </trkpt>
      <trkpt lat="49.63418" lon="5.72537">
        <ele>367</ele>
        <time>2018-07-20T17:15:25Z</time>
      </trkpt>
      <trkpt lat="49.63413" lon="5.72524">
        <ele>369</ele>
        <time>2018-07-20T17:15:27Z</time>
      </trkpt>
      <trkpt lat="49.63407" lon="5.72508">
        <ele>369</ele>
        <time>2018-07-20T17:15:31Z</time>
      </trkpt>
      <trkpt lat="49.63395" lon="5.72487">
        <ele>375</ele>
        <time>2018-07-20T17:15:33Z</time>
      </trkpt>
      <trkpt lat="49.63391" lon="5.7247">
        <ele>376</ele>
        <time>2018-07-20T17:15:35Z</time>
      </trkpt>
      <trkpt lat="49.63385" lon="5.72454">
        <ele>377</ele>
        <time>2018-07-20T17:15:37Z</time>
      </trkpt>
      <trkpt lat="49.63371" lon="5.72435">
        <ele>374</ele>
        <time>2018-07-20T17:15:39Z</time>
      </trkpt>
      <trkpt lat="49.63361" lon="5.7242">
        <ele>374</ele>
        <time>2018-07-20T17:15:41Z</time>
      </trkpt>
      <trkpt lat="49.63351" lon="5.7241">
        <ele>371</ele>
        <time>2018-07-20T17:15:43Z</time>
      </trkpt>
      <trkpt lat="49.63346" lon="5.72394">
        <ele>369</ele>
        <time>2018-07-20T17:15:45Z</time>
      </trkpt>
      <trkpt lat="49.63341" lon="5.7238">
        <ele>367</ele>
        <time>2018-07-20T17:15:48Z</time>
      </trkpt>
      <trkpt lat="49.63331" lon="5.72359">
        <ele>365</ele>
        <time>2018-07-20T17:15:50Z</time>
      </trkpt>
      <trkpt lat="49.63324" lon="5.72341">
        <ele>366</ele>
        <time>2018-07-20T17:15:52Z</time>
      </trkpt>
      <trkpt lat="49.63314" lon="5.72327">
        <ele>365</ele>
        <time>2018-07-20T17:15:54Z</time>
      </trkpt>
      <trkpt lat="49.63307" lon="5.72315">
        <ele>370</ele>
        <time>2018-07-20T17:15:56Z</time>
      </trkpt>
      <trkpt lat="49.63296" lon="5.723">
        <ele>370</ele>
        <time>2018-07-20T17:15:59Z</time>
      </trkpt>
      <trkpt lat="49.63287" lon="5.72286">
        <ele>368</ele>
        <time>2018-07-20T17:16:01Z</time>
      </trkpt>
      <trkpt lat="49.63273" lon="5.72274">
        <ele>370</ele>
        <time>2018-07-20T17:16:04Z</time>
      </trkpt>
      <trkpt lat="49.63263" lon="5.72271">
        <ele>371</ele>
        <time>2018-07-20T17:16:07Z</time>
      </trkpt>
      <trkpt lat="49.63251" lon="5.72273">
        <ele>368</ele>
        <time>2018-07-20T17:16:08Z</time>
      </trkpt>
      <trkpt lat="49.63246" lon="5.72287">
        <ele>367</ele>
        <time>2018-07-20T17:16:11Z</time>
      </trkpt>
      <trkpt lat="49.63238" lon="5.72298">
        <ele>367</ele>
        <time>2018-07-20T17:16:13Z</time>
      </trkpt>
      <trkpt lat="49.63223" lon="5.72304">
        <ele>364</ele>
        <time>2018-07-20T17:16:15Z</time>
      </trkpt>
      <trkpt lat="49.63218" lon="5.72315">
        <ele>362</ele>
        <time>2018-07-20T17:16:20Z</time>
      </trkpt>
      <trkpt lat="49.63207" lon="5.72318">
        <ele>363</ele>
        <time>2018-07-20T17:16:25Z</time>
      </trkpt>
      <trkpt lat="49.63198" lon="5.72324">
        <ele>365</ele>
        <time>2018-07-20T17:16:28Z</time>
      </trkpt>
      <trkpt lat="49.63189" lon="5.72329">
        <ele>364</ele>
        <time>2018-07-20T17:16:31Z</time>
      </trkpt>
      <trkpt lat="49.63178" lon="5.72336">
        <ele>353</ele>
        <time>2018-07-20T17:16:35Z</time>
      </trkpt>
      <trkpt lat="49.63172" lon="5.7235">
        <ele>351</ele>
        <time>2018-07-20T17:16:38Z</time>
      </trkpt>
      <trkpt lat="49.63171" lon="5.72368">
        <ele>352</ele>
        <time>2018-07-20T17:16:41Z</time>
      </trkpt>
      <trkpt lat="49.6317" lon="5.72387">
        <ele>354</ele>
        <time>2018-07-20T17:16:44Z</time>
      </trkpt>
      <trkpt lat="49.6317" lon="5.72404">
        <ele>354</ele>
        <time>2018-07-20T17:16:47Z</time>
      </trkpt>
      <trkpt lat="49.63172" lon="5.72423">
        <ele>355</ele>
        <time>2018-07-20T17:16:50Z</time>
      </trkpt>
      <trkpt lat="49.63178" lon="5.72463">
        <ele>355</ele>
        <time>2018-07-20T17:16:52Z</time>
      </trkpt>
      <trkpt lat="49.63174" lon="5.72479">
        <ele>359</ele>
        <time>2018-07-20T17:16:58Z</time>
      </trkpt>
      <trkpt lat="49.63164" lon="5.72498">
        <ele>363</ele>
        <time>2018-07-20T17:17:01Z</time>
      </trkpt>
      <trkpt lat="49.63158" lon="5.72511">
        <ele>361</ele>
        <time>2018-07-20T17:17:05Z</time>
      </trkpt>
      <trkpt lat="49.63149" lon="5.72517">
        <ele>362</ele>
        <time>2018-07-20T17:17:10Z</time>
      </trkpt>
      <trkpt lat="49.63138" lon="5.72513">
        <ele>369</ele>
        <time>2018-07-20T17:17:16Z</time>
      </trkpt>
      <trkpt lat="49.63126" lon="5.72509">
        <ele>367</ele>
        <time>2018-07-20T17:17:20Z</time>
      </trkpt>
      <trkpt lat="49.63107" lon="5.7251">
        <ele>363</ele>
        <time>2018-07-20T17:17:22Z</time>
      </trkpt>
      <trkpt lat="49.63093" lon="5.72512">
        <ele>362</ele>
        <time>2018-07-20T17:17:23Z</time>
      </trkpt>
      <trkpt lat="49.63091" lon="5.72498">
        <ele>370</ele>
        <time>2018-07-20T17:17:26Z</time>
      </trkpt>
      <trkpt lat="49.63079" lon="5.7249">
        <ele>368</ele>
        <time>2018-07-20T17:17:28Z</time>
      </trkpt>
      <trkpt lat="49.63064" lon="5.72488">
        <ele>363</ele>
        <time>2018-07-20T17:17:30Z</time>
      </trkpt>
      <trkpt lat="49.63052" lon="5.72489">
        <ele>356</ele>
        <time>2018-07-20T17:17:31Z</time>
      </trkpt>
      <trkpt lat="49.63041" lon="5.72493">
        <ele>352</ele>
        <time>2018-07-20T17:17:33Z</time>
      </trkpt>
      <trkpt lat="49.63032" lon="5.72507">
        <ele>352</ele>
        <time>2018-07-20T17:17:35Z</time>
      </trkpt>
      <trkpt lat="49.63023" lon="5.72517">
        <ele>355</ele>
        <time>2018-07-20T17:17:38Z</time>
      </trkpt>
      <trkpt lat="49.63016" lon="5.72528">
        <ele>356</ele>
        <time>2018-07-20T17:17:41Z</time>
      </trkpt>
      <trkpt lat="49.6301" lon="5.72518">
        <ele>365</ele>
        <time>2018-07-20T17:17:46Z</time>
      </trkpt>
      <trkpt lat="49.63005" lon="5.72506">
        <ele>360</ele>
        <time>2018-07-20T17:17:49Z</time>
      </trkpt>
      <trkpt lat="49.63002" lon="5.72491">
        <ele>357</ele>
        <time>2018-07-20T17:17:52Z</time>
      </trkpt>
      <trkpt lat="49.62996" lon="5.72473">
        <ele>357</ele>
        <time>2018-07-20T17:17:55Z</time>
      </trkpt>
      <trkpt lat="49.62991" lon="5.72458">
        <ele>361</ele>
        <time>2018-07-20T17:17:58Z</time>
      </trkpt>
      <trkpt lat="49.62987" lon="5.72444">
        <ele>361</ele>
        <time>2018-07-20T17:18:01Z</time>
      </trkpt>
      <trkpt lat="49.62983" lon="5.7243">
        <ele>360</ele>
        <time>2018-07-20T17:18:04Z</time>
      </trkpt>
      <trkpt lat="49.62978" lon="5.72413">
        <ele>363</ele>
        <time>2018-07-20T17:18:08Z</time>
      </trkpt>
      <trkpt lat="49.62971" lon="5.724">
        <ele>362</ele>
        <time>2018-07-20T17:18:11Z</time>
      </trkpt>
      <trkpt lat="49.62964" lon="5.72387">
        <ele>358</ele>
        <time>2018-07-20T17:18:14Z</time>
      </trkpt>
      <trkpt lat="49.62959" lon="5.72371">
        <ele>359</ele>
        <time>2018-07-20T17:18:17Z</time>
      </trkpt>
      <trkpt lat="49.62953" lon="5.72355">
        <ele>362</ele>
        <time>2018-07-20T17:18:20Z</time>
      </trkpt>
      <trkpt lat="49.62935" lon="5.72323">
        <ele>361</ele>
        <time>2018-07-20T17:18:22Z</time>
      </trkpt>
      <trkpt lat="49.62934" lon="5.72308">
        <ele>360</ele>
        <time>2018-07-20T17:18:24Z</time>
      </trkpt>
      <trkpt lat="49.6293" lon="5.72294">
        <ele>359</ele>
        <time>2018-07-20T17:18:26Z</time>
      </trkpt>
      <trkpt lat="49.62926" lon="5.72279">
        <ele>359</ele>
        <time>2018-07-20T17:18:28Z</time>
      </trkpt>
      <trkpt lat="49.62921" lon="5.72266">
        <ele>359</ele>
        <time>2018-07-20T17:18:30Z</time>
      </trkpt>
      <trkpt lat="49.62915" lon="5.72252">
        <ele>359</ele>
        <time>2018-07-20T17:18:32Z</time>
      </trkpt>
      <trkpt lat="49.62909" lon="5.72239">
        <ele>358</ele>
        <time>2018-07-20T17:18:34Z</time>
      </trkpt>
      <trkpt lat="49.62903" lon="5.72224">
        <ele>360</ele>
        <time>2018-07-20T17:18:36Z</time>
      </trkpt>
      <trkpt lat="49.62897" lon="5.72206">
        <ele>358</ele>
        <time>2018-07-20T17:18:38Z</time>
      </trkpt>
      <trkpt lat="49.62892" lon="5.72194">
        <ele>359</ele>
        <time>2018-07-20T17:18:40Z</time>
      </trkpt>
      <trkpt lat="49.62889" lon="5.72178">
        <ele>362</ele>
        <time>2018-07-20T17:18:43Z</time>
      </trkpt>
      <trkpt lat="49.62889" lon="5.72164">
        <ele>363</ele>
        <time>2018-07-20T17:18:47Z</time>
      </trkpt>
      <trkpt lat="49.62885" lon="5.72136">
        <ele>367</ele>
        <time>2018-07-20T17:18:50Z</time>
      </trkpt>
      <trkpt lat="49.62882" lon="5.72117">
        <ele>364</ele>
        <time>2018-07-20T17:18:52Z</time>
      </trkpt>
      <trkpt lat="49.62879" lon="5.72103">
        <ele>364</ele>
        <time>2018-07-20T17:18:54Z</time>
      </trkpt>
      <trkpt lat="49.62875" lon="5.72091">
        <ele>367</ele>
        <time>2018-07-20T17:18:56Z</time>
      </trkpt>
      <trkpt lat="49.62874" lon="5.72074">
        <ele>363</ele>
        <time>2018-07-20T17:18:59Z</time>
      </trkpt>
      <trkpt lat="49.62869" lon="5.72053">
        <ele>363</ele>
        <time>2018-07-20T17:19:01Z</time>
      </trkpt>
      <trkpt lat="49.62863" lon="5.72038">
        <ele>364</ele>
        <time>2018-07-20T17:19:03Z</time>
      </trkpt>
      <trkpt lat="49.62853" lon="5.72027">
        <ele>364</ele>
        <time>2018-07-20T17:19:05Z</time>
      </trkpt>
      <trkpt lat="49.62849" lon="5.72014">
        <ele>370</ele>
        <time>2018-07-20T17:19:08Z</time>
      </trkpt>
      <trkpt lat="49.62842" lon="5.71998">
        <ele>374</ele>
        <time>2018-07-20T17:19:10Z</time>
      </trkpt>
      <trkpt lat="49.62835" lon="5.71985">
        <ele>375</ele>
        <time>2018-07-20T17:19:12Z</time>
      </trkpt>
      <trkpt lat="49.62823" lon="5.71969">
        <ele>375</ele>
        <time>2018-07-20T17:19:15Z</time>
      </trkpt>
      <trkpt lat="49.62816" lon="5.71952">
        <ele>374</ele>
        <time>2018-07-20T17:19:17Z</time>
      </trkpt>
      <trkpt lat="49.62808" lon="5.71934">
        <ele>374</ele>
        <time>2018-07-20T17:19:19Z</time>
      </trkpt>
      <trkpt lat="49.62802" lon="5.71925">
        <ele>374</ele>
        <time>2018-07-20T17:19:20Z</time>
      </trkpt>
      <trkpt lat="49.62793" lon="5.71916">
        <ele>374</ele>
        <time>2018-07-20T17:19:22Z</time>
      </trkpt>
      <trkpt lat="49.62784" lon="5.71898">
        <ele>375</ele>
        <time>2018-07-20T17:19:24Z</time>
      </trkpt>
      <trkpt lat="49.62778" lon="5.71879">
        <ele>373</ele>
        <time>2018-07-20T17:19:27Z</time>
      </trkpt>
      <trkpt lat="49.6277" lon="5.71864">
        <ele>375</ele>
        <time>2018-07-20T17:19:29Z</time>
      </trkpt>
      <trkpt lat="49.62766" lon="5.71851">
        <ele>376</ele>
        <time>2018-07-20T17:19:31Z</time>
      </trkpt>
      <trkpt lat="49.6276" lon="5.71835">
        <ele>376</ele>
        <time>2018-07-20T17:19:33Z</time>
      </trkpt>
      <trkpt lat="49.62751" lon="5.71824">
        <ele>375</ele>
        <time>2018-07-20T17:19:36Z</time>
      </trkpt>
      <trkpt lat="49.62747" lon="5.7181">
        <ele>376</ele>
        <time>2018-07-20T17:19:39Z</time>
      </trkpt>
      <trkpt lat="49.6274" lon="5.71799">
        <ele>373</ele>
        <time>2018-07-20T17:19:42Z</time>
      </trkpt>
      <trkpt lat="49.62733" lon="5.71788">
        <ele>372</ele>
        <time>2018-07-20T17:19:46Z</time>
      </trkpt>
      <trkpt lat="49.62728" lon="5.71776">
        <ele>371</ele>
        <time>2018-07-20T17:19:51Z</time>
      </trkpt>
      <trkpt lat="49.6273" lon="5.71761">
        <ele>373</ele>
        <time>2018-07-20T17:19:54Z</time>
      </trkpt>
      <trkpt lat="49.62726" lon="5.71746">
        <ele>376</ele>
        <time>2018-07-20T17:19:58Z</time>
      </trkpt>
      <trkpt lat="49.62718" lon="5.71732">
        <ele>370</ele>
        <time>2018-07-20T17:20:02Z</time>
      </trkpt>
      <trkpt lat="49.62709" lon="5.71722">
        <ele>371</ele>
        <time>2018-07-20T17:20:05Z</time>
      </trkpt>
      <trkpt lat="49.62699" lon="5.71717">
        <ele>370</ele>
        <time>2018-07-20T17:20:08Z</time>
      </trkpt>
      <trkpt lat="49.62686" lon="5.71714">
        <ele>370</ele>
        <time>2018-07-20T17:20:11Z</time>
      </trkpt>
      <trkpt lat="49.62674" lon="5.71709">
        <ele>370</ele>
        <time>2018-07-20T17:20:14Z</time>
      </trkpt>
      <trkpt lat="49.62663" lon="5.71702">
        <ele>373</ele>
        <time>2018-07-20T17:20:17Z</time>
      </trkpt>
      <trkpt lat="49.62653" lon="5.71695">
        <ele>375</ele>
        <time>2018-07-20T17:20:20Z</time>
      </trkpt>
      <trkpt lat="49.62644" lon="5.71689">
        <ele>376</ele>
        <time>2018-07-20T17:20:23Z</time>
      </trkpt>
      <trkpt lat="49.62629" lon="5.71678">
        <ele>373</ele>
        <time>2018-07-20T17:20:25Z</time>
      </trkpt>
      <trkpt lat="49.6262" lon="5.71672">
        <ele>373</ele>
        <time>2018-07-20T17:20:27Z</time>
      </trkpt>
      <trkpt lat="49.62609" lon="5.71666">
        <ele>372</ele>
        <time>2018-07-20T17:20:29Z</time>
      </trkpt>
      <trkpt lat="49.62601" lon="5.71659">
        <ele>372</ele>
        <time>2018-07-20T17:20:31Z</time>
      </trkpt>
      <trkpt lat="49.62592" lon="5.71648">
        <ele>374</ele>
        <time>2018-07-20T17:20:33Z</time>
      </trkpt>
      <trkpt lat="49.62583" lon="5.71641">
        <ele>375</ele>
        <time>2018-07-20T17:20:35Z</time>
      </trkpt>
      <trkpt lat="49.62575" lon="5.71628">
        <ele>375</ele>
        <time>2018-07-20T17:20:37Z</time>
      </trkpt>
      <trkpt lat="49.62569" lon="5.71615">
        <ele>377</ele>
        <time>2018-07-20T17:20:39Z</time>
      </trkpt>
      <trkpt lat="49.62563" lon="5.71601">
        <ele>379</ele>
        <time>2018-07-20T17:20:41Z</time>
      </trkpt>
      <trkpt lat="49.62556" lon="5.71587">
        <ele>374</ele>
        <time>2018-07-20T17:20:43Z</time>
      </trkpt>
      <trkpt lat="49.62552" lon="5.71573">
        <ele>374</ele>
        <time>2018-07-20T17:20:45Z</time>
      </trkpt>
      <trkpt lat="49.62549" lon="5.71559">
        <ele>371</ele>
        <time>2018-07-20T17:20:47Z</time>
      </trkpt>
      <trkpt lat="49.62548" lon="5.71545">
        <ele>375</ele>
        <time>2018-07-20T17:20:51Z</time>
      </trkpt>
      <trkpt lat="49.62553" lon="5.71522">
        <ele>379</ele>
        <time>2018-07-20T17:20:54Z</time>
      </trkpt>
      <trkpt lat="49.62555" lon="5.71507">
        <ele>379</ele>
        <time>2018-07-20T17:20:56Z</time>
      </trkpt>
      <trkpt lat="49.6256" lon="5.71488">
        <ele>377</ele>
        <time>2018-07-20T17:20:58Z</time>
      </trkpt>
      <trkpt lat="49.62563" lon="5.71475">
        <ele>380</ele>
        <time>2018-07-20T17:21:02Z</time>
      </trkpt>
      <trkpt lat="49.62569" lon="5.71445">
        <ele>373</ele>
        <time>2018-07-20T17:21:05Z</time>
      </trkpt>
      <trkpt lat="49.62579" lon="5.7143">
        <ele>373</ele>
        <time>2018-07-20T17:21:08Z</time>
      </trkpt>
      <trkpt lat="49.62596" lon="5.71423">
        <ele>374</ele>
        <time>2018-07-20T17:21:13Z</time>
      </trkpt>
      <trkpt lat="49.62606" lon="5.71416">
        <ele>372</ele>
        <time>2018-07-20T17:21:15Z</time>
      </trkpt>
      <trkpt lat="49.62618" lon="5.71413">
        <ele>369</ele>
        <time>2018-07-20T17:21:18Z</time>
      </trkpt>
      <trkpt lat="49.62628" lon="5.71408">
        <ele>368</ele>
        <time>2018-07-20T17:21:20Z</time>
      </trkpt>
      <trkpt lat="49.62637" lon="5.71398">
        <ele>368</ele>
        <time>2018-07-20T17:21:22Z</time>
      </trkpt>
      <trkpt lat="49.62651" lon="5.71388">
        <ele>370</ele>
        <time>2018-07-20T17:21:24Z</time>
      </trkpt>
      <trkpt lat="49.62665" lon="5.71379">
        <ele>369</ele>
        <time>2018-07-20T17:21:27Z</time>
      </trkpt>
      <trkpt lat="49.62674" lon="5.71371">
        <ele>366</ele>
        <time>2018-07-20T17:21:29Z</time>
      </trkpt>
      <trkpt lat="49.62686" lon="5.71371">
        <ele>364</ele>
        <time>2018-07-20T17:21:35Z</time>
      </trkpt>
      <trkpt lat="49.62695" lon="5.71368">
        <ele>363</ele>
        <time>2018-07-20T17:21:38Z</time>
      </trkpt>
      <trkpt lat="49.62711" lon="5.71348">
        <ele>363</ele>
        <time>2018-07-20T17:21:41Z</time>
      </trkpt>
      <trkpt lat="49.62718" lon="5.7134">
        <ele>360</ele>
        <time>2018-07-20T17:21:43Z</time>
      </trkpt>
      <trkpt lat="49.62732" lon="5.71333">
        <ele>362</ele>
        <time>2018-07-20T17:21:45Z</time>
      </trkpt>
      <trkpt lat="49.62742" lon="5.71334">
        <ele>367</ele>
        <time>2018-07-20T17:21:47Z</time>
      </trkpt>
      <trkpt lat="49.62758" lon="5.71313">
        <ele>367</ele>
        <time>2018-07-20T17:21:51Z</time>
      </trkpt>
      <trkpt lat="49.62766" lon="5.71298">
        <ele>364</ele>
        <time>2018-07-20T17:21:53Z</time>
      </trkpt>
      <trkpt lat="49.62777" lon="5.71283">
        <ele>363</ele>
        <time>2018-07-20T17:21:55Z</time>
      </trkpt>
      <trkpt lat="49.62785" lon="5.71267">
        <ele>363</ele>
        <time>2018-07-20T17:21:57Z</time>
      </trkpt>
      <trkpt lat="49.62794" lon="5.71243">
        <ele>365</ele>
        <time>2018-07-20T17:22:01Z</time>
      </trkpt>
      <trkpt lat="49.628" lon="5.71227">
        <ele>360</ele>
        <time>2018-07-20T17:22:03Z</time>
      </trkpt>
      <trkpt lat="49.62807" lon="5.71214">
        <ele>359</ele>
        <time>2018-07-20T17:22:05Z</time>
      </trkpt>
      <trkpt lat="49.62817" lon="5.71203">
        <ele>359</ele>
        <time>2018-07-20T17:22:07Z</time>
      </trkpt>
      <trkpt lat="49.62827" lon="5.71191">
        <ele>359</ele>
        <time>2018-07-20T17:22:09Z</time>
      </trkpt>
      <trkpt lat="49.62836" lon="5.7118">
        <ele>356</ele>
        <time>2018-07-20T17:22:11Z</time>
      </trkpt>
      <trkpt lat="49.62845" lon="5.7117">
        <ele>354</ele>
        <time>2018-07-20T17:22:13Z</time>
      </trkpt>
      <trkpt lat="49.62854" lon="5.7116">
        <ele>357</ele>
        <time>2018-07-20T17:22:15Z</time>
      </trkpt>
      <trkpt lat="49.62861" lon="5.71147">
        <ele>355</ele>
        <time>2018-07-20T17:22:17Z</time>
      </trkpt>
      <trkpt lat="49.62871" lon="5.71136">
        <ele>355</ele>
        <time>2018-07-20T17:22:19Z</time>
      </trkpt>
      <trkpt lat="49.6288" lon="5.71123">
        <ele>357</ele>
        <time>2018-07-20T17:22:22Z</time>
      </trkpt>
      <trkpt lat="49.62889" lon="5.71113">
        <ele>358</ele>
        <time>2018-07-20T17:22:24Z</time>
      </trkpt>
      <trkpt lat="49.62898" lon="5.711">
        <ele>360</ele>
        <time>2018-07-20T17:22:26Z</time>
      </trkpt>
      <trkpt lat="49.62906" lon="5.71085">
        <ele>364</ele>
        <time>2018-07-20T17:22:28Z</time>
      </trkpt>
      <trkpt lat="49.62913" lon="5.71072">
        <ele>364</ele>
        <time>2018-07-20T17:22:30Z</time>
      </trkpt>
      <trkpt lat="49.6292" lon="5.71056">
        <ele>362</ele>
        <time>2018-07-20T17:22:32Z</time>
      </trkpt>
      <trkpt lat="49.62929" lon="5.71039">
        <ele>360</ele>
        <time>2018-07-20T17:22:34Z</time>
      </trkpt>
      <trkpt lat="49.62937" lon="5.71028">
        <ele>360</ele>
        <time>2018-07-20T17:22:36Z</time>
      </trkpt>
      <trkpt lat="49.62948" lon="5.71018">
        <ele>360</ele>
        <time>2018-07-20T17:22:38Z</time>
      </trkpt>
      <trkpt lat="49.62958" lon="5.71008">
        <ele>361</ele>
        <time>2018-07-20T17:22:40Z</time>
      </trkpt>
      <trkpt lat="49.62971" lon="5.71003">
        <ele>360</ele>
        <time>2018-07-20T17:22:42Z</time>
      </trkpt>
      <trkpt lat="49.62981" lon="5.71002">
        <ele>359</ele>
        <time>2018-07-20T17:22:44Z</time>
      </trkpt>
      <trkpt lat="49.6299" lon="5.70998">
        <ele>357</ele>
        <time>2018-07-20T17:22:48Z</time>
      </trkpt>
      <trkpt lat="49.62993" lon="5.70982">
        <ele>356</ele>
        <time>2018-07-20T17:22:51Z</time>
      </trkpt>
      <trkpt lat="49.62993" lon="5.70958">
        <ele>354</ele>
        <time>2018-07-20T17:22:53Z</time>
      </trkpt>
      <trkpt lat="49.62991" lon="5.70943">
        <ele>355</ele>
        <time>2018-07-20T17:22:56Z</time>
      </trkpt>
      <trkpt lat="49.62993" lon="5.70929">
        <ele>354</ele>
        <time>2018-07-20T17:23:00Z</time>
      </trkpt>
      <trkpt lat="49.62998" lon="5.70915">
        <ele>357</ele>
        <time>2018-07-20T17:23:02Z</time>
      </trkpt>
      <trkpt lat="49.63006" lon="5.70901">
        <ele>357</ele>
        <time>2018-07-20T17:23:05Z</time>
      </trkpt>
      <trkpt lat="49.63012" lon="5.70889">
        <ele>358</ele>
        <time>2018-07-20T17:23:08Z</time>
      </trkpt>
      <trkpt lat="49.63022" lon="5.70871">
        <ele>358</ele>
        <time>2018-07-20T17:23:11Z</time>
      </trkpt>
      <trkpt lat="49.6303" lon="5.70858">
        <ele>357</ele>
        <time>2018-07-20T17:23:14Z</time>
      </trkpt>
      <trkpt lat="49.63036" lon="5.70846">
        <ele>357</ele>
        <time>2018-07-20T17:23:16Z</time>
      </trkpt>
      <trkpt lat="49.63042" lon="5.70835">
        <ele>356</ele>
        <time>2018-07-20T17:23:18Z</time>
      </trkpt>
      <trkpt lat="49.6305" lon="5.70817">
        <ele>357</ele>
        <time>2018-07-20T17:23:21Z</time>
      </trkpt>
      <trkpt lat="49.63058" lon="5.70805">
        <ele>358</ele>
        <time>2018-07-20T17:23:23Z</time>
      </trkpt>
      <trkpt lat="49.63066" lon="5.70792">
        <ele>356</ele>
        <time>2018-07-20T17:23:25Z</time>
      </trkpt>
      <trkpt lat="49.63073" lon="5.70779">
        <ele>356</ele>
        <time>2018-07-20T17:23:27Z</time>
      </trkpt>
      <trkpt lat="49.63079" lon="5.70767">
        <ele>356</ele>
        <time>2018-07-20T17:23:29Z</time>
      </trkpt>
      <trkpt lat="49.63089" lon="5.70752">
        <ele>355</ele>
        <time>2018-07-20T17:23:32Z</time>
      </trkpt>
      <trkpt lat="49.63095" lon="5.7074">
        <ele>355</ele>
        <time>2018-07-20T17:23:34Z</time>
      </trkpt>
      <trkpt lat="49.63102" lon="5.70726">
        <ele>356</ele>
        <time>2018-07-20T17:23:36Z</time>
      </trkpt>
      <trkpt lat="49.63112" lon="5.70712">
        <ele>357</ele>
        <time>2018-07-20T17:23:39Z</time>
      </trkpt>
      <trkpt lat="49.63121" lon="5.70694">
        <ele>357</ele>
        <time>2018-07-20T17:23:42Z</time>
      </trkpt>
      <trkpt lat="49.63127" lon="5.70683">
        <ele>358</ele>
        <time>2018-07-20T17:23:44Z</time>
      </trkpt>
      <trkpt lat="49.63135" lon="5.7067">
        <ele>358</ele>
        <time>2018-07-20T17:23:46Z</time>
      </trkpt>
      <trkpt lat="49.63141" lon="5.70656">
        <ele>358</ele>
        <time>2018-07-20T17:23:48Z</time>
      </trkpt>
      <trkpt lat="49.6315" lon="5.70639">
        <ele>359</ele>
        <time>2018-07-20T17:23:51Z</time>
      </trkpt>
      <trkpt lat="49.63155" lon="5.70627">
        <ele>360</ele>
        <time>2018-07-20T17:23:53Z</time>
      </trkpt>
      <trkpt lat="49.6316" lon="5.70613">
        <ele>361</ele>
        <time>2018-07-20T17:23:55Z</time>
      </trkpt>
      <trkpt lat="49.63167" lon="5.70602">
        <ele>361</ele>
        <time>2018-07-20T17:23:57Z</time>
      </trkpt>
      <trkpt lat="49.63171" lon="5.70588">
        <ele>360</ele>
        <time>2018-07-20T17:24:00Z</time>
      </trkpt>
      <trkpt lat="49.63171" lon="5.70574">
        <ele>361</ele>
        <time>2018-07-20T17:24:01Z</time>
      </trkpt>
      <trkpt lat="49.6317" lon="5.70557">
        <ele>360</ele>
        <time>2018-07-20T17:24:03Z</time>
      </trkpt>
      <trkpt lat="49.63174" lon="5.70541">
        <ele>358</ele>
        <time>2018-07-20T17:24:05Z</time>
      </trkpt>
      <trkpt lat="49.63174" lon="5.70522">
        <ele>360</ele>
        <time>2018-07-20T17:24:08Z</time>
      </trkpt>
      <trkpt lat="49.63177" lon="5.70505">
        <ele>358</ele>
        <time>2018-07-20T17:24:11Z</time>
      </trkpt>
      <trkpt lat="49.63175" lon="5.70489">
        <ele>359</ele>
        <time>2018-07-20T17:24:13Z</time>
      </trkpt>
      <trkpt lat="49.63173" lon="5.70471">
        <ele>364</ele>
        <time>2018-07-20T17:24:18Z</time>
      </trkpt>
      <trkpt lat="49.63168" lon="5.70448">
        <ele>368</ele>
        <time>2018-07-20T17:24:20Z</time>
      </trkpt>
      <trkpt lat="49.6316" lon="5.70427">
        <ele>367</ele>
        <time>2018-07-20T17:24:23Z</time>
      </trkpt>
      <trkpt lat="49.63157" lon="5.7041">
        <ele>366</ele>
        <time>2018-07-20T17:24:25Z</time>
      </trkpt>
      <trkpt lat="49.63151" lon="5.70399">
        <ele>364</ele>
        <time>2018-07-20T17:24:27Z</time>
      </trkpt>
      <trkpt lat="49.63145" lon="5.70384">
        <ele>367</ele>
        <time>2018-07-20T17:24:29Z</time>
      </trkpt>
      <trkpt lat="49.63141" lon="5.7037">
        <ele>367</ele>
        <time>2018-07-20T17:24:31Z</time>
      </trkpt>
      <trkpt lat="49.63135" lon="5.70357">
        <ele>369</ele>
        <time>2018-07-20T17:24:33Z</time>
      </trkpt>
      <trkpt lat="49.63132" lon="5.7034">
        <ele>370</ele>
        <time>2018-07-20T17:24:35Z</time>
      </trkpt>
      <trkpt lat="49.63127" lon="5.70325">
        <ele>371</ele>
        <time>2018-07-20T17:24:37Z</time>
      </trkpt>
      <trkpt lat="49.63122" lon="5.70308">
        <ele>374</ele>
        <time>2018-07-20T17:24:39Z</time>
      </trkpt>
      <trkpt lat="49.63114" lon="5.7029">
        <ele>372</ele>
        <time>2018-07-20T17:24:41Z</time>
      </trkpt>
      <trkpt lat="49.63111" lon="5.70276">
        <ele>375</ele>
        <time>2018-07-20T17:24:43Z</time>
      </trkpt>
      <trkpt lat="49.63105" lon="5.70261">
        <ele>374</ele>
        <time>2018-07-20T17:24:47Z</time>
      </trkpt>
      <trkpt lat="49.63101" lon="5.70248">
        <ele>370</ele>
        <time>2018-07-20T17:24:50Z</time>
      </trkpt>
      <trkpt lat="49.63097" lon="5.70233">
        <ele>371</ele>
        <time>2018-07-20T17:24:54Z</time>
      </trkpt>
      <trkpt lat="49.63092" lon="5.70217">
        <ele>372</ele>
        <time>2018-07-20T17:24:58Z</time>
      </trkpt>
      <trkpt lat="49.63089" lon="5.70201">
        <ele>375</ele>
        <time>2018-07-20T17:25:01Z</time>
      </trkpt>
      <trkpt lat="49.63088" lon="5.70184">
        <ele>371</ele>
        <time>2018-07-20T17:25:04Z</time>
      </trkpt>
      <trkpt lat="49.63087" lon="5.70166">
        <ele>368</ele>
        <time>2018-07-20T17:25:07Z</time>
      </trkpt>
      <trkpt lat="49.63085" lon="5.70148">
        <ele>372</ele>
        <time>2018-07-20T17:25:10Z</time>
      </trkpt>
      <trkpt lat="49.63082" lon="5.70135">
        <ele>368</ele>
        <time>2018-07-20T17:25:13Z</time>
      </trkpt>
      <trkpt lat="49.63079" lon="5.70121">
        <ele>371</ele>
        <time>2018-07-20T17:25:16Z</time>
      </trkpt>
      <trkpt lat="49.63075" lon="5.70107">
        <ele>373</ele>
        <time>2018-07-20T17:25:19Z</time>
      </trkpt>
      <trkpt lat="49.63071" lon="5.70094">
        <ele>372</ele>
        <time>2018-07-20T17:25:22Z</time>
      </trkpt>
      <trkpt lat="49.63067" lon="5.70077">
        <ele>368</ele>
        <time>2018-07-20T17:25:26Z</time>
      </trkpt>
      <trkpt lat="49.63061" lon="5.70053">
        <ele>366</ele>
        <time>2018-07-20T17:25:28Z</time>
      </trkpt>
      <trkpt lat="49.63055" lon="5.7002">
        <ele>368</ele>
        <time>2018-07-20T17:25:30Z</time>
      </trkpt>
      <trkpt lat="49.63044" lon="5.69995">
        <ele>365</ele>
        <time>2018-07-20T17:25:32Z</time>
      </trkpt>
      <trkpt lat="49.6303" lon="5.69971">
        <ele>360</ele>
        <time>2018-07-20T17:25:34Z</time>
      </trkpt>
      <trkpt lat="49.63017" lon="5.69953">
        <ele>360</ele>
        <time>2018-07-20T17:25:36Z</time>
      </trkpt>
      <trkpt lat="49.62999" lon="5.69939">
        <ele>356</ele>
        <time>2018-07-20T17:25:38Z</time>
      </trkpt>
      <trkpt lat="49.62977" lon="5.69934">
        <ele>353</ele>
        <time>2018-07-20T17:25:40Z</time>
      </trkpt>
      <trkpt lat="49.62956" lon="5.69924">
        <ele>351</ele>
        <time>2018-07-20T17:25:42Z</time>
      </trkpt>
      <trkpt lat="49.62935" lon="5.69911">
        <ele>347</ele>
        <time>2018-07-20T17:25:44Z</time>
      </trkpt>
      <trkpt lat="49.62921" lon="5.69903">
        <ele>349</ele>
        <time>2018-07-20T17:25:46Z</time>
      </trkpt>
      <trkpt lat="49.62907" lon="5.69897">
        <ele>348</ele>
        <time>2018-07-20T17:25:48Z</time>
      </trkpt>
      <trkpt lat="49.62887" lon="5.69892">
        <ele>347</ele>
        <time>2018-07-20T17:25:50Z</time>
      </trkpt>
      <trkpt lat="49.62873" lon="5.69884">
        <ele>348</ele>
        <time>2018-07-20T17:25:52Z</time>
      </trkpt>
      <trkpt lat="49.62863" lon="5.69876">
        <ele>345</ele>
        <time>2018-07-20T17:25:53Z</time>
      </trkpt>
      <trkpt lat="49.62842" lon="5.69866">
        <ele>340</ele>
        <time>2018-07-20T17:25:55Z</time>
      </trkpt>
      <trkpt lat="49.62821" lon="5.69856">
        <ele>335</ele>
        <time>2018-07-20T17:25:57Z</time>
      </trkpt>
      <trkpt lat="49.62803" lon="5.69848">
        <ele>331</ele>
        <time>2018-07-20T17:25:59Z</time>
      </trkpt>
      <trkpt lat="49.62792" lon="5.69836">
        <ele>330</ele>
        <time>2018-07-20T17:26:01Z</time>
      </trkpt>
      <trkpt lat="49.6279" lon="5.6982">
        <ele>328</ele>
        <time>2018-07-20T17:26:03Z</time>
      </trkpt>
      <trkpt lat="49.62798" lon="5.69807">
        <ele>328</ele>
        <time>2018-07-20T17:26:06Z</time>
      </trkpt>
      <trkpt lat="49.62808" lon="5.69803">
        <ele>329</ele>
        <time>2018-07-20T17:26:08Z</time>
      </trkpt>
      <trkpt lat="49.62819" lon="5.69795">
        <ele>330</ele>
        <time>2018-07-20T17:26:10Z</time>
      </trkpt>
      <trkpt lat="49.6283" lon="5.69789">
        <ele>330</ele>
        <time>2018-07-20T17:26:12Z</time>
      </trkpt>
      <trkpt lat="49.62839" lon="5.69783">
        <ele>330</ele>
        <time>2018-07-20T17:26:14Z</time>
      </trkpt>
      <trkpt lat="49.62848" lon="5.69777">
        <ele>330</ele>
        <time>2018-07-20T17:26:16Z</time>
      </trkpt>
      <trkpt lat="49.62857" lon="5.69772">
        <ele>331</ele>
        <time>2018-07-20T17:26:18Z</time>
      </trkpt>
      <trkpt lat="49.62866" lon="5.69769">
        <ele>332</ele>
        <time>2018-07-20T17:26:21Z</time>
      </trkpt>
      <trkpt lat="49.62877" lon="5.69764">
        <ele>333</ele>
        <time>2018-07-20T17:26:22Z</time>
      </trkpt>
      <trkpt lat="49.62886" lon="5.69761">
        <ele>333</ele>
        <time>2018-07-20T17:26:24Z</time>
      </trkpt>
      <trkpt lat="49.62897" lon="5.69761">
        <ele>333</ele>
        <time>2018-07-20T17:26:27Z</time>
      </trkpt>
      <trkpt lat="49.62911" lon="5.69759">
        <ele>331</ele>
        <time>2018-07-20T17:26:30Z</time>
      </trkpt>
      <trkpt lat="49.62923" lon="5.69757">
        <ele>333</ele>
        <time>2018-07-20T17:26:33Z</time>
      </trkpt>
      <trkpt lat="49.62934" lon="5.69756">
        <ele>335</ele>
        <time>2018-07-20T17:26:36Z</time>
      </trkpt>
      <trkpt lat="49.62944" lon="5.69754">
        <ele>335</ele>
        <time>2018-07-20T17:26:38Z</time>
      </trkpt>
      <trkpt lat="49.62954" lon="5.69752">
        <ele>333</ele>
        <time>2018-07-20T17:26:40Z</time>
      </trkpt>
      <trkpt lat="49.62966" lon="5.69751">
        <ele>334</ele>
        <time>2018-07-20T17:26:43Z</time>
      </trkpt>
      <trkpt lat="49.62977" lon="5.6975">
        <ele>337</ele>
        <time>2018-07-20T17:26:46Z</time>
      </trkpt>
      <trkpt lat="49.62989" lon="5.69751">
        <ele>339</ele>
        <time>2018-07-20T17:26:49Z</time>
      </trkpt>
      <trkpt lat="49.62998" lon="5.69744">
        <ele>338</ele>
        <time>2018-07-20T17:26:51Z</time>
      </trkpt>
      <trkpt lat="49.63007" lon="5.69743">
        <ele>344</ele>
        <time>2018-07-20T17:26:54Z</time>
      </trkpt>
      <trkpt lat="49.63017" lon="5.69741">
        <ele>342</ele>
        <time>2018-07-20T17:26:57Z</time>
      </trkpt>
      <trkpt lat="49.63027" lon="5.69736">
        <ele>342</ele>
        <time>2018-07-20T17:27:00Z</time>
      </trkpt>
      <trkpt lat="49.63038" lon="5.69732">
        <ele>341</ele>
        <time>2018-07-20T17:27:04Z</time>
      </trkpt>
      <trkpt lat="49.63046" lon="5.69725">
        <ele>342</ele>
        <time>2018-07-20T17:27:08Z</time>
      </trkpt>
      <trkpt lat="49.63056" lon="5.69706">
        <ele>342</ele>
        <time>2018-07-20T17:27:11Z</time>
      </trkpt>
      <trkpt lat="49.63061" lon="5.69693">
        <ele>342</ele>
        <time>2018-07-20T17:27:13Z</time>
      </trkpt>
      <trkpt lat="49.63067" lon="5.69682">
        <ele>341</ele>
        <time>2018-07-20T17:27:15Z</time>
      </trkpt>
      <trkpt lat="49.63074" lon="5.6967">
        <ele>342</ele>
        <time>2018-07-20T17:27:42Z</time>
      </trkpt>
      <trkpt lat="49.63081" lon="5.69653">
        <ele>348</ele>
        <time>2018-07-20T17:27:47Z</time>
      </trkpt>
      <trkpt lat="49.63086" lon="5.69641">
        <ele>349</ele>
        <time>2018-07-20T17:27:50Z</time>
      </trkpt>
      <trkpt lat="49.63091" lon="5.69629">
        <ele>351</ele>
        <time>2018-07-20T17:27:53Z</time>
      </trkpt>
      <trkpt lat="49.63096" lon="5.69617">
        <ele>351</ele>
        <time>2018-07-20T17:27:56Z</time>
      </trkpt>
      <trkpt lat="49.63102" lon="5.69604">
        <ele>351</ele>
        <time>2018-07-20T17:27:59Z</time>
      </trkpt>
      <trkpt lat="49.63109" lon="5.69589">
        <ele>355</ele>
        <time>2018-07-20T17:28:02Z</time>
      </trkpt>
      <trkpt lat="49.63121" lon="5.69571">
        <ele>355</ele>
        <time>2018-07-20T17:28:04Z</time>
      </trkpt>
      <trkpt lat="49.6313" lon="5.69554">
        <ele>355</ele>
        <time>2018-07-20T17:28:07Z</time>
      </trkpt>
      <trkpt lat="49.63146" lon="5.69536">
        <ele>354</ele>
        <time>2018-07-20T17:28:11Z</time>
      </trkpt>
      <trkpt lat="49.63155" lon="5.69521">
        <ele>354</ele>
        <time>2018-07-20T17:28:14Z</time>
      </trkpt>
      <trkpt lat="49.63162" lon="5.69501">
        <ele>353</ele>
        <time>2018-07-20T17:28:16Z</time>
      </trkpt>
      <trkpt lat="49.63165" lon="5.69488">
        <ele>357</ele>
        <time>2018-07-20T17:28:18Z</time>
      </trkpt>
      <trkpt lat="49.63168" lon="5.69472">
        <ele>362</ele>
        <time>2018-07-20T17:28:20Z</time>
      </trkpt>
      <trkpt lat="49.63167" lon="5.69454">
        <ele>362</ele>
        <time>2018-07-20T17:28:22Z</time>
      </trkpt>
      <trkpt lat="49.63163" lon="5.69434">
        <ele>358</ele>
        <time>2018-07-20T17:28:24Z</time>
      </trkpt>
      <trkpt lat="49.63158" lon="5.69411">
        <ele>358</ele>
        <time>2018-07-20T17:28:26Z</time>
      </trkpt>
      <trkpt lat="49.63148" lon="5.69393">
        <ele>356</ele>
        <time>2018-07-20T17:28:28Z</time>
      </trkpt>
      <trkpt lat="49.6314" lon="5.6938">
        <ele>352</ele>
        <time>2018-07-20T17:28:30Z</time>
      </trkpt>
      <trkpt lat="49.63135" lon="5.69366">
        <ele>355</ele>
        <time>2018-07-20T17:28:34Z</time>
      </trkpt>
      <trkpt lat="49.6313" lon="5.69352">
        <ele>356</ele>
        <time>2018-07-20T17:28:37Z</time>
      </trkpt>
      <trkpt lat="49.63126" lon="5.69334">
        <ele>355</ele>
        <time>2018-07-20T17:28:39Z</time>
      </trkpt>
      <trkpt lat="49.63122" lon="5.69319">
        <ele>353</ele>
        <time>2018-07-20T17:28:44Z</time>
      </trkpt>
      <trkpt lat="49.63121" lon="5.69303">
        <ele>352</ele>
        <time>2018-07-20T17:28:49Z</time>
      </trkpt>
      <trkpt lat="49.63124" lon="5.69289">
        <ele>350</ele>
        <time>2018-07-20T17:28:52Z</time>
      </trkpt>
      <trkpt lat="49.63127" lon="5.69273">
        <ele>351</ele>
        <time>2018-07-20T17:28:55Z</time>
      </trkpt>
      <trkpt lat="49.6313" lon="5.69257">
        <ele>351</ele>
        <time>2018-07-20T17:28:58Z</time>
      </trkpt>
      <trkpt lat="49.63133" lon="5.69241">
        <ele>352</ele>
        <time>2018-07-20T17:29:01Z</time>
      </trkpt>
      <trkpt lat="49.63135" lon="5.69224">
        <ele>354</ele>
        <time>2018-07-20T17:29:04Z</time>
      </trkpt>
      <trkpt lat="49.63139" lon="5.69208">
        <ele>355</ele>
        <time>2018-07-20T17:29:07Z</time>
      </trkpt>
      <trkpt lat="49.63143" lon="5.69193">
        <ele>355</ele>
        <time>2018-07-20T17:29:10Z</time>
      </trkpt>
      <trkpt lat="49.63147" lon="5.69177">
        <ele>353</ele>
        <time>2018-07-20T17:29:14Z</time>
      </trkpt>
      <trkpt lat="49.63153" lon="5.69162">
        <ele>349</ele>
        <time>2018-07-20T17:29:19Z</time>
      </trkpt>
      <trkpt lat="49.63164" lon="5.69148">
        <ele>351</ele>
        <time>2018-07-20T17:29:23Z</time>
      </trkpt>
      <trkpt lat="49.63172" lon="5.69142">
        <ele>351</ele>
        <time>2018-07-20T17:29:25Z</time>
      </trkpt>
      <trkpt lat="49.63185" lon="5.69134">
        <ele>348</ele>
        <time>2018-07-20T17:29:27Z</time>
      </trkpt>
      <trkpt lat="49.63203" lon="5.69141">
        <ele>348</ele>
        <time>2018-07-20T17:29:29Z</time>
      </trkpt>
      <trkpt lat="49.63212" lon="5.69144">
        <ele>350</ele>
        <time>2018-07-20T17:29:31Z</time>
      </trkpt>
      <trkpt lat="49.63224" lon="5.6915">
        <ele>350</ele>
        <time>2018-07-20T17:29:33Z</time>
      </trkpt>
      <trkpt lat="49.63239" lon="5.69154">
        <ele>348</ele>
        <time>2018-07-20T17:29:35Z</time>
      </trkpt>
      <trkpt lat="49.63258" lon="5.6915">
        <ele>347</ele>
        <time>2018-07-20T17:29:37Z</time>
      </trkpt>
      <trkpt lat="49.63263" lon="5.69135">
        <ele>347</ele>
        <time>2018-07-20T17:29:42Z</time>
      </trkpt>
      <trkpt lat="49.63264" lon="5.6912">
        <ele>351</ele>
        <time>2018-07-20T17:29:46Z</time>
      </trkpt>
      <trkpt lat="49.63265" lon="5.69105">
        <ele>347</ele>
        <time>2018-07-20T17:29:50Z</time>
      </trkpt>
      <trkpt lat="49.63264" lon="5.69088">
        <ele>340</ele>
        <time>2018-07-20T17:29:54Z</time>
      </trkpt>
      <trkpt lat="49.63264" lon="5.69072">
        <ele>344</ele>
        <time>2018-07-20T17:29:57Z</time>
      </trkpt>
      <trkpt lat="49.63264" lon="5.69057">
        <ele>347</ele>
        <time>2018-07-20T17:29:59Z</time>
      </trkpt>
      <trkpt lat="49.63263" lon="5.69038">
        <ele>346</ele>
        <time>2018-07-20T17:30:02Z</time>
      </trkpt>
      <trkpt lat="49.63261" lon="5.69024">
        <ele>349</ele>
        <time>2018-07-20T17:30:05Z</time>
      </trkpt>
      <trkpt lat="49.63261" lon="5.69008">
        <ele>356</ele>
        <time>2018-07-20T17:30:09Z</time>
      </trkpt>
      <trkpt lat="49.63262" lon="5.68991">
        <ele>351</ele>
        <time>2018-07-20T17:30:13Z</time>
      </trkpt>
      <trkpt lat="49.63262" lon="5.68974">
        <ele>349</ele>
        <time>2018-07-20T17:30:16Z</time>
      </trkpt>
      <trkpt lat="49.63261" lon="5.6895">
        <ele>347</ele>
        <time>2018-07-20T17:30:17Z</time>
      </trkpt>
      <trkpt lat="49.63254" lon="5.68916">
        <ele>348</ele>
        <time>2018-07-20T17:30:19Z</time>
      </trkpt>
      <trkpt lat="49.63246" lon="5.68888">
        <ele>345</ele>
        <time>2018-07-20T17:30:21Z</time>
      </trkpt>
      <trkpt lat="49.63238" lon="5.68865">
        <ele>345</ele>
        <time>2018-07-20T17:30:23Z</time>
      </trkpt>
      <trkpt lat="49.6323" lon="5.68838">
        <ele>346</ele>
        <time>2018-07-20T17:30:25Z</time>
      </trkpt>
      <trkpt lat="49.63219" lon="5.68816">
        <ele>344</ele>
        <time>2018-07-20T17:30:27Z</time>
      </trkpt>
      <trkpt lat="49.6321" lon="5.688">
        <ele>341</ele>
        <time>2018-07-20T17:30:29Z</time>
      </trkpt>
      <trkpt lat="49.63205" lon="5.68781">
        <ele>340</ele>
        <time>2018-07-20T17:30:31Z</time>
      </trkpt>
      <trkpt lat="49.63197" lon="5.6876">
        <ele>343</ele>
        <time>2018-07-20T17:30:34Z</time>
      </trkpt>
      <trkpt lat="49.63185" lon="5.68739">
        <ele>344</ele>
        <time>2018-07-20T17:30:35Z</time>
      </trkpt>
      <trkpt lat="49.63176" lon="5.68721">
        <ele>342</ele>
        <time>2018-07-20T17:30:37Z</time>
      </trkpt>
      <trkpt lat="49.63172" lon="5.68702">
        <ele>342</ele>
        <time>2018-07-20T17:30:39Z</time>
      </trkpt>
      <trkpt lat="49.63174" lon="5.68686">
        <ele>348</ele>
        <time>2018-07-20T17:30:41Z</time>
      </trkpt>
      <trkpt lat="49.63169" lon="5.68671">
        <ele>351</ele>
        <time>2018-07-20T17:30:43Z</time>
      </trkpt>
      <trkpt lat="49.63159" lon="5.68656">
        <ele>350</ele>
        <time>2018-07-20T17:30:45Z</time>
      </trkpt>
      <trkpt lat="49.63153" lon="5.68642">
        <ele>349</ele>
        <time>2018-07-20T17:30:47Z</time>
      </trkpt>
      <trkpt lat="49.63146" lon="5.68623">
        <ele>353</ele>
        <time>2018-07-20T17:30:49Z</time>
      </trkpt>
      <trkpt lat="49.63134" lon="5.68602">
        <ele>353</ele>
        <time>2018-07-20T17:30:51Z</time>
      </trkpt>
      <trkpt lat="49.63133" lon="5.68587">
        <ele>358</ele>
        <time>2018-07-20T17:30:53Z</time>
      </trkpt>
      <trkpt lat="49.6312" lon="5.68563">
        <ele>359</ele>
        <time>2018-07-20T17:30:56Z</time>
      </trkpt>
      <trkpt lat="49.63112" lon="5.68552">
        <ele>355</ele>
        <time>2018-07-20T17:31:00Z</time>
      </trkpt>
      <trkpt lat="49.63104" lon="5.68543">
        <ele>351</ele>
        <time>2018-07-20T17:31:04Z</time>
      </trkpt>
      <trkpt lat="49.63097" lon="5.68529">
        <ele>351</ele>
        <time>2018-07-20T17:31:08Z</time>
      </trkpt>
      <trkpt lat="49.63093" lon="5.68513">
        <ele>353</ele>
        <time>2018-07-20T17:31:11Z</time>
      </trkpt>
      <trkpt lat="49.63081" lon="5.68481">
        <ele>351</ele>
        <time>2018-07-20T17:31:13Z</time>
      </trkpt>
      <trkpt lat="49.63078" lon="5.68468">
        <ele>352</ele>
        <time>2018-07-20T17:31:17Z</time>
      </trkpt>
      <trkpt lat="49.63074" lon="5.68452">
        <ele>355</ele>
        <time>2018-07-20T17:31:21Z</time>
      </trkpt>
      <trkpt lat="49.63064" lon="5.68429">
        <ele>353</ele>
        <time>2018-07-20T17:31:23Z</time>
      </trkpt>
      <trkpt lat="49.63054" lon="5.68412">
        <ele>351</ele>
        <time>2018-07-20T17:31:26Z</time>
      </trkpt>
      <trkpt lat="49.63048" lon="5.68396">
        <ele>349</ele>
        <time>2018-07-20T17:31:27Z</time>
      </trkpt>
      <trkpt lat="49.63046" lon="5.68382">
        <ele>347</ele>
        <time>2018-07-20T17:31:35Z</time>
      </trkpt>
      <trkpt lat="49.63049" lon="5.68369">
        <ele>346</ele>
        <time>2018-07-20T17:31:44Z</time>
      </trkpt>
      <trkpt lat="49.63054" lon="5.68356">
        <ele>343</ele>
        <time>2018-07-20T17:31:51Z</time>
      </trkpt>
      <trkpt lat="49.6306" lon="5.68341">
        <ele>339</ele>
        <time>2018-07-20T17:31:55Z</time>
      </trkpt>
      <trkpt lat="49.63067" lon="5.68328">
        <ele>344</ele>
        <time>2018-07-20T17:31:58Z</time>
      </trkpt>
      <trkpt lat="49.63073" lon="5.68317">
        <ele>343</ele>
        <time>2018-07-20T17:32:00Z</time>
      </trkpt>
      <trkpt lat="49.63091" lon="5.68288">
        <ele>343</ele>
        <time>2018-07-20T17:32:01Z</time>
      </trkpt>
      <trkpt lat="49.631" lon="5.68276">
        <ele>341</ele>
        <time>2018-07-20T17:32:04Z</time>
      </trkpt>
      <trkpt lat="49.63109" lon="5.68261">
        <ele>341</ele>
        <time>2018-07-20T17:32:06Z</time>
      </trkpt>
      <trkpt lat="49.63124" lon="5.68251">
        <ele>339</ele>
        <time>2018-07-20T17:32:10Z</time>
      </trkpt>
      <trkpt lat="49.63136" lon="5.68243">
        <ele>339</ele>
        <time>2018-07-20T17:32:13Z</time>
      </trkpt>
      <trkpt lat="49.63147" lon="5.68246">
        <ele>341</ele>
        <time>2018-07-20T17:32:18Z</time>
      </trkpt>
      <trkpt lat="49.63167" lon="5.68246">
        <ele>337</ele>
        <time>2018-07-20T17:32:21Z</time>
      </trkpt>
      <trkpt lat="49.63176" lon="5.68246">
        <ele>337</ele>
        <time>2018-07-20T17:32:23Z</time>
      </trkpt>
      <trkpt lat="49.6319" lon="5.68241">
        <ele>336</ele>
        <time>2018-07-20T17:32:26Z</time>
      </trkpt>
      <trkpt lat="49.63203" lon="5.68233">
        <ele>336</ele>
        <time>2018-07-20T17:32:27Z</time>
      </trkpt>
      <trkpt lat="49.63213" lon="5.68228">
        <ele>337</ele>
        <time>2018-07-20T17:32:29Z</time>
      </trkpt>
      <trkpt lat="49.63225" lon="5.6823">
        <ele>335</ele>
        <time>2018-07-20T17:32:32Z</time>
      </trkpt>
      <trkpt lat="49.63236" lon="5.68229">
        <ele>335</ele>
        <time>2018-07-20T17:32:33Z</time>
      </trkpt>
      <trkpt lat="49.63246" lon="5.6823">
        <ele>334</ele>
        <time>2018-07-20T17:32:35Z</time>
      </trkpt>
      <trkpt lat="49.63261" lon="5.68238">
        <ele>336</ele>
        <time>2018-07-20T17:32:38Z</time>
      </trkpt>
      <trkpt lat="49.63273" lon="5.68247">
        <ele>336</ele>
        <time>2018-07-20T17:32:40Z</time>
      </trkpt>
      <trkpt lat="49.63284" lon="5.68248">
        <ele>335</ele>
        <time>2018-07-20T17:32:41Z</time>
      </trkpt>
      <trkpt lat="49.63293" lon="5.68256">
        <ele>338</ele>
        <time>2018-07-20T17:32:43Z</time>
      </trkpt>
      <trkpt lat="49.63305" lon="5.68262">
        <ele>337</ele>
        <time>2018-07-20T17:32:45Z</time>
      </trkpt>
      <trkpt lat="49.63317" lon="5.68269">
        <ele>336</ele>
        <time>2018-07-20T17:32:47Z</time>
      </trkpt>
      <trkpt lat="49.63329" lon="5.68268">
        <ele>337</ele>
        <time>2018-07-20T17:32:49Z</time>
      </trkpt>
      <trkpt lat="49.6334" lon="5.68269">
        <ele>337</ele>
        <time>2018-07-20T17:32:51Z</time>
      </trkpt>
      <trkpt lat="49.63351" lon="5.6827">
        <ele>338</ele>
        <time>2018-07-20T17:32:53Z</time>
      </trkpt>
      <trkpt lat="49.63362" lon="5.68272">
        <ele>338</ele>
        <time>2018-07-20T17:32:55Z</time>
      </trkpt>
      <trkpt lat="49.6338" lon="5.68267">
        <ele>335</ele>
        <time>2018-07-20T17:32:57Z</time>
      </trkpt>
      <trkpt lat="49.63391" lon="5.68266">
        <ele>335</ele>
        <time>2018-07-20T17:33:00Z</time>
      </trkpt>
      <trkpt lat="49.63404" lon="5.68275">
        <ele>334</ele>
        <time>2018-07-20T17:33:02Z</time>
      </trkpt>
      <trkpt lat="49.63415" lon="5.68278">
        <ele>334</ele>
        <time>2018-07-20T17:33:04Z</time>
      </trkpt>
      <trkpt lat="49.63425" lon="5.6828">
        <ele>332</ele>
        <time>2018-07-20T17:33:06Z</time>
      </trkpt>
      <trkpt lat="49.63439" lon="5.68281">
        <ele>333</ele>
        <time>2018-07-20T17:33:09Z</time>
      </trkpt>
      <trkpt lat="49.63448" lon="5.68281">
        <ele>333</ele>
        <time>2018-07-20T17:33:11Z</time>
      </trkpt>
      <trkpt lat="49.63457" lon="5.68287">
        <ele>332</ele>
        <time>2018-07-20T17:33:14Z</time>
      </trkpt>
      <trkpt lat="49.63468" lon="5.68288">
        <ele>334</ele>
        <time>2018-07-20T17:33:16Z</time>
      </trkpt>
      <trkpt lat="49.63477" lon="5.68291">
        <ele>332</ele>
        <time>2018-07-20T17:33:18Z</time>
      </trkpt>
      <trkpt lat="49.63486" lon="5.68295">
        <ele>333</ele>
        <time>2018-07-20T17:33:20Z</time>
      </trkpt>
      <trkpt lat="49.63497" lon="5.68301">
        <ele>334</ele>
        <time>2018-07-20T17:33:22Z</time>
      </trkpt>
      <trkpt lat="49.63511" lon="5.68304">
        <ele>336</ele>
        <time>2018-07-20T17:33:25Z</time>
      </trkpt>
      <trkpt lat="49.6352" lon="5.68305">
        <ele>335</ele>
        <time>2018-07-20T17:33:27Z</time>
      </trkpt>
      <trkpt lat="49.63531" lon="5.6831">
        <ele>336</ele>
        <time>2018-07-20T17:33:29Z</time>
      </trkpt>
      <trkpt lat="49.63541" lon="5.68315">
        <ele>333</ele>
        <time>2018-07-20T17:33:31Z</time>
      </trkpt>
      <trkpt lat="49.6355" lon="5.68317">
        <ele>333</ele>
        <time>2018-07-20T17:33:33Z</time>
      </trkpt>
      <trkpt lat="49.6356" lon="5.68321">
        <ele>333</ele>
        <time>2018-07-20T17:33:35Z</time>
      </trkpt>
      <trkpt lat="49.6357" lon="5.68318">
        <ele>334</ele>
        <time>2018-07-20T17:33:44Z</time>
      </trkpt>
      <trkpt lat="49.63578" lon="5.68308">
        <ele>336</ele>
        <time>2018-07-20T17:33:55Z</time>
      </trkpt>
      <trkpt lat="49.63575" lon="5.68292">
        <ele>341</ele>
        <time>2018-07-20T17:34:03Z</time>
      </trkpt>
      <trkpt lat="49.63573" lon="5.68274">
        <ele>344</ele>
        <time>2018-07-20T17:34:07Z</time>
      </trkpt>
      <trkpt lat="49.6357" lon="5.68261">
        <ele>340</ele>
        <time>2018-07-20T17:34:11Z</time>
      </trkpt>
      <trkpt lat="49.63565" lon="5.68247">
        <ele>340</ele>
        <time>2018-07-20T17:34:14Z</time>
      </trkpt>
      <trkpt lat="49.6356" lon="5.68231">
        <ele>341</ele>
        <time>2018-07-20T17:34:17Z</time>
      </trkpt>
      <trkpt lat="49.63558" lon="5.68213">
        <ele>342</ele>
        <time>2018-07-20T17:34:20Z</time>
      </trkpt>
      <trkpt lat="49.63557" lon="5.68196">
        <ele>341</ele>
        <time>2018-07-20T17:34:23Z</time>
      </trkpt>
      <trkpt lat="49.63556" lon="5.6818">
        <ele>345</ele>
        <time>2018-07-20T17:34:26Z</time>
      </trkpt>
      <trkpt lat="49.63556" lon="5.68163">
        <ele>347</ele>
        <time>2018-07-20T17:34:29Z</time>
      </trkpt>
      <trkpt lat="49.63556" lon="5.68145">
        <ele>346</ele>
        <time>2018-07-20T17:34:32Z</time>
      </trkpt>
      <trkpt lat="49.63556" lon="5.68129">
        <ele>348</ele>
        <time>2018-07-20T17:34:36Z</time>
      </trkpt>
      <trkpt lat="49.63553" lon="5.68114">
        <ele>348</ele>
        <time>2018-07-20T17:34:41Z</time>
      </trkpt>
      <trkpt lat="49.63552" lon="5.68096">
        <ele>344</ele>
        <time>2018-07-20T17:34:46Z</time>
      </trkpt>
      <trkpt lat="49.63553" lon="5.68078">
        <ele>343</ele>
        <time>2018-07-20T17:34:49Z</time>
      </trkpt>
      <trkpt lat="49.63553" lon="5.68064">
        <ele>342</ele>
        <time>2018-07-20T17:34:51Z</time>
      </trkpt>
      <trkpt lat="49.63553" lon="5.68049">
        <ele>342</ele>
        <time>2018-07-20T17:34:53Z</time>
      </trkpt>
      <trkpt lat="49.63554" lon="5.68031">
        <ele>344</ele>
        <time>2018-07-20T17:34:55Z</time>
      </trkpt>
      <trkpt lat="49.63554" lon="5.68011">
        <ele>339</ele>
        <time>2018-07-20T17:34:58Z</time>
      </trkpt>
      <trkpt lat="49.63554" lon="5.67991">
        <ele>336</ele>
        <time>2018-07-20T17:35:01Z</time>
      </trkpt>
      <trkpt lat="49.63552" lon="5.67976">
        <ele>334</ele>
        <time>2018-07-20T17:35:03Z</time>
      </trkpt>
      <trkpt lat="49.63548" lon="5.67961">
        <ele>336</ele>
        <time>2018-07-20T17:35:05Z</time>
      </trkpt>
      <trkpt lat="49.63545" lon="5.67944">
        <ele>335</ele>
        <time>2018-07-20T17:35:08Z</time>
      </trkpt>
      <trkpt lat="49.63541" lon="5.67928">
        <ele>337</ele>
        <time>2018-07-20T17:35:11Z</time>
      </trkpt>
      <trkpt lat="49.63537" lon="5.67913">
        <ele>335</ele>
        <time>2018-07-20T17:35:14Z</time>
      </trkpt>
      <trkpt lat="49.63533" lon="5.67898">
        <ele>337</ele>
        <time>2018-07-20T17:35:17Z</time>
      </trkpt>
      <trkpt lat="49.63527" lon="5.67884">
        <ele>336</ele>
        <time>2018-07-20T17:35:20Z</time>
      </trkpt>
      <trkpt lat="49.63514" lon="5.67866">
        <ele>338</ele>
        <time>2018-07-20T17:35:22Z</time>
      </trkpt>
      <trkpt lat="49.63508" lon="5.67855">
        <ele>341</ele>
        <time>2018-07-20T17:35:24Z</time>
      </trkpt>
      <trkpt lat="49.63496" lon="5.67837">
        <ele>336</ele>
        <time>2018-07-20T17:35:26Z</time>
      </trkpt>
      <trkpt lat="49.6349" lon="5.67826">
        <ele>336</ele>
        <time>2018-07-20T17:35:28Z</time>
      </trkpt>
      <trkpt lat="49.63482" lon="5.67816">
        <ele>335</ele>
        <time>2018-07-20T17:35:30Z</time>
      </trkpt>
      <trkpt lat="49.63473" lon="5.67802">
        <ele>337</ele>
        <time>2018-07-20T17:35:33Z</time>
      </trkpt>
      <trkpt lat="49.63461" lon="5.67792">
        <ele>334</ele>
        <time>2018-07-20T17:35:35Z</time>
      </trkpt>
      <trkpt lat="49.63452" lon="5.67783">
        <ele>333</ele>
        <time>2018-07-20T17:35:37Z</time>
      </trkpt>
      <trkpt lat="49.63447" lon="5.67772">
        <ele>335</ele>
        <time>2018-07-20T17:35:39Z</time>
      </trkpt>
      <trkpt lat="49.63442" lon="5.6776">
        <ele>336</ele>
        <time>2018-07-20T17:35:41Z</time>
      </trkpt>
      <trkpt lat="49.63435" lon="5.67748">
        <ele>340</ele>
        <time>2018-07-20T17:35:45Z</time>
      </trkpt>
      <trkpt lat="49.63429" lon="5.67734">
        <ele>341</ele>
        <time>2018-07-20T17:35:49Z</time>
      </trkpt>
      <trkpt lat="49.63427" lon="5.67721">
        <ele>342</ele>
        <time>2018-07-20T17:35:53Z</time>
      </trkpt>
      <trkpt lat="49.63423" lon="5.67706">
        <ele>342</ele>
        <time>2018-07-20T17:35:58Z</time>
      </trkpt>
      <trkpt lat="49.63414" lon="5.67696">
        <ele>337</ele>
        <time>2018-07-20T17:36:02Z</time>
      </trkpt>
      <trkpt lat="49.63405" lon="5.67689">
        <ele>334</ele>
        <time>2018-07-20T17:36:06Z</time>
      </trkpt>
      <trkpt lat="49.63396" lon="5.67679">
        <ele>334</ele>
        <time>2018-07-20T17:36:10Z</time>
      </trkpt>
      <trkpt lat="49.63388" lon="5.67659">
        <ele>336</ele>
        <time>2018-07-20T17:36:12Z</time>
      </trkpt>
      <trkpt lat="49.63384" lon="5.67636">
        <ele>332</ele>
        <time>2018-07-20T17:36:14Z</time>
      </trkpt>
      <trkpt lat="49.63381" lon="5.67622">
        <ele>333</ele>
        <time>2018-07-20T17:36:16Z</time>
      </trkpt>
      <trkpt lat="49.63378" lon="5.67606">
        <ele>332</ele>
        <time>2018-07-20T17:36:18Z</time>
      </trkpt>
      <trkpt lat="49.63374" lon="5.67591">
        <ele>333</ele>
        <time>2018-07-20T17:36:20Z</time>
      </trkpt>
      <trkpt lat="49.63364" lon="5.67584">
        <ele>333</ele>
        <time>2018-07-20T17:36:22Z</time>
      </trkpt>
      <trkpt lat="49.63355" lon="5.67576">
        <ele>332</ele>
        <time>2018-07-20T17:36:24Z</time>
      </trkpt>
      <trkpt lat="49.63347" lon="5.67567">
        <ele>332</ele>
        <time>2018-07-20T17:36:26Z</time>
      </trkpt>
      <trkpt lat="49.63338" lon="5.67557">
        <ele>333</ele>
        <time>2018-07-20T17:36:30Z</time>
      </trkpt>
      <trkpt lat="49.63328" lon="5.67547">
        <ele>333</ele>
        <time>2018-07-20T17:36:32Z</time>
      </trkpt>
      <trkpt lat="49.63319" lon="5.67534">
        <ele>333</ele>
        <time>2018-07-20T17:36:35Z</time>
      </trkpt>
      <trkpt lat="49.63311" lon="5.67521">
        <ele>334</ele>
        <time>2018-07-20T17:36:40Z</time>
      </trkpt>
      <trkpt lat="49.63303" lon="5.67509">
        <ele>332</ele>
        <time>2018-07-20T17:36:44Z</time>
      </trkpt>
      <trkpt lat="49.63295" lon="5.67501">
        <ele>336</ele>
        <time>2018-07-20T17:36:47Z</time>
      </trkpt>
      <trkpt lat="49.63288" lon="5.67492">
        <ele>339</ele>
        <time>2018-07-20T17:36:50Z</time>
      </trkpt>
      <trkpt lat="49.63282" lon="5.67479">
        <ele>346</ele>
        <time>2018-07-20T17:36:54Z</time>
      </trkpt>
      <trkpt lat="49.63277" lon="5.67466">
        <ele>350</ele>
        <time>2018-07-20T17:36:58Z</time>
      </trkpt>
      <trkpt lat="49.6327" lon="5.67451">
        <ele>349</ele>
        <time>2018-07-20T17:37:00Z</time>
      </trkpt>
      <trkpt lat="49.63264" lon="5.67438">
        <ele>355</ele>
        <time>2018-07-20T17:37:04Z</time>
      </trkpt>
      <trkpt lat="49.63256" lon="5.67424">
        <ele>350</ele>
        <time>2018-07-20T17:37:08Z</time>
      </trkpt>
      <trkpt lat="49.63245" lon="5.6741">
        <ele>348</ele>
        <time>2018-07-20T17:37:10Z</time>
      </trkpt>
      <trkpt lat="49.63237" lon="5.67402">
        <ele>344</ele>
        <time>2018-07-20T17:37:13Z</time>
      </trkpt>
      <trkpt lat="49.63227" lon="5.67393">
        <ele>340</ele>
        <time>2018-07-20T17:37:16Z</time>
      </trkpt>
      <trkpt lat="49.63218" lon="5.67387">
        <ele>341</ele>
        <time>2018-07-20T17:37:18Z</time>
      </trkpt>
      <trkpt lat="49.63209" lon="5.67378">
        <ele>342</ele>
        <time>2018-07-20T17:37:21Z</time>
      </trkpt>
      <trkpt lat="49.63199" lon="5.67368">
        <ele>342</ele>
        <time>2018-07-20T17:37:25Z</time>
      </trkpt>
      <trkpt lat="49.63188" lon="5.67359">
        <ele>339</ele>
        <time>2018-07-20T17:37:28Z</time>
      </trkpt>
      <trkpt lat="49.6318" lon="5.67351">
        <ele>339</ele>
        <time>2018-07-20T17:37:30Z</time>
      </trkpt>
      <trkpt lat="49.63171" lon="5.67339">
        <ele>338</ele>
        <time>2018-07-20T17:37:33Z</time>
      </trkpt>
      <trkpt lat="49.63164" lon="5.67328">
        <ele>337</ele>
        <time>2018-07-20T17:37:36Z</time>
      </trkpt>
      <trkpt lat="49.63156" lon="5.67317">
        <ele>335</ele>
        <time>2018-07-20T17:37:39Z</time>
      </trkpt>
      <trkpt lat="49.63148" lon="5.67305">
        <ele>337</ele>
        <time>2018-07-20T17:37:43Z</time>
      </trkpt>
      <trkpt lat="49.63139" lon="5.67297">
        <ele>339</ele>
        <time>2018-07-20T17:37:46Z</time>
      </trkpt>
      <trkpt lat="49.63127" lon="5.6729">
        <ele>336</ele>
        <time>2018-07-20T17:37:47Z</time>
      </trkpt>
      <trkpt lat="49.63113" lon="5.67274">
        <ele>337</ele>
        <time>2018-07-20T17:37:49Z</time>
      </trkpt>
      <trkpt lat="49.63106" lon="5.6726">
        <ele>340</ele>
        <time>2018-07-20T17:37:51Z</time>
      </trkpt>
      <trkpt lat="49.63097" lon="5.67255">
        <ele>341</ele>
        <time>2018-07-20T17:37:53Z</time>
      </trkpt>
      <trkpt lat="49.63087" lon="5.67257">
        <ele>339</ele>
        <time>2018-07-20T17:37:56Z</time>
      </trkpt>
      <trkpt lat="49.63074" lon="5.67257">
        <ele>339</ele>
        <time>2018-07-20T17:37:57Z</time>
      </trkpt>
      <trkpt lat="49.63061" lon="5.67261">
        <ele>337</ele>
        <time>2018-07-20T17:37:59Z</time>
      </trkpt>
      <trkpt lat="49.63052" lon="5.67264">
        <ele>332</ele>
        <time>2018-07-20T17:38:02Z</time>
      </trkpt>
      <trkpt lat="49.63041" lon="5.67267">
        <ele>333</ele>
        <time>2018-07-20T17:38:03Z</time>
      </trkpt>
      <trkpt lat="49.63029" lon="5.67279">
        <ele>333</ele>
        <time>2018-07-20T17:38:06Z</time>
      </trkpt>
      <trkpt lat="49.63021" lon="5.67286">
        <ele>335</ele>
        <time>2018-07-20T17:38:08Z</time>
      </trkpt>
      <trkpt lat="49.63013" lon="5.67301">
        <ele>331</ele>
        <time>2018-07-20T17:38:10Z</time>
      </trkpt>
      <trkpt lat="49.63008" lon="5.67313">
        <ele>330</ele>
        <time>2018-07-20T17:38:12Z</time>
      </trkpt>
      <trkpt lat="49.63" lon="5.67323">
        <ele>329</ele>
        <time>2018-07-20T17:38:14Z</time>
      </trkpt>
      <trkpt lat="49.62991" lon="5.67347">
        <ele>330</ele>
        <time>2018-07-20T17:38:17Z</time>
      </trkpt>
      <trkpt lat="49.62984" lon="5.67359">
        <ele>332</ele>
        <time>2018-07-20T17:38:19Z</time>
      </trkpt>
      <trkpt lat="49.62979" lon="5.67375">
        <ele>330</ele>
        <time>2018-07-20T17:38:21Z</time>
      </trkpt>
      <trkpt lat="49.62973" lon="5.67389">
        <ele>332</ele>
        <time>2018-07-20T17:38:23Z</time>
      </trkpt>
      <trkpt lat="49.62966" lon="5.67406">
        <ele>334</ele>
        <time>2018-07-20T17:38:25Z</time>
      </trkpt>
      <trkpt lat="49.62956" lon="5.67416">
        <ele>335</ele>
        <time>2018-07-20T17:38:27Z</time>
      </trkpt>
      <trkpt lat="49.62946" lon="5.67428">
        <ele>336</ele>
        <time>2018-07-20T17:38:29Z</time>
      </trkpt>
      <trkpt lat="49.6294" lon="5.67448">
        <ele>337</ele>
        <time>2018-07-20T17:38:31Z</time>
      </trkpt>
      <trkpt lat="49.62931" lon="5.67454">
        <ele>337</ele>
        <time>2018-07-20T17:38:33Z</time>
      </trkpt>
      <trkpt lat="49.62925" lon="5.67476">
        <ele>337</ele>
        <time>2018-07-20T17:38:35Z</time>
      </trkpt>
      <trkpt lat="49.62915" lon="5.67496">
        <ele>338</ele>
        <time>2018-07-20T17:38:37Z</time>
      </trkpt>
      <trkpt lat="49.629" lon="5.67507">
        <ele>336</ele>
        <time>2018-07-20T17:38:39Z</time>
      </trkpt>
      <trkpt lat="49.62891" lon="5.67519">
        <ele>336</ele>
        <time>2018-07-20T17:38:41Z</time>
      </trkpt>
      <trkpt lat="49.62877" lon="5.67529">
        <ele>333</ele>
        <time>2018-07-20T17:38:43Z</time>
      </trkpt>
      <trkpt lat="49.62864" lon="5.6754">
        <ele>331</ele>
        <time>2018-07-20T17:38:45Z</time>
      </trkpt>
      <trkpt lat="49.62858" lon="5.67564">
        <ele>329</ele>
        <time>2018-07-20T17:38:47Z</time>
      </trkpt>
      <trkpt lat="49.6285" lon="5.67584">
        <ele>329</ele>
        <time>2018-07-20T17:38:50Z</time>
      </trkpt>
      <trkpt lat="49.62843" lon="5.67612">
        <ele>326</ele>
        <time>2018-07-20T17:38:51Z</time>
      </trkpt>
      <trkpt lat="49.62836" lon="5.67634">
        <ele>324</ele>
        <time>2018-07-20T17:38:53Z</time>
      </trkpt>
      <trkpt lat="49.6283" lon="5.67653">
        <ele>323</ele>
        <time>2018-07-20T17:38:55Z</time>
      </trkpt>
      <trkpt lat="49.62825" lon="5.67671">
        <ele>325</ele>
        <time>2018-07-20T17:38:57Z</time>
      </trkpt>
      <trkpt lat="49.62822" lon="5.67694">
        <ele>325</ele>
        <time>2018-07-20T17:38:59Z</time>
      </trkpt>
      <trkpt lat="49.62813" lon="5.67713">
        <ele>327</ele>
        <time>2018-07-20T17:39:02Z</time>
      </trkpt>
      <trkpt lat="49.62802" lon="5.67731">
        <ele>326</ele>
        <time>2018-07-20T17:39:04Z</time>
      </trkpt>
      <trkpt lat="49.62797" lon="5.67758">
        <ele>320</ele>
        <time>2018-07-20T17:39:06Z</time>
      </trkpt>
      <trkpt lat="49.62795" lon="5.67772">
        <ele>319</ele>
        <time>2018-07-20T17:39:07Z</time>
      </trkpt>
      <trkpt lat="49.62793" lon="5.67798">
        <ele>316</ele>
        <time>2018-07-20T17:39:09Z</time>
      </trkpt>
      <trkpt lat="49.62794" lon="5.67817">
        <ele>313</ele>
        <time>2018-07-20T17:39:10Z</time>
      </trkpt>
      <trkpt lat="49.62796" lon="5.6784">
        <ele>311</ele>
        <time>2018-07-20T17:39:14Z</time>
      </trkpt>
      <trkpt lat="49.62799" lon="5.67874">
        <ele>311</ele>
        <time>2018-07-20T17:39:15Z</time>
      </trkpt>
      <trkpt lat="49.62801" lon="5.679">
        <ele>311</ele>
        <time>2018-07-20T17:39:17Z</time>
      </trkpt>
      <trkpt lat="49.62795" lon="5.67912">
        <ele>311</ele>
        <time>2018-07-20T17:39:19Z</time>
      </trkpt>
      <trkpt lat="49.62786" lon="5.67932">
        <ele>312</ele>
        <time>2018-07-20T17:39:22Z</time>
      </trkpt>
      <trkpt lat="49.62779" lon="5.67951">
        <ele>310</ele>
        <time>2018-07-20T17:39:24Z</time>
      </trkpt>
      <trkpt lat="49.62775" lon="5.67971">
        <ele>307</ele>
        <time>2018-07-20T17:39:26Z</time>
      </trkpt>
      <trkpt lat="49.62767" lon="5.67984">
        <ele>304</ele>
        <time>2018-07-20T17:39:28Z</time>
      </trkpt>
      <trkpt lat="49.62759" lon="5.67998">
        <ele>300</ele>
        <time>2018-07-20T17:39:30Z</time>
      </trkpt>
      <trkpt lat="49.62753" lon="5.68009">
        <ele>300</ele>
        <time>2018-07-20T17:39:32Z</time>
      </trkpt>
      <trkpt lat="49.62746" lon="5.68026">
        <ele>298</ele>
        <time>2018-07-20T17:39:34Z</time>
      </trkpt>
      <trkpt lat="49.62742" lon="5.68045">
        <ele>297</ele>
        <time>2018-07-20T17:39:37Z</time>
      </trkpt>
      <trkpt lat="49.62737" lon="5.68063">
        <ele>296</ele>
        <time>2018-07-20T17:39:38Z</time>
      </trkpt>
      <trkpt lat="49.62734" lon="5.6808">
        <ele>296</ele>
        <time>2018-07-20T17:39:41Z</time>
      </trkpt>
      <trkpt lat="49.62731" lon="5.68097">
        <ele>296</ele>
        <time>2018-07-20T17:39:42Z</time>
      </trkpt>
      <trkpt lat="49.62727" lon="5.68113">
        <ele>296</ele>
        <time>2018-07-20T17:39:44Z</time>
      </trkpt>
      <trkpt lat="49.62725" lon="5.68128">
        <ele>297</ele>
        <time>2018-07-20T17:39:46Z</time>
      </trkpt>
      <trkpt lat="49.6272" lon="5.68142">
        <ele>297</ele>
        <time>2018-07-20T17:39:48Z</time>
      </trkpt>
      <trkpt lat="49.62714" lon="5.68152">
        <ele>296</ele>
        <time>2018-07-20T17:39:50Z</time>
      </trkpt>
      <trkpt lat="49.62712" lon="5.68168">
        <ele>298</ele>
        <time>2018-07-20T17:39:55Z</time>
      </trkpt>
      <trkpt lat="49.62709" lon="5.68182">
        <ele>300</ele>
        <time>2018-07-20T17:40:00Z</time>
      </trkpt>
      <trkpt lat="49.62704" lon="5.682">
        <ele>298</ele>
        <time>2018-07-20T17:40:16Z</time>
      </trkpt>
      <trkpt lat="49.62707" lon="5.68213">
        <ele>307</ele>
        <time>2018-07-20T17:40:25Z</time>
      </trkpt>
      <trkpt lat="49.62709" lon="5.68227">
        <ele>310</ele>
        <time>2018-07-20T17:40:32Z</time>
      </trkpt>
      <trkpt lat="49.6271" lon="5.68241">
        <ele>313</ele>
        <time>2018-07-20T17:40:39Z</time>
      </trkpt>
      <trkpt lat="49.62706" lon="5.68254">
        <ele>316</ele>
        <time>2018-07-20T17:40:46Z</time>
      </trkpt>
      <trkpt lat="49.62704" lon="5.68268">
        <ele>316</ele>
        <time>2018-07-20T17:40:53Z</time>
      </trkpt>
      <trkpt lat="49.62702" lon="5.68285">
        <ele>320</ele>
        <time>2018-07-20T17:40:58Z</time>
      </trkpt>
      <trkpt lat="49.62701" lon="5.68301">
        <ele>323</ele>
        <time>2018-07-20T17:41:02Z</time>
      </trkpt>
      <trkpt lat="49.62699" lon="5.68318">
        <ele>322</ele>
        <time>2018-07-20T17:41:06Z</time>
      </trkpt>
      <trkpt lat="49.62698" lon="5.68335">
        <ele>320</ele>
        <time>2018-07-20T17:41:10Z</time>
      </trkpt>
      <trkpt lat="49.62697" lon="5.68351">
        <ele>321</ele>
        <time>2018-07-20T17:41:13Z</time>
      </trkpt>
      <trkpt lat="49.627" lon="5.68369">
        <ele>324</ele>
        <time>2018-07-20T17:41:16Z</time>
      </trkpt>
      <trkpt lat="49.62702" lon="5.68386">
        <ele>321</ele>
        <time>2018-07-20T17:41:19Z</time>
      </trkpt>
      <trkpt lat="49.62703" lon="5.68403">
        <ele>321</ele>
        <time>2018-07-20T17:41:23Z</time>
      </trkpt>
      <trkpt lat="49.62702" lon="5.6842">
        <ele>321</ele>
        <time>2018-07-20T17:41:27Z</time>
      </trkpt>
      <trkpt lat="49.62702" lon="5.68436">
        <ele>328</ele>
        <time>2018-07-20T17:41:30Z</time>
      </trkpt>
      <trkpt lat="49.62701" lon="5.68451">
        <ele>327</ele>
        <time>2018-07-20T17:41:33Z</time>
      </trkpt>
      <trkpt lat="49.62703" lon="5.68469">
        <ele>327</ele>
        <time>2018-07-20T17:41:36Z</time>
      </trkpt>
      <trkpt lat="49.62705" lon="5.68489">
        <ele>328</ele>
        <time>2018-07-20T17:41:39Z</time>
      </trkpt>
      <trkpt lat="49.62705" lon="5.68509">
        <ele>327</ele>
        <time>2018-07-20T17:41:42Z</time>
      </trkpt>
      <trkpt lat="49.62705" lon="5.6853">
        <ele>325</ele>
        <time>2018-07-20T17:41:45Z</time>
      </trkpt>
      <trkpt lat="49.62708" lon="5.68549">
        <ele>327</ele>
        <time>2018-07-20T17:41:48Z</time>
      </trkpt>
      <trkpt lat="49.62711" lon="5.68565">
        <ele>331</ele>
        <time>2018-07-20T17:41:50Z</time>
      </trkpt>
      <trkpt lat="49.62719" lon="5.68593">
        <ele>330</ele>
        <time>2018-07-20T17:41:52Z</time>
      </trkpt>
      <trkpt lat="49.62724" lon="5.68607">
        <ele>331</ele>
        <time>2018-07-20T17:41:55Z</time>
      </trkpt>
      <trkpt lat="49.62729" lon="5.68627">
        <ele>333</ele>
        <time>2018-07-20T17:41:58Z</time>
      </trkpt>
      <trkpt lat="49.62732" lon="5.68645">
        <ele>333</ele>
        <time>2018-07-20T17:42:01Z</time>
      </trkpt>
      <trkpt lat="49.62736" lon="5.68669">
        <ele>334</ele>
        <time>2018-07-20T17:42:02Z</time>
      </trkpt>
      <trkpt lat="49.62738" lon="5.68683">
        <ele>333</ele>
        <time>2018-07-20T17:42:05Z</time>
      </trkpt>
      <trkpt lat="49.62742" lon="5.68698">
        <ele>336</ele>
        <time>2018-07-20T17:42:08Z</time>
      </trkpt>
      <trkpt lat="49.62745" lon="5.68714">
        <ele>337</ele>
        <time>2018-07-20T17:42:11Z</time>
      </trkpt>
      <trkpt lat="49.6275" lon="5.68731">
        <ele>336</ele>
        <time>2018-07-20T17:42:14Z</time>
      </trkpt>
      <trkpt lat="49.62757" lon="5.68748">
        <ele>336</ele>
        <time>2018-07-20T17:42:17Z</time>
      </trkpt>
      <trkpt lat="49.62764" lon="5.68761">
        <ele>332</ele>
        <time>2018-07-20T17:42:20Z</time>
      </trkpt>
      <trkpt lat="49.62773" lon="5.68775">
        <ele>332</ele>
        <time>2018-07-20T17:42:23Z</time>
      </trkpt>
      <trkpt lat="49.62781" lon="5.6879">
        <ele>333</ele>
        <time>2018-07-20T17:42:26Z</time>
      </trkpt>
      <trkpt lat="49.62788" lon="5.68803">
        <ele>335</ele>
        <time>2018-07-20T17:42:29Z</time>
      </trkpt>
      <trkpt lat="49.62796" lon="5.68815">
        <ele>337</ele>
        <time>2018-07-20T17:42:32Z</time>
      </trkpt>
      <trkpt lat="49.62802" lon="5.68829">
        <ele>342</ele>
        <time>2018-07-20T17:42:35Z</time>
      </trkpt>
      <trkpt lat="49.62808" lon="5.68842">
        <ele>344</ele>
        <time>2018-07-20T17:42:38Z</time>
      </trkpt>
      <trkpt lat="49.62813" lon="5.68857">
        <ele>347</ele>
        <time>2018-07-20T17:42:41Z</time>
      </trkpt>
      <trkpt lat="49.62816" lon="5.68873">
        <ele>341</ele>
        <time>2018-07-20T17:42:44Z</time>
      </trkpt>
      <trkpt lat="49.62821" lon="5.6889">
        <ele>334</ele>
        <time>2018-07-20T17:42:47Z</time>
      </trkpt>
      <trkpt lat="49.62828" lon="5.68906">
        <ele>335</ele>
        <time>2018-07-20T17:42:50Z</time>
      </trkpt>
      <trkpt lat="49.62832" lon="5.6892">
        <ele>333</ele>
        <time>2018-07-20T17:42:53Z</time>
      </trkpt>
      <trkpt lat="49.62827" lon="5.68938">
        <ele>331</ele>
        <time>2018-07-20T17:42:56Z</time>
      </trkpt>
      <trkpt lat="49.62817" lon="5.68949">
        <ele>331</ele>
        <time>2018-07-20T17:42:59Z</time>
      </trkpt>
      <trkpt lat="49.62807" lon="5.68969">
        <ele>332</ele>
        <time>2018-07-20T17:43:01Z</time>
      </trkpt>
      <trkpt lat="49.62797" lon="5.68996">
        <ele>331</ele>
        <time>2018-07-20T17:43:03Z</time>
      </trkpt>
      <trkpt lat="49.6279" lon="5.69024">
        <ele>331</ele>
        <time>2018-07-20T17:43:05Z</time>
      </trkpt>
      <trkpt lat="49.62778" lon="5.69041">
        <ele>328</ele>
        <time>2018-07-20T17:43:07Z</time>
      </trkpt>
      <trkpt lat="49.62767" lon="5.69048">
        <ele>325</ele>
        <time>2018-07-20T17:43:09Z</time>
      </trkpt>
      <trkpt lat="49.62758" lon="5.69068">
        <ele>325</ele>
        <time>2018-07-20T17:43:11Z</time>
      </trkpt>
      <trkpt lat="49.62745" lon="5.69086">
        <ele>323</ele>
        <time>2018-07-20T17:43:13Z</time>
      </trkpt>
      <trkpt lat="49.62735" lon="5.69081">
        <ele>319</ele>
        <time>2018-07-20T17:43:15Z</time>
      </trkpt>
      <trkpt lat="49.62726" lon="5.69076">
        <ele>317</ele>
        <time>2018-07-20T17:43:17Z</time>
      </trkpt>
      <trkpt lat="49.62714" lon="5.69074">
        <ele>320</ele>
        <time>2018-07-20T17:43:20Z</time>
      </trkpt>
      <trkpt lat="49.62703" lon="5.69067">
        <ele>322</ele>
        <time>2018-07-20T17:43:23Z</time>
      </trkpt>
      <trkpt lat="49.62693" lon="5.69062">
        <ele>322</ele>
        <time>2018-07-20T17:43:25Z</time>
      </trkpt>
      <trkpt lat="49.62658" lon="5.69059">
        <ele>316</ele>
        <time>2018-07-20T17:43:27Z</time>
      </trkpt>
      <trkpt lat="49.62638" lon="5.69059">
        <ele>316</ele>
        <time>2018-07-20T17:43:30Z</time>
      </trkpt>
      <trkpt lat="49.62629" lon="5.69052">
        <ele>318</ele>
        <time>2018-07-20T17:43:31Z</time>
      </trkpt>
      <trkpt lat="49.62612" lon="5.69049">
        <ele>315</ele>
        <time>2018-07-20T17:43:33Z</time>
      </trkpt>
      <trkpt lat="49.62601" lon="5.69054">
        <ele>308</ele>
        <time>2018-07-20T17:43:35Z</time>
      </trkpt>
      <trkpt lat="49.62593" lon="5.69063">
        <ele>305</ele>
        <time>2018-07-20T17:43:39Z</time>
      </trkpt>
      <trkpt lat="49.62588" lon="5.69079">
        <ele>304</ele>
        <time>2018-07-20T17:43:41Z</time>
      </trkpt>
      <trkpt lat="49.62588" lon="5.69095">
        <ele>302</ele>
        <time>2018-07-20T17:43:42Z</time>
      </trkpt>
      <trkpt lat="49.62586" lon="5.69125">
        <ele>298</ele>
        <time>2018-07-20T17:43:44Z</time>
      </trkpt>
      <trkpt lat="49.62582" lon="5.6914">
        <ele>295</ele>
        <time>2018-07-20T17:43:46Z</time>
      </trkpt>
      <trkpt lat="49.62579" lon="5.69154">
        <ele>294</ele>
        <time>2018-07-20T17:43:48Z</time>
      </trkpt>
      <trkpt lat="49.62574" lon="5.69168">
        <ele>294</ele>
        <time>2018-07-20T17:43:50Z</time>
      </trkpt>
      <trkpt lat="49.62569" lon="5.69179">
        <ele>297</ele>
        <time>2018-07-20T17:43:53Z</time>
      </trkpt>
      <trkpt lat="49.62563" lon="5.69199">
        <ele>300</ele>
        <time>2018-07-20T17:43:56Z</time>
      </trkpt>
      <trkpt lat="49.62558" lon="5.69216">
        <ele>302</ele>
        <time>2018-07-20T17:43:57Z</time>
      </trkpt>
      <trkpt lat="49.62555" lon="5.69234">
        <ele>302</ele>
        <time>2018-07-20T17:43:59Z</time>
      </trkpt>
      <trkpt lat="49.62555" lon="5.69252">
        <ele>302</ele>
        <time>2018-07-20T17:44:01Z</time>
      </trkpt>
      <trkpt lat="49.62551" lon="5.69267">
        <ele>303</ele>
        <time>2018-07-20T17:44:04Z</time>
      </trkpt>
      <trkpt lat="49.62548" lon="5.69283">
        <ele>302</ele>
        <time>2018-07-20T17:44:07Z</time>
      </trkpt>
      <trkpt lat="49.62544" lon="5.69297">
        <ele>301</ele>
        <time>2018-07-20T17:44:10Z</time>
      </trkpt>
      <trkpt lat="49.62541" lon="5.69311">
        <ele>301</ele>
        <time>2018-07-20T17:44:13Z</time>
      </trkpt>
      <trkpt lat="49.62545" lon="5.6936">
        <ele>300</ele>
        <time>2018-07-20T17:44:16Z</time>
      </trkpt>
      <trkpt lat="49.62548" lon="5.69382">
        <ele>301</ele>
        <time>2018-07-20T17:44:18Z</time>
      </trkpt>
      <trkpt lat="49.6255" lon="5.69405">
        <ele>300</ele>
        <time>2018-07-20T17:44:20Z</time>
      </trkpt>
      <trkpt lat="49.62552" lon="5.69424">
        <ele>299</ele>
        <time>2018-07-20T17:44:22Z</time>
      </trkpt>
      <trkpt lat="49.62549" lon="5.69446">
        <ele>300</ele>
        <time>2018-07-20T17:44:25Z</time>
      </trkpt>
      <trkpt lat="49.6255" lon="5.69466">
        <ele>302</ele>
        <time>2018-07-20T17:44:26Z</time>
      </trkpt>
      <trkpt lat="49.6255" lon="5.69485">
        <ele>304</ele>
        <time>2018-07-20T17:44:28Z</time>
      </trkpt>
      <trkpt lat="49.62547" lon="5.695">
        <ele>304</ele>
        <time>2018-07-20T17:44:30Z</time>
      </trkpt>
      <trkpt lat="49.62541" lon="5.6951">
        <ele>304</ele>
        <time>2018-07-20T17:44:32Z</time>
      </trkpt>
      <trkpt lat="49.6253" lon="5.69521">
        <ele>303</ele>
        <time>2018-07-20T17:44:34Z</time>
      </trkpt>
      <trkpt lat="49.62518" lon="5.69527">
        <ele>304</ele>
        <time>2018-07-20T17:44:36Z</time>
      </trkpt>
      <trkpt lat="49.62507" lon="5.69529">
        <ele>303</ele>
        <time>2018-07-20T17:44:38Z</time>
      </trkpt>
      <trkpt lat="49.62497" lon="5.69524">
        <ele>305</ele>
        <time>2018-07-20T17:44:41Z</time>
      </trkpt>
      <trkpt lat="49.625" lon="5.6951">
        <ele>307</ele>
        <time>2018-07-20T17:44:43Z</time>
      </trkpt>
      <trkpt lat="49.62499" lon="5.69495">
        <ele>308</ele>
        <time>2018-07-20T17:44:45Z</time>
      </trkpt>
      <trkpt lat="49.62494" lon="5.69479">
        <ele>309</ele>
        <time>2018-07-20T17:44:47Z</time>
      </trkpt>
      <trkpt lat="49.62488" lon="5.69461">
        <ele>307</ele>
        <time>2018-07-20T17:44:50Z</time>
      </trkpt>
      <trkpt lat="49.62481" lon="5.69445">
        <ele>307</ele>
        <time>2018-07-20T17:44:53Z</time>
      </trkpt>
      <trkpt lat="49.62474" lon="5.69432">
        <ele>307</ele>
        <time>2018-07-20T17:44:57Z</time>
      </trkpt>
      <trkpt lat="49.62466" lon="5.69419">
        <ele>306</ele>
        <time>2018-07-20T17:45:00Z</time>
      </trkpt>
      <trkpt lat="49.62455" lon="5.69405">
        <ele>307</ele>
        <time>2018-07-20T17:45:04Z</time>
      </trkpt>
      <trkpt lat="49.62447" lon="5.69397">
        <ele>309</ele>
        <time>2018-07-20T17:45:08Z</time>
      </trkpt>
      <trkpt lat="49.62438" lon="5.69392">
        <ele>312</ele>
        <time>2018-07-20T17:45:14Z</time>
      </trkpt>
      <trkpt lat="49.62427" lon="5.69389">
        <ele>312</ele>
        <time>2018-07-20T17:45:19Z</time>
      </trkpt>
      <trkpt lat="49.62417" lon="5.69389">
        <ele>312</ele>
        <time>2018-07-20T17:45:23Z</time>
      </trkpt>
      <trkpt lat="49.62405" lon="5.6939">
        <ele>311</ele>
        <time>2018-07-20T17:45:27Z</time>
      </trkpt>
      <trkpt lat="49.62395" lon="5.69393">
        <ele>313</ele>
        <time>2018-07-20T17:45:30Z</time>
      </trkpt>
      <trkpt lat="49.62385" lon="5.69396">
        <ele>314</ele>
        <time>2018-07-20T17:45:33Z</time>
      </trkpt>
      <trkpt lat="49.62374" lon="5.69398">
        <ele>315</ele>
        <time>2018-07-20T17:45:36Z</time>
      </trkpt>
      <trkpt lat="49.62363" lon="5.69399">
        <ele>315</ele>
        <time>2018-07-20T17:45:39Z</time>
      </trkpt>
      <trkpt lat="49.62341" lon="5.69402">
        <ele>315</ele>
        <time>2018-07-20T17:45:42Z</time>
      </trkpt>
      <trkpt lat="49.62331" lon="5.69404">
        <ele>314</ele>
        <time>2018-07-20T17:45:44Z</time>
      </trkpt>
      <trkpt lat="49.6232" lon="5.69403">
        <ele>314</ele>
        <time>2018-07-20T17:45:46Z</time>
      </trkpt>
      <trkpt lat="49.62309" lon="5.69403">
        <ele>314</ele>
        <time>2018-07-20T17:45:48Z</time>
      </trkpt>
      <trkpt lat="49.62297" lon="5.69405">
        <ele>314</ele>
        <time>2018-07-20T17:45:50Z</time>
      </trkpt>
      <trkpt lat="49.62285" lon="5.69405">
        <ele>315</ele>
        <time>2018-07-20T17:45:52Z</time>
      </trkpt>
      <trkpt lat="49.62273" lon="5.69405">
        <ele>315</ele>
        <time>2018-07-20T17:45:54Z</time>
      </trkpt>
      <trkpt lat="49.6226" lon="5.69402">
        <ele>316</ele>
        <time>2018-07-20T17:45:56Z</time>
      </trkpt>
      <trkpt lat="49.62246" lon="5.694">
        <ele>315</ele>
        <time>2018-07-20T17:45:58Z</time>
      </trkpt>
      <trkpt lat="49.62234" lon="5.69404">
        <ele>315</ele>
        <time>2018-07-20T17:46:00Z</time>
      </trkpt>
      <trkpt lat="49.62221" lon="5.69415">
        <ele>315</ele>
        <time>2018-07-20T17:46:02Z</time>
      </trkpt>
      <trkpt lat="49.62211" lon="5.69425">
        <ele>316</ele>
        <time>2018-07-20T17:46:04Z</time>
      </trkpt>
      <trkpt lat="49.62201" lon="5.69433">
        <ele>316</ele>
        <time>2018-07-20T17:46:06Z</time>
      </trkpt>
      <trkpt lat="49.62192" lon="5.69442">
        <ele>317</ele>
        <time>2018-07-20T17:46:08Z</time>
      </trkpt>
      <trkpt lat="49.62182" lon="5.69451">
        <ele>317</ele>
        <time>2018-07-20T17:46:10Z</time>
      </trkpt>
      <trkpt lat="49.62172" lon="5.69459">
        <ele>317</ele>
        <time>2018-07-20T17:46:12Z</time>
      </trkpt>
      <trkpt lat="49.62163" lon="5.69468">
        <ele>318</ele>
        <time>2018-07-20T17:46:14Z</time>
      </trkpt>
      <trkpt lat="49.62153" lon="5.69476">
        <ele>317</ele>
        <time>2018-07-20T17:46:16Z</time>
      </trkpt>
      <trkpt lat="49.62144" lon="5.69485">
        <ele>318</ele>
        <time>2018-07-20T17:46:18Z</time>
      </trkpt>
      <trkpt lat="49.62135" lon="5.69492">
        <ele>320</ele>
        <time>2018-07-20T17:46:20Z</time>
      </trkpt>
      <trkpt lat="49.62126" lon="5.69499">
        <ele>321</ele>
        <time>2018-07-20T17:46:22Z</time>
      </trkpt>
      <trkpt lat="49.62117" lon="5.69505">
        <ele>321</ele>
        <time>2018-07-20T17:46:24Z</time>
      </trkpt>
      <trkpt lat="49.62107" lon="5.69513">
        <ele>321</ele>
        <time>2018-07-20T17:46:26Z</time>
      </trkpt>
      <trkpt lat="49.62099" lon="5.6952">
        <ele>322</ele>
        <time>2018-07-20T17:46:28Z</time>
      </trkpt>
      <trkpt lat="49.62091" lon="5.69531">
        <ele>323</ele>
        <time>2018-07-20T17:46:30Z</time>
      </trkpt>
      <trkpt lat="49.62083" lon="5.69541">
        <ele>324</ele>
        <time>2018-07-20T17:46:32Z</time>
      </trkpt>
      <trkpt lat="49.62082" lon="5.69557">
        <ele>324</ele>
        <time>2018-07-20T17:46:34Z</time>
      </trkpt>
      <trkpt lat="49.62087" lon="5.69574">
        <ele>323</ele>
        <time>2018-07-20T17:46:36Z</time>
      </trkpt>
      <trkpt lat="49.62093" lon="5.69588">
        <ele>323</ele>
        <time>2018-07-20T17:46:38Z</time>
      </trkpt>
      <trkpt lat="49.62098" lon="5.69604">
        <ele>322</ele>
        <time>2018-07-20T17:46:40Z</time>
      </trkpt>
      <trkpt lat="49.62101" lon="5.69617">
        <ele>322</ele>
        <time>2018-07-20T17:46:42Z</time>
      </trkpt>
      <trkpt lat="49.62105" lon="5.69631">
        <ele>321</ele>
        <time>2018-07-20T17:46:44Z</time>
      </trkpt>
      <trkpt lat="49.62108" lon="5.69645">
        <ele>321</ele>
        <time>2018-07-20T17:46:46Z</time>
      </trkpt>
      <trkpt lat="49.62112" lon="5.69659">
        <ele>321</ele>
        <time>2018-07-20T17:46:48Z</time>
      </trkpt>
      <trkpt lat="49.62117" lon="5.69672">
        <ele>321</ele>
        <time>2018-07-20T17:46:50Z</time>
      </trkpt>
      <trkpt lat="49.62121" lon="5.69687">
        <ele>322</ele>
        <time>2018-07-20T17:46:52Z</time>
      </trkpt>
      <trkpt lat="49.62125" lon="5.69702">
        <ele>322</ele>
        <time>2018-07-20T17:46:54Z</time>
      </trkpt>
      <trkpt lat="49.6213" lon="5.69723">
        <ele>323</ele>
        <time>2018-07-20T17:46:57Z</time>
      </trkpt>
      <trkpt lat="49.62131" lon="5.6974">
        <ele>322</ele>
        <time>2018-07-20T17:46:59Z</time>
      </trkpt>
      <trkpt lat="49.62141" lon="5.69757">
        <ele>323</ele>
        <time>2018-07-20T17:47:01Z</time>
      </trkpt>
      <trkpt lat="49.6215" lon="5.69772">
        <ele>323</ele>
        <time>2018-07-20T17:47:03Z</time>
      </trkpt>
      <trkpt lat="49.6216" lon="5.69793">
        <ele>319</ele>
        <time>2018-07-20T17:47:05Z</time>
      </trkpt>
      <trkpt lat="49.62171" lon="5.69809">
        <ele>317</ele>
        <time>2018-07-20T17:47:07Z</time>
      </trkpt>
      <trkpt lat="49.62183" lon="5.6982">
        <ele>316</ele>
        <time>2018-07-20T17:47:09Z</time>
      </trkpt>
      <trkpt lat="49.62195" lon="5.69831">
        <ele>314</ele>
        <time>2018-07-20T17:47:11Z</time>
      </trkpt>
      <trkpt lat="49.62209" lon="5.69843">
        <ele>312</ele>
        <time>2018-07-20T17:47:13Z</time>
      </trkpt>
      <trkpt lat="49.62223" lon="5.69852">
        <ele>310</ele>
        <time>2018-07-20T17:47:15Z</time>
      </trkpt>
      <trkpt lat="49.62232" lon="5.69862">
        <ele>309</ele>
        <time>2018-07-20T17:47:17Z</time>
      </trkpt>
      <trkpt lat="49.62236" lon="5.69875">
        <ele>309</ele>
        <time>2018-07-20T17:47:19Z</time>
      </trkpt>
      <trkpt lat="49.62231" lon="5.69891">
        <ele>310</ele>
        <time>2018-07-20T17:47:21Z</time>
      </trkpt>
      <trkpt lat="49.62219" lon="5.69905">
        <ele>309</ele>
        <time>2018-07-20T17:47:24Z</time>
      </trkpt>
      <trkpt lat="49.62209" lon="5.69919">
        <ele>310</ele>
        <time>2018-07-20T17:47:25Z</time>
      </trkpt>
      <trkpt lat="49.62197" lon="5.69927">
        <ele>309</ele>
        <time>2018-07-20T17:47:27Z</time>
      </trkpt>
      <trkpt lat="49.62187" lon="5.69936">
        <ele>309</ele>
        <time>2018-07-20T17:47:30Z</time>
      </trkpt>
      <trkpt lat="49.62176" lon="5.69944">
        <ele>310</ele>
        <time>2018-07-20T17:47:31Z</time>
      </trkpt>
      <trkpt lat="49.62163" lon="5.69941">
        <ele>312</ele>
        <time>2018-07-20T17:47:33Z</time>
      </trkpt>
      <trkpt lat="49.62154" lon="5.69945">
        <ele>313</ele>
        <time>2018-07-20T17:47:35Z</time>
      </trkpt>
      <trkpt lat="49.62144" lon="5.69945">
        <ele>313</ele>
        <time>2018-07-20T17:47:38Z</time>
      </trkpt>
      <trkpt lat="49.62133" lon="5.69947">
        <ele>313</ele>
        <time>2018-07-20T17:47:43Z</time>
      </trkpt>
      <trkpt lat="49.62122" lon="5.69947">
        <ele>316</ele>
        <time>2018-07-20T17:47:49Z</time>
      </trkpt>
      <trkpt lat="49.62112" lon="5.69944">
        <ele>317</ele>
        <time>2018-07-20T17:47:54Z</time>
      </trkpt>
      <trkpt lat="49.62101" lon="5.69941">
        <ele>318</ele>
        <time>2018-07-20T17:47:59Z</time>
      </trkpt>
      <trkpt lat="49.62092" lon="5.6994">
        <ele>318</ele>
        <time>2018-07-20T17:48:03Z</time>
      </trkpt>
      <trkpt lat="49.62081" lon="5.69937">
        <ele>316</ele>
        <time>2018-07-20T17:48:08Z</time>
      </trkpt>
      <trkpt lat="49.62071" lon="5.69932">
        <ele>318</ele>
        <time>2018-07-20T17:48:12Z</time>
      </trkpt>
      <trkpt lat="49.62062" lon="5.69928">
        <ele>319</ele>
        <time>2018-07-20T17:48:16Z</time>
      </trkpt>
      <trkpt lat="49.62053" lon="5.69924">
        <ele>321</ele>
        <time>2018-07-20T17:48:20Z</time>
      </trkpt>
      <trkpt lat="49.62044" lon="5.6992">
        <ele>323</ele>
        <time>2018-07-20T17:48:24Z</time>
      </trkpt>
      <trkpt lat="49.62033" lon="5.69917">
        <ele>324</ele>
        <time>2018-07-20T17:48:29Z</time>
      </trkpt>
      <trkpt lat="49.62022" lon="5.69915">
        <ele>327</ele>
        <time>2018-07-20T17:48:34Z</time>
      </trkpt>
      <trkpt lat="49.62013" lon="5.69916">
        <ele>328</ele>
        <time>2018-07-20T17:48:38Z</time>
      </trkpt>
      <trkpt lat="49.62004" lon="5.69917">
        <ele>329</ele>
        <time>2018-07-20T17:48:42Z</time>
      </trkpt>
      <trkpt lat="49.61995" lon="5.69919">
        <ele>329</ele>
        <time>2018-07-20T17:48:46Z</time>
      </trkpt>
      <trkpt lat="49.61986" lon="5.6992">
        <ele>331</ele>
        <time>2018-07-20T17:48:50Z</time>
      </trkpt>
      <trkpt lat="49.61974" lon="5.69922">
        <ele>332</ele>
        <time>2018-07-20T17:48:55Z</time>
      </trkpt>
      <trkpt lat="49.61964" lon="5.69925">
        <ele>333</ele>
        <time>2018-07-20T17:49:00Z</time>
      </trkpt>
      <trkpt lat="49.61954" lon="5.69927">
        <ele>334</ele>
        <time>2018-07-20T17:49:06Z</time>
      </trkpt>
      <trkpt lat="49.61945" lon="5.69925">
        <ele>335</ele>
        <time>2018-07-20T17:49:12Z</time>
      </trkpt>
      <trkpt lat="49.61935" lon="5.69922">
        <ele>336</ele>
        <time>2018-07-20T17:49:19Z</time>
      </trkpt>
      <trkpt lat="49.61925" lon="5.69918">
        <ele>337</ele>
        <time>2018-07-20T17:49:26Z</time>
      </trkpt>
      <trkpt lat="49.61916" lon="5.69914">
        <ele>337</ele>
        <time>2018-07-20T17:49:32Z</time>
      </trkpt>
      <trkpt lat="49.61906" lon="5.6991">
        <ele>339</ele>
        <time>2018-07-20T17:49:38Z</time>
      </trkpt>
      <trkpt lat="49.61896" lon="5.69906">
        <ele>342</ele>
        <time>2018-07-20T17:49:45Z</time>
      </trkpt>
      <trkpt lat="49.61887" lon="5.69903">
        <ele>344</ele>
        <time>2018-07-20T17:49:53Z</time>
      </trkpt>
      <trkpt lat="49.61877" lon="5.69901">
        <ele>346</ele>
        <time>2018-07-20T17:50:00Z</time>
      </trkpt>
      <trkpt lat="49.61867" lon="5.69896">
        <ele>348</ele>
        <time>2018-07-20T17:50:07Z</time>
      </trkpt>
      <trkpt lat="49.61858" lon="5.69891">
        <ele>352</ele>
        <time>2018-07-20T17:50:13Z</time>
      </trkpt>
      <trkpt lat="49.61849" lon="5.69883">
        <ele>354</ele>
        <time>2018-07-20T17:50:20Z</time>
      </trkpt>
      <trkpt lat="49.61841" lon="5.69875">
        <ele>352</ele>
        <time>2018-07-20T17:50:27Z</time>
      </trkpt>
      <trkpt lat="49.61833" lon="5.69866">
        <ele>353</ele>
        <time>2018-07-20T17:50:33Z</time>
      </trkpt>
      <trkpt lat="49.61827" lon="5.69856">
        <ele>355</ele>
        <time>2018-07-20T17:50:39Z</time>
      </trkpt>
      <trkpt lat="49.6182" lon="5.69845">
        <ele>359</ele>
        <time>2018-07-20T17:50:45Z</time>
      </trkpt>
      <trkpt lat="49.61813" lon="5.69834">
        <ele>363</ele>
        <time>2018-07-20T17:50:52Z</time>
      </trkpt>
      <trkpt lat="49.61807" lon="5.69823">
        <ele>368</ele>
        <time>2018-07-20T17:50:59Z</time>
      </trkpt>
      <trkpt lat="49.618" lon="5.69813">
        <ele>363</ele>
        <time>2018-07-20T17:51:05Z</time>
      </trkpt>
      <trkpt lat="49.61792" lon="5.69801">
        <ele>361</ele>
        <time>2018-07-20T17:51:11Z</time>
      </trkpt>
      <trkpt lat="49.61785" lon="5.69792">
        <ele>364</ele>
        <time>2018-07-20T17:51:16Z</time>
      </trkpt>
      <trkpt lat="49.61779" lon="5.69779">
        <ele>365</ele>
        <time>2018-07-20T17:51:23Z</time>
      </trkpt>
      <trkpt lat="49.61773" lon="5.69768">
        <ele>356</ele>
        <time>2018-07-20T17:51:28Z</time>
      </trkpt>
      <trkpt lat="49.61766" lon="5.69759">
        <ele>355</ele>
        <time>2018-07-20T17:51:32Z</time>
      </trkpt>
      <trkpt lat="49.61758" lon="5.69748">
        <ele>352</ele>
        <time>2018-07-20T17:51:36Z</time>
      </trkpt>
      <trkpt lat="49.6175" lon="5.69736">
        <ele>353</ele>
        <time>2018-07-20T17:51:40Z</time>
      </trkpt>
      <trkpt lat="49.61743" lon="5.69725">
        <ele>361</ele>
        <time>2018-07-20T17:51:45Z</time>
      </trkpt>
      <trkpt lat="49.61735" lon="5.69714">
        <ele>364</ele>
        <time>2018-07-20T17:51:50Z</time>
      </trkpt>
      <trkpt lat="49.61727" lon="5.69704">
        <ele>369</ele>
        <time>2018-07-20T17:51:55Z</time>
      </trkpt>
      <trkpt lat="49.61718" lon="5.69695">
        <ele>372</ele>
        <time>2018-07-20T17:52:00Z</time>
      </trkpt>
      <trkpt lat="49.61709" lon="5.69688">
        <ele>373</ele>
        <time>2018-07-20T17:52:04Z</time>
      </trkpt>
      <trkpt lat="49.61699" lon="5.69682">
        <ele>377</ele>
        <time>2018-07-20T17:52:08Z</time>
      </trkpt>
      <trkpt lat="49.6169" lon="5.69676">
        <ele>379</ele>
        <time>2018-07-20T17:52:12Z</time>
      </trkpt>
      <trkpt lat="49.6168" lon="5.69671">
        <ele>379</ele>
        <time>2018-07-20T17:52:16Z</time>
      </trkpt>
      <trkpt lat="49.61668" lon="5.69664">
        <ele>378</ele>
        <time>2018-07-20T17:52:20Z</time>
      </trkpt>
      <trkpt lat="49.61659" lon="5.69658">
        <ele>379</ele>
        <time>2018-07-20T17:52:23Z</time>
      </trkpt>
      <trkpt lat="49.61651" lon="5.69652">
        <ele>379</ele>
        <time>2018-07-20T17:52:25Z</time>
      </trkpt>
      <trkpt lat="49.61637" lon="5.69642">
        <ele>380</ele>
        <time>2018-07-20T17:52:27Z</time>
      </trkpt>
      <trkpt lat="49.61626" lon="5.69633">
        <ele>381</ele>
        <time>2018-07-20T17:52:30Z</time>
      </trkpt>
      <trkpt lat="49.61616" lon="5.69625">
        <ele>383</ele>
        <time>2018-07-20T17:52:33Z</time>
      </trkpt>
      <trkpt lat="49.61607" lon="5.69616">
        <ele>385</ele>
        <time>2018-07-20T17:52:36Z</time>
      </trkpt>
      <trkpt lat="49.61597" lon="5.69608">
        <ele>385</ele>
        <time>2018-07-20T17:52:38Z</time>
      </trkpt>
      <trkpt lat="49.61588" lon="5.69601">
        <ele>386</ele>
        <time>2018-07-20T17:52:40Z</time>
      </trkpt>
      <trkpt lat="49.61576" lon="5.69594">
        <ele>384</ele>
        <time>2018-07-20T17:52:42Z</time>
      </trkpt>
      <trkpt lat="49.61568" lon="5.69587">
        <ele>385</ele>
        <time>2018-07-20T17:52:44Z</time>
      </trkpt>
      <trkpt lat="49.61559" lon="5.69579">
        <ele>385</ele>
        <time>2018-07-20T17:52:46Z</time>
      </trkpt>
      <trkpt lat="49.61551" lon="5.69572">
        <ele>385</ele>
        <time>2018-07-20T17:52:48Z</time>
      </trkpt>
      <trkpt lat="49.61543" lon="5.69565">
        <ele>385</ele>
        <time>2018-07-20T17:52:50Z</time>
      </trkpt>
      <trkpt lat="49.61534" lon="5.69558">
        <ele>385</ele>
        <time>2018-07-20T17:52:52Z</time>
      </trkpt>
      <trkpt lat="49.61523" lon="5.69552">
        <ele>386</ele>
        <time>2018-07-20T17:52:54Z</time>
      </trkpt>
      <trkpt lat="49.61515" lon="5.69543">
        <ele>383</ele>
        <time>2018-07-20T17:52:56Z</time>
      </trkpt>
      <trkpt lat="49.61507" lon="5.69535">
        <ele>381</ele>
        <time>2018-07-20T17:52:58Z</time>
      </trkpt>
      <trkpt lat="49.61498" lon="5.69529">
        <ele>381</ele>
        <time>2018-07-20T17:53:00Z</time>
      </trkpt>
      <trkpt lat="49.61489" lon="5.69524">
        <ele>381</ele>
        <time>2018-07-20T17:53:02Z</time>
      </trkpt>
      <trkpt lat="49.6148" lon="5.69519">
        <ele>383</ele>
        <time>2018-07-20T17:53:04Z</time>
      </trkpt>
      <trkpt lat="49.61472" lon="5.69513">
        <ele>384</ele>
        <time>2018-07-20T17:53:06Z</time>
      </trkpt>
      <trkpt lat="49.61463" lon="5.69509">
        <ele>387</ele>
        <time>2018-07-20T17:53:08Z</time>
      </trkpt>
      <trkpt lat="49.61454" lon="5.69503">
        <ele>387</ele>
        <time>2018-07-20T17:53:10Z</time>
      </trkpt>
      <trkpt lat="49.61445" lon="5.69496">
        <ele>387</ele>
        <time>2018-07-20T17:53:12Z</time>
      </trkpt>
      <trkpt lat="49.61433" lon="5.69489">
        <ele>388</ele>
        <time>2018-07-20T17:53:15Z</time>
      </trkpt>
      <trkpt lat="49.61423" lon="5.69483">
        <ele>388</ele>
        <time>2018-07-20T17:53:17Z</time>
      </trkpt>
      <trkpt lat="49.61415" lon="5.69478">
        <ele>388</ele>
        <time>2018-07-20T17:53:19Z</time>
      </trkpt>
      <trkpt lat="49.61405" lon="5.69472">
        <ele>387</ele>
        <time>2018-07-20T17:53:21Z</time>
      </trkpt>
      <trkpt lat="49.61397" lon="5.69467">
        <ele>387</ele>
        <time>2018-07-20T17:53:23Z</time>
      </trkpt>
      <trkpt lat="49.61385" lon="5.69458">
        <ele>388</ele>
        <time>2018-07-20T17:53:26Z</time>
      </trkpt>
      <trkpt lat="49.61373" lon="5.6945">
        <ele>389</ele>
        <time>2018-07-20T17:53:29Z</time>
      </trkpt>
      <trkpt lat="49.61359" lon="5.6944">
        <ele>389</ele>
        <time>2018-07-20T17:53:32Z</time>
      </trkpt>
      <trkpt lat="49.61351" lon="5.69433">
        <ele>390</ele>
        <time>2018-07-20T17:53:34Z</time>
      </trkpt>
      <trkpt lat="49.61339" lon="5.69425">
        <ele>390</ele>
        <time>2018-07-20T17:53:37Z</time>
      </trkpt>
      <trkpt lat="49.6133" lon="5.69419">
        <ele>389</ele>
        <time>2018-07-20T17:53:39Z</time>
      </trkpt>
      <trkpt lat="49.61321" lon="5.69414">
        <ele>392</ele>
        <time>2018-07-20T17:53:43Z</time>
      </trkpt>
      <trkpt lat="49.61312" lon="5.6941">
        <ele>391</ele>
        <time>2018-07-20T17:54:50Z</time>
      </trkpt>
      <trkpt lat="49.61303" lon="5.69417">
        <ele>393</ele>
        <time>2018-07-20T18:01:11Z</time>
      </trkpt>
      <trkpt lat="49.61294" lon="5.69422">
        <ele>393</ele>
        <time>2018-07-20T18:01:16Z</time>
      </trkpt>
      <trkpt lat="49.61282" lon="5.69428">
        <ele>394</ele>
        <time>2018-07-20T18:01:20Z</time>
      </trkpt>
      <trkpt lat="49.61262" lon="5.69435">
        <ele>394</ele>
        <time>2018-07-20T18:01:23Z</time>
      </trkpt>
      <trkpt lat="49.61254" lon="5.6944">
        <ele>395</ele>
        <time>2018-07-20T18:01:26Z</time>
      </trkpt>
      <trkpt lat="49.6124" lon="5.69446">
        <ele>394</ele>
        <time>2018-07-20T18:01:28Z</time>
      </trkpt>
      <trkpt lat="49.61231" lon="5.69451">
        <ele>394</ele>
        <time>2018-07-20T18:01:31Z</time>
      </trkpt>
      <trkpt lat="49.61221" lon="5.69456">
        <ele>395</ele>
        <time>2018-07-20T18:01:32Z</time>
      </trkpt>
      <trkpt lat="49.6121" lon="5.69461">
        <ele>395</ele>
        <time>2018-07-20T18:01:34Z</time>
      </trkpt>
      <trkpt lat="49.612" lon="5.69469">
        <ele>394</ele>
        <time>2018-07-20T18:01:36Z</time>
      </trkpt>
      <trkpt lat="49.61189" lon="5.69477">
        <ele>392</ele>
        <time>2018-07-20T18:01:39Z</time>
      </trkpt>
      <trkpt lat="49.61179" lon="5.69485">
        <ele>394</ele>
        <time>2018-07-20T18:01:40Z</time>
      </trkpt>
      <trkpt lat="49.61168" lon="5.69492">
        <ele>394</ele>
        <time>2018-07-20T18:01:42Z</time>
      </trkpt>
      <trkpt lat="49.61158" lon="5.69499">
        <ele>394</ele>
        <time>2018-07-20T18:01:44Z</time>
      </trkpt>
      <trkpt lat="49.61147" lon="5.69507">
        <ele>395</ele>
        <time>2018-07-20T18:01:46Z</time>
      </trkpt>
      <trkpt lat="49.61135" lon="5.69515">
        <ele>394</ele>
        <time>2018-07-20T18:01:48Z</time>
      </trkpt>
      <trkpt lat="49.61122" lon="5.69523">
        <ele>395</ele>
        <time>2018-07-20T18:01:50Z</time>
      </trkpt>
      <trkpt lat="49.61108" lon="5.69528">
        <ele>394</ele>
        <time>2018-07-20T18:01:52Z</time>
      </trkpt>
      <trkpt lat="49.61095" lon="5.69533">
        <ele>394</ele>
        <time>2018-07-20T18:01:54Z</time>
      </trkpt>
      <trkpt lat="49.61079" lon="5.69537">
        <ele>394</ele>
        <time>2018-07-20T18:01:56Z</time>
      </trkpt>
      <trkpt lat="49.61064" lon="5.69541">
        <ele>393</ele>
        <time>2018-07-20T18:01:58Z</time>
      </trkpt>
      <trkpt lat="49.61046" lon="5.69544">
        <ele>394</ele>
        <time>2018-07-20T18:02:00Z</time>
      </trkpt>
      <trkpt lat="49.61031" lon="5.69552">
        <ele>392</ele>
        <time>2018-07-20T18:02:02Z</time>
      </trkpt>
      <trkpt lat="49.61017" lon="5.69561">
        <ele>390</ele>
        <time>2018-07-20T18:02:04Z</time>
      </trkpt>
      <trkpt lat="49.61" lon="5.69565">
        <ele>390</ele>
        <time>2018-07-20T18:02:06Z</time>
      </trkpt>
      <trkpt lat="49.60982" lon="5.69559">
        <ele>387</ele>
        <time>2018-07-20T18:02:08Z</time>
      </trkpt>
      <trkpt lat="49.60963" lon="5.69553">
        <ele>386</ele>
        <time>2018-07-20T18:02:10Z</time>
      </trkpt>
      <trkpt lat="49.60947" lon="5.6954">
        <ele>385</ele>
        <time>2018-07-20T18:02:12Z</time>
      </trkpt>
      <trkpt lat="49.60928" lon="5.69527">
        <ele>385</ele>
        <time>2018-07-20T18:02:15Z</time>
      </trkpt>
      <trkpt lat="49.60909" lon="5.69511">
        <ele>383</ele>
        <time>2018-07-20T18:02:16Z</time>
      </trkpt>
      <trkpt lat="49.60897" lon="5.69498">
        <ele>383</ele>
        <time>2018-07-20T18:02:18Z</time>
      </trkpt>
      <trkpt lat="49.60882" lon="5.69484">
        <ele>382</ele>
        <time>2018-07-20T18:02:20Z</time>
      </trkpt>
      <trkpt lat="49.6087" lon="5.69474">
        <ele>383</ele>
        <time>2018-07-20T18:02:22Z</time>
      </trkpt>
      <trkpt lat="49.60856" lon="5.69464">
        <ele>382</ele>
        <time>2018-07-20T18:02:24Z</time>
      </trkpt>
      <trkpt lat="49.60833" lon="5.6945">
        <ele>375</ele>
        <time>2018-07-20T18:02:26Z</time>
      </trkpt>
      <trkpt lat="49.60809" lon="5.69452">
        <ele>372</ele>
        <time>2018-07-20T18:02:28Z</time>
      </trkpt>
      <trkpt lat="49.6079" lon="5.69454">
        <ele>370</ele>
        <time>2018-07-20T18:02:30Z</time>
      </trkpt>
      <trkpt lat="49.60777" lon="5.69449">
        <ele>368</ele>
        <time>2018-07-20T18:02:32Z</time>
      </trkpt>
      <trkpt lat="49.60764" lon="5.69451">
        <ele>362</ele>
        <time>2018-07-20T18:02:34Z</time>
      </trkpt>
      <trkpt lat="49.60757" lon="5.6944">
        <ele>360</ele>
        <time>2018-07-20T18:02:36Z</time>
      </trkpt>
      <trkpt lat="49.60748" lon="5.6943">
        <ele>362</ele>
        <time>2018-07-20T18:02:38Z</time>
      </trkpt>
      <trkpt lat="49.60739" lon="5.69419">
        <ele>363</ele>
        <time>2018-07-20T18:02:40Z</time>
      </trkpt>
      <trkpt lat="49.60727" lon="5.69408">
        <ele>364</ele>
        <time>2018-07-20T18:02:42Z</time>
      </trkpt>
      <trkpt lat="49.60719" lon="5.69397">
        <ele>361</ele>
        <time>2018-07-20T18:02:44Z</time>
      </trkpt>
      <trkpt lat="49.60706" lon="5.69387">
        <ele>360</ele>
        <time>2018-07-20T18:02:46Z</time>
      </trkpt>
      <trkpt lat="49.60691" lon="5.69373">
        <ele>353</ele>
        <time>2018-07-20T18:02:48Z</time>
      </trkpt>
      <trkpt lat="49.60678" lon="5.69361">
        <ele>353</ele>
        <time>2018-07-20T18:02:51Z</time>
      </trkpt>
      <trkpt lat="49.60664" lon="5.69347">
        <ele>355</ele>
        <time>2018-07-20T18:02:52Z</time>
      </trkpt>
      <trkpt lat="49.60652" lon="5.69329">
        <ele>353</ele>
        <time>2018-07-20T18:02:55Z</time>
      </trkpt>
      <trkpt lat="49.60638" lon="5.6932">
        <ele>351</ele>
        <time>2018-07-20T18:02:56Z</time>
      </trkpt>
      <trkpt lat="49.60622" lon="5.69309">
        <ele>351</ele>
        <time>2018-07-20T18:02:58Z</time>
      </trkpt>
      <trkpt lat="49.60608" lon="5.69297">
        <ele>349</ele>
        <time>2018-07-20T18:03:00Z</time>
      </trkpt>
      <trkpt lat="49.60593" lon="5.69285">
        <ele>349</ele>
        <time>2018-07-20T18:03:02Z</time>
      </trkpt>
      <trkpt lat="49.60581" lon="5.69272">
        <ele>349</ele>
        <time>2018-07-20T18:03:04Z</time>
      </trkpt>
      <trkpt lat="49.60568" lon="5.69259">
        <ele>349</ele>
        <time>2018-07-20T18:03:06Z</time>
      </trkpt>
      <trkpt lat="49.60554" lon="5.69251">
        <ele>350</ele>
        <time>2018-07-20T18:03:08Z</time>
      </trkpt>
      <trkpt lat="49.6054" lon="5.69237">
        <ele>350</ele>
        <time>2018-07-20T18:03:10Z</time>
      </trkpt>
      <trkpt lat="49.60525" lon="5.69222">
        <ele>350</ele>
        <time>2018-07-20T18:03:12Z</time>
      </trkpt>
      <trkpt lat="49.60508" lon="5.69213">
        <ele>347</ele>
        <time>2018-07-20T18:03:14Z</time>
      </trkpt>
      <trkpt lat="49.60488" lon="5.69204">
        <ele>342</ele>
        <time>2018-07-20T18:03:16Z</time>
      </trkpt>
      <trkpt lat="49.60469" lon="5.69194">
        <ele>341</ele>
        <time>2018-07-20T18:03:18Z</time>
      </trkpt>
      <trkpt lat="49.60449" lon="5.69186">
        <ele>340</ele>
        <time>2018-07-20T18:03:20Z</time>
      </trkpt>
      <trkpt lat="49.60429" lon="5.69175">
        <ele>337</ele>
        <time>2018-07-20T18:03:22Z</time>
      </trkpt>
      <trkpt lat="49.60412" lon="5.69165">
        <ele>337</ele>
        <time>2018-07-20T18:03:24Z</time>
      </trkpt>
      <trkpt lat="49.60395" lon="5.69154">
        <ele>335</ele>
        <time>2018-07-20T18:03:26Z</time>
      </trkpt>
      <trkpt lat="49.60381" lon="5.69146">
        <ele>337</ele>
        <time>2018-07-20T18:03:28Z</time>
      </trkpt>
      <trkpt lat="49.60367" lon="5.69139">
        <ele>337</ele>
        <time>2018-07-20T18:03:30Z</time>
      </trkpt>
      <trkpt lat="49.60354" lon="5.69132">
        <ele>337</ele>
        <time>2018-07-20T18:03:32Z</time>
      </trkpt>
      <trkpt lat="49.60343" lon="5.69128">
        <ele>337</ele>
        <time>2018-07-20T18:03:34Z</time>
      </trkpt>
      <trkpt lat="49.60333" lon="5.69124">
        <ele>336</ele>
        <time>2018-07-20T18:03:36Z</time>
      </trkpt>
      <trkpt lat="49.60322" lon="5.69118">
        <ele>338</ele>
        <time>2018-07-20T18:03:39Z</time>
      </trkpt>
      <trkpt lat="49.60311" lon="5.69114">
        <ele>336</ele>
        <time>2018-07-20T18:03:41Z</time>
      </trkpt>
      <trkpt lat="49.60301" lon="5.6911">
        <ele>336</ele>
        <time>2018-07-20T18:03:43Z</time>
      </trkpt>
      <trkpt lat="49.60291" lon="5.69106">
        <ele>334</ele>
        <time>2018-07-20T18:03:45Z</time>
      </trkpt>
      <trkpt lat="49.60281" lon="5.69101">
        <ele>334</ele>
        <time>2018-07-20T18:03:47Z</time>
      </trkpt>
      <trkpt lat="49.60273" lon="5.69095">
        <ele>333</ele>
        <time>2018-07-20T18:03:49Z</time>
      </trkpt>
      <trkpt lat="49.60263" lon="5.69089">
        <ele>333</ele>
        <time>2018-07-20T18:03:51Z</time>
      </trkpt>
      <trkpt lat="49.60253" lon="5.69084">
        <ele>332</ele>
        <time>2018-07-20T18:03:53Z</time>
      </trkpt>
      <trkpt lat="49.60242" lon="5.69079">
        <ele>332</ele>
        <time>2018-07-20T18:03:56Z</time>
      </trkpt>
      <trkpt lat="49.60233" lon="5.69074">
        <ele>332</ele>
        <time>2018-07-20T18:03:57Z</time>
      </trkpt>
      <trkpt lat="49.60223" lon="5.69069">
        <ele>333</ele>
        <time>2018-07-20T18:03:59Z</time>
      </trkpt>
      <trkpt lat="49.60213" lon="5.69063">
        <ele>334</ele>
        <time>2018-07-20T18:04:01Z</time>
      </trkpt>
      <trkpt lat="49.60203" lon="5.69059">
        <ele>332</ele>
        <time>2018-07-20T18:04:03Z</time>
      </trkpt>
      <trkpt lat="49.60195" lon="5.69047">
        <ele>332</ele>
        <time>2018-07-20T18:04:06Z</time>
      </trkpt>
      <trkpt lat="49.60185" lon="5.69031">
        <ele>332</ele>
        <time>2018-07-20T18:04:08Z</time>
      </trkpt>
      <trkpt lat="49.60177" lon="5.69018">
        <ele>331</ele>
        <time>2018-07-20T18:04:10Z</time>
      </trkpt>
      <trkpt lat="49.60165" lon="5.69005">
        <ele>329</ele>
        <time>2018-07-20T18:04:12Z</time>
      </trkpt>
      <trkpt lat="49.60158" lon="5.68992">
        <ele>329</ele>
        <time>2018-07-20T18:04:14Z</time>
      </trkpt>
      <trkpt lat="49.60147" lon="5.68986">
        <ele>330</ele>
        <time>2018-07-20T18:04:16Z</time>
      </trkpt>
      <trkpt lat="49.60141" lon="5.68975">
        <ele>333</ele>
        <time>2018-07-20T18:04:19Z</time>
      </trkpt>
      <trkpt lat="49.60133" lon="5.68967">
        <ele>332</ele>
        <time>2018-07-20T18:04:20Z</time>
      </trkpt>
      <trkpt lat="49.60121" lon="5.68968">
        <ele>334</ele>
        <time>2018-07-20T18:04:22Z</time>
      </trkpt>
      <trkpt lat="49.60111" lon="5.68966">
        <ele>334</ele>
        <time>2018-07-20T18:04:25Z</time>
      </trkpt>
      <trkpt lat="49.60101" lon="5.68954">
        <ele>336</ele>
        <time>2018-07-20T18:04:28Z</time>
      </trkpt>
      <trkpt lat="49.60091" lon="5.68947">
        <ele>336</ele>
        <time>2018-07-20T18:04:31Z</time>
      </trkpt>
      <trkpt lat="49.60077" lon="5.6894">
        <ele>334</ele>
        <time>2018-07-20T18:04:35Z</time>
      </trkpt>
      <trkpt lat="49.60067" lon="5.68936">
        <ele>333</ele>
        <time>2018-07-20T18:04:37Z</time>
      </trkpt>
      <trkpt lat="49.60035" lon="5.68925">
        <ele>333</ele>
        <time>2018-07-20T18:04:39Z</time>
      </trkpt>
      <trkpt lat="49.60026" lon="5.68914">
        <ele>336</ele>
        <time>2018-07-20T18:04:41Z</time>
      </trkpt>
      <trkpt lat="49.60016" lon="5.68911">
        <ele>337</ele>
        <time>2018-07-20T18:04:43Z</time>
      </trkpt>
      <trkpt lat="49.60007" lon="5.68905">
        <ele>339</ele>
        <time>2018-07-20T18:04:47Z</time>
      </trkpt>
      <trkpt lat="49.59998" lon="5.68901">
        <ele>337</ele>
        <time>2018-07-20T18:04:49Z</time>
      </trkpt>
      <trkpt lat="49.59987" lon="5.68897">
        <ele>339</ele>
        <time>2018-07-20T18:04:51Z</time>
      </trkpt>
      <trkpt lat="49.59962" lon="5.68887">
        <ele>338</ele>
        <time>2018-07-20T18:04:53Z</time>
      </trkpt>
      <trkpt lat="49.59953" lon="5.68885">
        <ele>334</ele>
        <time>2018-07-20T18:04:56Z</time>
      </trkpt>
      <trkpt lat="49.59944" lon="5.68879">
        <ele>336</ele>
        <time>2018-07-20T18:05:00Z</time>
      </trkpt>
      <trkpt lat="49.59935" lon="5.68872">
        <ele>339</ele>
        <time>2018-07-20T18:05:03Z</time>
      </trkpt>
      <trkpt lat="49.59922" lon="5.6887">
        <ele>339</ele>
        <time>2018-07-20T18:05:06Z</time>
      </trkpt>
      <trkpt lat="49.59913" lon="5.68869">
        <ele>335</ele>
        <time>2018-07-20T18:05:08Z</time>
      </trkpt>
      <trkpt lat="49.599" lon="5.68867">
        <ele>334</ele>
        <time>2018-07-20T18:05:11Z</time>
      </trkpt>
      <trkpt lat="49.59888" lon="5.68866">
        <ele>335</ele>
        <time>2018-07-20T18:05:14Z</time>
      </trkpt>
      <trkpt lat="49.59876" lon="5.68866">
        <ele>332</ele>
        <time>2018-07-20T18:05:16Z</time>
      </trkpt>
      <trkpt lat="49.59865" lon="5.68866">
        <ele>334</ele>
        <time>2018-07-20T18:05:18Z</time>
      </trkpt>
      <trkpt lat="49.59849" lon="5.68863">
        <ele>333</ele>
        <time>2018-07-20T18:05:19Z</time>
      </trkpt>
      <trkpt lat="49.5984" lon="5.6886">
        <ele>334</ele>
        <time>2018-07-20T18:05:22Z</time>
      </trkpt>
      <trkpt lat="49.59827" lon="5.6886">
        <ele>339</ele>
        <time>2018-07-20T18:05:24Z</time>
      </trkpt>
      <trkpt lat="49.59811" lon="5.68861">
        <ele>338</ele>
        <time>2018-07-20T18:05:26Z</time>
      </trkpt>
      <trkpt lat="49.59788" lon="5.68853">
        <ele>332</ele>
        <time>2018-07-20T18:05:28Z</time>
      </trkpt>
      <trkpt lat="49.59772" lon="5.6885">
        <ele>334</ele>
        <time>2018-07-20T18:05:30Z</time>
      </trkpt>
      <trkpt lat="49.59758" lon="5.68847">
        <ele>335</ele>
        <time>2018-07-20T18:05:32Z</time>
      </trkpt>
      <trkpt lat="49.59741" lon="5.68844">
        <ele>336</ele>
        <time>2018-07-20T18:05:35Z</time>
      </trkpt>
      <trkpt lat="49.59728" lon="5.68842">
        <ele>337</ele>
        <time>2018-07-20T18:05:36Z</time>
      </trkpt>
      <trkpt lat="49.59714" lon="5.68838">
        <ele>335</ele>
        <time>2018-07-20T18:05:38Z</time>
      </trkpt>
      <trkpt lat="49.59695" lon="5.68853">
        <ele>335</ele>
        <time>2018-07-20T18:05:40Z</time>
      </trkpt>
      <trkpt lat="49.59679" lon="5.68866">
        <ele>334</ele>
        <time>2018-07-20T18:05:43Z</time>
      </trkpt>
      <trkpt lat="49.59661" lon="5.68879">
        <ele>332</ele>
        <time>2018-07-20T18:05:44Z</time>
      </trkpt>
      <trkpt lat="49.59648" lon="5.68902">
        <ele>328</ele>
        <time>2018-07-20T18:05:47Z</time>
      </trkpt>
      <trkpt lat="49.59636" lon="5.68914">
        <ele>334</ele>
        <time>2018-07-20T18:05:49Z</time>
      </trkpt>
      <trkpt lat="49.59624" lon="5.68919">
        <ele>336</ele>
        <time>2018-07-20T18:05:51Z</time>
      </trkpt>
      <trkpt lat="49.59611" lon="5.68932">
        <ele>337</ele>
        <time>2018-07-20T18:05:53Z</time>
      </trkpt>
      <trkpt lat="49.596" lon="5.6895">
        <ele>334</ele>
        <time>2018-07-20T18:05:55Z</time>
      </trkpt>
      <trkpt lat="49.59595" lon="5.68966">
        <ele>335</ele>
        <time>2018-07-20T18:05:57Z</time>
      </trkpt>
      <trkpt lat="49.59596" lon="5.6899">
        <ele>333</ele>
        <time>2018-07-20T18:06:00Z</time>
      </trkpt>
      <trkpt lat="49.5959" lon="5.69012">
        <ele>336</ele>
        <time>2018-07-20T18:06:01Z</time>
      </trkpt>
      <trkpt lat="49.59582" lon="5.69038">
        <ele>335</ele>
        <time>2018-07-20T18:06:03Z</time>
      </trkpt>
      <trkpt lat="49.59571" lon="5.69058">
        <ele>335</ele>
        <time>2018-07-20T18:06:06Z</time>
      </trkpt>
      <trkpt lat="49.59569" lon="5.69076">
        <ele>331</ele>
        <time>2018-07-20T18:06:08Z</time>
      </trkpt>
      <trkpt lat="49.59569" lon="5.6909">
        <ele>329</ele>
        <time>2018-07-20T18:06:10Z</time>
      </trkpt>
      <trkpt lat="49.5956" lon="5.6909">
        <ele>328</ele>
        <time>2018-07-20T18:06:12Z</time>
      </trkpt>
      <trkpt lat="49.59542" lon="5.69085">
        <ele>329</ele>
        <time>2018-07-20T18:06:15Z</time>
      </trkpt>
      <trkpt lat="49.59521" lon="5.69076">
        <ele>326</ele>
        <time>2018-07-20T18:06:16Z</time>
      </trkpt>
      <trkpt lat="49.59513" lon="5.69068">
        <ele>327</ele>
        <time>2018-07-20T18:06:18Z</time>
      </trkpt>
      <trkpt lat="49.59499" lon="5.69059">
        <ele>327</ele>
        <time>2018-07-20T18:06:19Z</time>
      </trkpt>
      <trkpt lat="49.59485" lon="5.6905">
        <ele>324</ele>
        <time>2018-07-20T18:06:22Z</time>
      </trkpt>
      <trkpt lat="49.59471" lon="5.69042">
        <ele>324</ele>
        <time>2018-07-20T18:06:23Z</time>
      </trkpt>
      <trkpt lat="49.5946" lon="5.69039">
        <ele>324</ele>
        <time>2018-07-20T18:06:25Z</time>
      </trkpt>
      <trkpt lat="49.59445" lon="5.6904">
        <ele>322</ele>
        <time>2018-07-20T18:06:27Z</time>
      </trkpt>
      <trkpt lat="49.59441" lon="5.69053">
        <ele>319</ele>
        <time>2018-07-20T18:06:33Z</time>
      </trkpt>
      <trkpt lat="49.59439" lon="5.69067">
        <ele>323</ele>
        <time>2018-07-20T18:06:43Z</time>
      </trkpt>
      <trkpt lat="49.59431" lon="5.69079">
        <ele>323</ele>
        <time>2018-07-20T18:06:55Z</time>
      </trkpt>
      <trkpt lat="49.59425" lon="5.69091">
        <ele>321</ele>
        <time>2018-07-20T18:06:59Z</time>
      </trkpt>
      <trkpt lat="49.59417" lon="5.691">
        <ele>321</ele>
        <time>2018-07-20T18:07:04Z</time>
      </trkpt>
      <trkpt lat="49.59409" lon="5.6911">
        <ele>318</ele>
        <time>2018-07-20T18:07:10Z</time>
      </trkpt>
      <trkpt lat="49.59401" lon="5.69121">
        <ele>320</ele>
        <time>2018-07-20T18:07:15Z</time>
      </trkpt>
      <trkpt lat="49.59396" lon="5.69133">
        <ele>319</ele>
        <time>2018-07-20T18:07:19Z</time>
      </trkpt>
      <trkpt lat="49.59389" lon="5.69144">
        <ele>321</ele>
        <time>2018-07-20T18:07:23Z</time>
      </trkpt>
      <trkpt lat="49.5938" lon="5.69153">
        <ele>316</ele>
        <time>2018-07-20T18:07:27Z</time>
      </trkpt>
      <trkpt lat="49.59371" lon="5.6916">
        <ele>318</ele>
        <time>2018-07-20T18:07:30Z</time>
      </trkpt>
      <trkpt lat="49.59361" lon="5.69167">
        <ele>320</ele>
        <time>2018-07-20T18:07:34Z</time>
      </trkpt>
      <trkpt lat="49.59351" lon="5.69173">
        <ele>313</ele>
        <time>2018-07-20T18:07:39Z</time>
      </trkpt>
      <trkpt lat="49.59341" lon="5.69179">
        <ele>315</ele>
        <time>2018-07-20T18:07:43Z</time>
      </trkpt>
      <trkpt lat="49.59331" lon="5.69186">
        <ele>320</ele>
        <time>2018-07-20T18:07:47Z</time>
      </trkpt>
      <trkpt lat="49.5932" lon="5.69185">
        <ele>325</ele>
        <time>2018-07-20T18:07:52Z</time>
      </trkpt>
      <trkpt lat="49.59309" lon="5.69177">
        <ele>327</ele>
        <time>2018-07-20T18:07:56Z</time>
      </trkpt>
      <trkpt lat="49.5929" lon="5.6917">
        <ele>326</ele>
        <time>2018-07-20T18:07:58Z</time>
      </trkpt>
      <trkpt lat="49.59281" lon="5.69165">
        <ele>325</ele>
        <time>2018-07-20T18:08:00Z</time>
      </trkpt>
      <trkpt lat="49.59271" lon="5.69163">
        <ele>328</ele>
        <time>2018-07-20T18:08:02Z</time>
      </trkpt>
      <trkpt lat="49.5926" lon="5.6916">
        <ele>333</ele>
        <time>2018-07-20T18:08:06Z</time>
      </trkpt>
      <trkpt lat="49.59242" lon="5.69152">
        <ele>330</ele>
        <time>2018-07-20T18:08:08Z</time>
      </trkpt>
      <trkpt lat="49.59229" lon="5.69148">
        <ele>329</ele>
        <time>2018-07-20T18:08:11Z</time>
      </trkpt>
      <trkpt lat="49.59214" lon="5.69143">
        <ele>332</ele>
        <time>2018-07-20T18:08:14Z</time>
      </trkpt>
      <trkpt lat="49.592" lon="5.69136">
        <ele>330</ele>
        <time>2018-07-20T18:08:16Z</time>
      </trkpt>
      <trkpt lat="49.59186" lon="5.6913">
        <ele>328</ele>
        <time>2018-07-20T18:08:18Z</time>
      </trkpt>
      <trkpt lat="49.59175" lon="5.69122">
        <ele>330</ele>
        <time>2018-07-20T18:08:20Z</time>
      </trkpt>
      <trkpt lat="49.59167" lon="5.69113">
        <ele>329</ele>
        <time>2018-07-20T18:08:22Z</time>
      </trkpt>
      <trkpt lat="49.59148" lon="5.69116">
        <ele>325</ele>
        <time>2018-07-20T18:08:25Z</time>
      </trkpt>
      <trkpt lat="49.59138" lon="5.69125">
        <ele>324</ele>
        <time>2018-07-20T18:08:29Z</time>
      </trkpt>
      <trkpt lat="49.59129" lon="5.69134">
        <ele>326</ele>
        <time>2018-07-20T18:08:32Z</time>
      </trkpt>
      <trkpt lat="49.59113" lon="5.69155">
        <ele>327</ele>
        <time>2018-07-20T18:08:35Z</time>
      </trkpt>
      <trkpt lat="49.59107" lon="5.69179">
        <ele>324</ele>
        <time>2018-07-20T18:08:37Z</time>
      </trkpt>
      <trkpt lat="49.59097" lon="5.69194">
        <ele>321</ele>
        <time>2018-07-20T18:08:39Z</time>
      </trkpt>
      <trkpt lat="49.59085" lon="5.69221">
        <ele>316</ele>
        <time>2018-07-20T18:08:41Z</time>
      </trkpt>
      <trkpt lat="49.59077" lon="5.69251">
        <ele>316</ele>
        <time>2018-07-20T18:08:43Z</time>
      </trkpt>
      <trkpt lat="49.59077" lon="5.69281">
        <ele>311</ele>
        <time>2018-07-20T18:08:45Z</time>
      </trkpt>
      <trkpt lat="49.59079" lon="5.69309">
        <ele>306</ele>
        <time>2018-07-20T18:08:47Z</time>
      </trkpt>
      <trkpt lat="49.59086" lon="5.69336">
        <ele>305</ele>
        <time>2018-07-20T18:08:49Z</time>
      </trkpt>
      <trkpt lat="49.59074" lon="5.69349">
        <ele>306</ele>
        <time>2018-07-20T18:08:55Z</time>
      </trkpt>
      <trkpt lat="49.59065" lon="5.69358">
        <ele>305</ele>
        <time>2018-07-20T18:08:57Z</time>
      </trkpt>
      <trkpt lat="49.59061" lon="5.69375">
        <ele>303</ele>
        <time>2018-07-20T18:08:59Z</time>
      </trkpt>
      <trkpt lat="49.59062" lon="5.69395">
        <ele>303</ele>
        <time>2018-07-20T18:09:01Z</time>
      </trkpt>
      <trkpt lat="49.5906" lon="5.69415">
        <ele>300</ele>
        <time>2018-07-20T18:09:03Z</time>
      </trkpt>
      <trkpt lat="49.59054" lon="5.69432">
        <ele>300</ele>
        <time>2018-07-20T18:09:05Z</time>
      </trkpt>
      <trkpt lat="49.59049" lon="5.69452">
        <ele>299</ele>
        <time>2018-07-20T18:09:08Z</time>
      </trkpt>
      <trkpt lat="49.5904" lon="5.69474">
        <ele>298</ele>
        <time>2018-07-20T18:09:09Z</time>
      </trkpt>
      <trkpt lat="49.5903" lon="5.69494">
        <ele>298</ele>
        <time>2018-07-20T18:09:11Z</time>
      </trkpt>
      <trkpt lat="49.59021" lon="5.69521">
        <ele>297</ele>
        <time>2018-07-20T18:09:14Z</time>
      </trkpt>
      <trkpt lat="49.59008" lon="5.69537">
        <ele>299</ele>
        <time>2018-07-20T18:09:15Z</time>
      </trkpt>
      <trkpt lat="49.59003" lon="5.6957">
        <ele>297</ele>
        <time>2018-07-20T18:09:17Z</time>
      </trkpt>
      <trkpt lat="49.59" lon="5.696">
        <ele>293</ele>
        <time>2018-07-20T18:09:19Z</time>
      </trkpt>
      <trkpt lat="49.58999" lon="5.6963">
        <ele>291</ele>
        <time>2018-07-20T18:09:22Z</time>
      </trkpt>
      <trkpt lat="49.58985" lon="5.69654">
        <ele>289</ele>
        <time>2018-07-20T18:09:23Z</time>
      </trkpt>
      <trkpt lat="49.58976" lon="5.69679">
        <ele>288</ele>
        <time>2018-07-20T18:09:25Z</time>
      </trkpt>
      <trkpt lat="49.58958" lon="5.69705">
        <ele>280</ele>
        <time>2018-07-20T18:09:27Z</time>
      </trkpt>
      <trkpt lat="49.58945" lon="5.69718">
        <ele>279</ele>
        <time>2018-07-20T18:09:29Z</time>
      </trkpt>
      <trkpt lat="49.58937" lon="5.69739">
        <ele>280</ele>
        <time>2018-07-20T18:09:31Z</time>
      </trkpt>
      <trkpt lat="49.5892" lon="5.69749">
        <ele>279</ele>
        <time>2018-07-20T18:09:33Z</time>
      </trkpt>
      <trkpt lat="49.58912" lon="5.69767">
        <ele>277</ele>
        <time>2018-07-20T18:09:35Z</time>
      </trkpt>
      <trkpt lat="49.589" lon="5.69786">
        <ele>276</ele>
        <time>2018-07-20T18:09:37Z</time>
      </trkpt>
      <trkpt lat="49.58886" lon="5.69796">
        <ele>278</ele>
        <time>2018-07-20T18:09:40Z</time>
      </trkpt>
      <trkpt lat="49.58872" lon="5.69813">
        <ele>279</ele>
        <time>2018-07-20T18:09:42Z</time>
      </trkpt>
      <trkpt lat="49.58865" lon="5.69841">
        <ele>277</ele>
        <time>2018-07-20T18:09:43Z</time>
      </trkpt>
      <trkpt lat="49.58853" lon="5.69849">
        <ele>275</ele>
        <time>2018-07-20T18:09:45Z</time>
      </trkpt>
      <trkpt lat="49.58842" lon="5.69863">
        <ele>277</ele>
        <time>2018-07-20T18:09:48Z</time>
      </trkpt>
      <trkpt lat="49.58831" lon="5.69888">
        <ele>272</ele>
        <time>2018-07-20T18:09:49Z</time>
      </trkpt>
      <trkpt lat="49.58822" lon="5.69914">
        <ele>271</ele>
        <time>2018-07-20T18:09:51Z</time>
      </trkpt>
      <trkpt lat="49.58811" lon="5.69945">
        <ele>269</ele>
        <time>2018-07-20T18:09:53Z</time>
      </trkpt>
      <trkpt lat="49.58801" lon="5.69976">
        <ele>267</ele>
        <time>2018-07-20T18:09:56Z</time>
      </trkpt>
      <trkpt lat="49.58791" lon="5.70004">
        <ele>265</ele>
        <time>2018-07-20T18:09:57Z</time>
      </trkpt>
      <trkpt lat="49.5878" lon="5.7003">
        <ele>263</ele>
        <time>2018-07-20T18:09:59Z</time>
      </trkpt>
      <trkpt lat="49.5877" lon="5.70055">
        <ele>264</ele>
        <time>2018-07-20T18:10:01Z</time>
      </trkpt>
      <trkpt lat="49.58766" lon="5.70067">
        <ele>262</ele>
        <time>2018-07-20T18:10:02Z</time>
      </trkpt>
      <trkpt lat="49.58754" lon="5.70081">
        <ele>262</ele>
        <time>2018-07-20T18:10:04Z</time>
      </trkpt>
      <trkpt lat="49.5874" lon="5.70088">
        <ele>264</ele>
        <time>2018-07-20T18:10:06Z</time>
      </trkpt>
      <trkpt lat="49.58726" lon="5.70088">
        <ele>263</ele>
        <time>2018-07-20T18:10:08Z</time>
      </trkpt>
      <trkpt lat="49.58715" lon="5.70085">
        <ele>261</ele>
        <time>2018-07-20T18:10:10Z</time>
      </trkpt>
      <trkpt lat="49.58706" lon="5.70071">
        <ele>261</ele>
        <time>2018-07-20T18:10:13Z</time>
      </trkpt>
      <trkpt lat="49.58693" lon="5.70059">
        <ele>261</ele>
        <time>2018-07-20T18:10:15Z</time>
      </trkpt>
      <trkpt lat="49.58675" lon="5.70039">
        <ele>262</ele>
        <time>2018-07-20T18:10:17Z</time>
      </trkpt>
      <trkpt lat="49.5866" lon="5.70026">
        <ele>262</ele>
        <time>2018-07-20T18:10:19Z</time>
      </trkpt>
      <trkpt lat="49.58645" lon="5.70016">
        <ele>262</ele>
        <time>2018-07-20T18:10:21Z</time>
      </trkpt>
      <trkpt lat="49.58629" lon="5.70007">
        <ele>264</ele>
        <time>2018-07-20T18:10:23Z</time>
      </trkpt>
      <trkpt lat="49.58615" lon="5.69996">
        <ele>263</ele>
        <time>2018-07-20T18:10:25Z</time>
      </trkpt>
      <trkpt lat="49.586" lon="5.69987">
        <ele>263</ele>
        <time>2018-07-20T18:10:28Z</time>
      </trkpt>
      <trkpt lat="49.58583" lon="5.69976">
        <ele>263</ele>
        <time>2018-07-20T18:10:29Z</time>
      </trkpt>
      <trkpt lat="49.58568" lon="5.69967">
        <ele>263</ele>
        <time>2018-07-20T18:10:31Z</time>
      </trkpt>
      <trkpt lat="49.58554" lon="5.69958">
        <ele>262</ele>
        <time>2018-07-20T18:10:33Z</time>
      </trkpt>
      <trkpt lat="49.58538" lon="5.69947">
        <ele>262</ele>
        <time>2018-07-20T18:10:36Z</time>
      </trkpt>
      <trkpt lat="49.58524" lon="5.69939">
        <ele>263</ele>
        <time>2018-07-20T18:10:37Z</time>
      </trkpt>
      <trkpt lat="49.58505" lon="5.69935">
        <ele>263</ele>
        <time>2018-07-20T18:10:39Z</time>
      </trkpt>
      <trkpt lat="49.58488" lon="5.69931">
        <ele>264</ele>
        <time>2018-07-20T18:10:41Z</time>
      </trkpt>
      <trkpt lat="49.58469" lon="5.69937">
        <ele>262</ele>
        <time>2018-07-20T18:10:43Z</time>
      </trkpt>
      <trkpt lat="49.58452" lon="5.69946">
        <ele>261</ele>
        <time>2018-07-20T18:10:45Z</time>
      </trkpt>
      <trkpt lat="49.58443" lon="5.69955">
        <ele>259</ele>
        <time>2018-07-20T18:10:46Z</time>
      </trkpt>
      <trkpt lat="49.58427" lon="5.69966">
        <ele>259</ele>
        <time>2018-07-20T18:10:48Z</time>
      </trkpt>
      <trkpt lat="49.5841" lon="5.6998">
        <ele>258</ele>
        <time>2018-07-20T18:10:50Z</time>
      </trkpt>
      <trkpt lat="49.58394" lon="5.69994">
        <ele>258</ele>
        <time>2018-07-20T18:10:52Z</time>
      </trkpt>
      <trkpt lat="49.58378" lon="5.70008">
        <ele>257</ele>
        <time>2018-07-20T18:10:54Z</time>
      </trkpt>
      <trkpt lat="49.58361" lon="5.70019">
        <ele>258</ele>
        <time>2018-07-20T18:10:56Z</time>
      </trkpt>
      <trkpt lat="49.58345" lon="5.70027">
        <ele>258</ele>
        <time>2018-07-20T18:10:58Z</time>
      </trkpt>
      <trkpt lat="49.58327" lon="5.70032">
        <ele>258</ele>
        <time>2018-07-20T18:11:00Z</time>
      </trkpt>
      <trkpt lat="49.58309" lon="5.70036">
        <ele>258</ele>
        <time>2018-07-20T18:11:03Z</time>
      </trkpt>
      <trkpt lat="49.58292" lon="5.70034">
        <ele>257</ele>
        <time>2018-07-20T18:11:04Z</time>
      </trkpt>
      <trkpt lat="49.58274" lon="5.70029">
        <ele>258</ele>
        <time>2018-07-20T18:11:06Z</time>
      </trkpt>
      <trkpt lat="49.58265" lon="5.7003">
        <ele>256</ele>
        <time>2018-07-20T18:11:07Z</time>
      </trkpt>
      <trkpt lat="49.58248" lon="5.70026">
        <ele>256</ele>
        <time>2018-07-20T18:11:09Z</time>
      </trkpt>
      <trkpt lat="49.58232" lon="5.70021">
        <ele>256</ele>
        <time>2018-07-20T18:11:11Z</time>
      </trkpt>
      <trkpt lat="49.58216" lon="5.70018">
        <ele>255</ele>
        <time>2018-07-20T18:11:13Z</time>
      </trkpt>
      <trkpt lat="49.58199" lon="5.70014">
        <ele>254</ele>
        <time>2018-07-20T18:11:15Z</time>
      </trkpt>
      <trkpt lat="49.58181" lon="5.70011">
        <ele>255</ele>
        <time>2018-07-20T18:11:17Z</time>
      </trkpt>
      <trkpt lat="49.58161" lon="5.70013">
        <ele>257</ele>
        <time>2018-07-20T18:11:19Z</time>
      </trkpt>
      <trkpt lat="49.58142" lon="5.7002">
        <ele>258</ele>
        <time>2018-07-20T18:11:22Z</time>
      </trkpt>
      <trkpt lat="49.58123" lon="5.70026">
        <ele>259</ele>
        <time>2018-07-20T18:11:23Z</time>
      </trkpt>
      <trkpt lat="49.58106" lon="5.70033">
        <ele>259</ele>
        <time>2018-07-20T18:11:26Z</time>
      </trkpt>
      <trkpt lat="49.58092" lon="5.7004">
        <ele>259</ele>
        <time>2018-07-20T18:11:27Z</time>
      </trkpt>
      <trkpt lat="49.58077" lon="5.7005">
        <ele>258</ele>
        <time>2018-07-20T18:11:30Z</time>
      </trkpt>
      <trkpt lat="49.58064" lon="5.70063">
        <ele>259</ele>
        <time>2018-07-20T18:11:32Z</time>
      </trkpt>
      <trkpt lat="49.5805" lon="5.70077">
        <ele>258</ele>
        <time>2018-07-20T18:11:33Z</time>
      </trkpt>
      <trkpt lat="49.58036" lon="5.70089">
        <ele>256</ele>
        <time>2018-07-20T18:11:35Z</time>
      </trkpt>
      <trkpt lat="49.58022" lon="5.701">
        <ele>256</ele>
        <time>2018-07-20T18:11:37Z</time>
      </trkpt>
      <trkpt lat="49.58009" lon="5.7011">
        <ele>255</ele>
        <time>2018-07-20T18:11:40Z</time>
      </trkpt>
      <trkpt lat="49.57995" lon="5.70118">
        <ele>255</ele>
        <time>2018-07-20T18:11:41Z</time>
      </trkpt>
      <trkpt lat="49.57982" lon="5.70126">
        <ele>256</ele>
        <time>2018-07-20T18:11:43Z</time>
      </trkpt>
      <trkpt lat="49.57967" lon="5.70126">
        <ele>256</ele>
        <time>2018-07-20T18:11:45Z</time>
      </trkpt>
      <trkpt lat="49.57951" lon="5.70124">
        <ele>257</ele>
        <time>2018-07-20T18:11:47Z</time>
      </trkpt>
      <trkpt lat="49.57937" lon="5.70126">
        <ele>258</ele>
        <time>2018-07-20T18:11:49Z</time>
      </trkpt>
      <trkpt lat="49.5792" lon="5.70128">
        <ele>256</ele>
        <time>2018-07-20T18:11:51Z</time>
      </trkpt>
      <trkpt lat="49.57904" lon="5.7013">
        <ele>256</ele>
        <time>2018-07-20T18:11:54Z</time>
      </trkpt>
      <trkpt lat="49.57887" lon="5.70136">
        <ele>257</ele>
        <time>2018-07-20T18:11:55Z</time>
      </trkpt>
      <trkpt lat="49.57872" lon="5.70145">
        <ele>257</ele>
        <time>2018-07-20T18:11:57Z</time>
      </trkpt>
      <trkpt lat="49.5786" lon="5.70153">
        <ele>257</ele>
        <time>2018-07-20T18:11:59Z</time>
      </trkpt>
      <trkpt lat="49.57853" lon="5.70163">
        <ele>259</ele>
        <time>2018-07-20T18:12:01Z</time>
      </trkpt>
      <trkpt lat="49.57852" lon="5.70178">
        <ele>257</ele>
        <time>2018-07-20T18:12:10Z</time>
      </trkpt>
      <trkpt lat="49.57854" lon="5.70192">
        <ele>255</ele>
        <time>2018-07-20T18:12:17Z</time>
      </trkpt>
      <trkpt lat="49.57855" lon="5.70206">
        <ele>255</ele>
        <time>2018-07-20T18:12:26Z</time>
      </trkpt>
      <trkpt lat="49.57858" lon="5.70219">
        <ele>259</ele>
        <time>2018-07-20T18:12:34Z</time>
      </trkpt>
      <trkpt lat="49.57861" lon="5.70233">
        <ele>263</ele>
        <time>2018-07-20T18:12:42Z</time>
      </trkpt>
      <trkpt lat="49.57865" lon="5.70248">
        <ele>264</ele>
        <time>2018-07-20T18:12:49Z</time>
      </trkpt>
      <trkpt lat="49.57868" lon="5.70262">
        <ele>267</ele>
        <time>2018-07-20T18:12:55Z</time>
      </trkpt>
      <trkpt lat="49.5787" lon="5.70278">
        <ele>266</ele>
        <time>2018-07-20T18:13:01Z</time>
      </trkpt>
      <trkpt lat="49.57872" lon="5.70293">
        <ele>268</ele>
        <time>2018-07-20T18:13:07Z</time>
      </trkpt>
      <trkpt lat="49.57874" lon="5.70308">
        <ele>273</ele>
        <time>2018-07-20T18:13:14Z</time>
      </trkpt>
      <trkpt lat="49.57877" lon="5.70321">
        <ele>275</ele>
        <time>2018-07-20T18:13:22Z</time>
      </trkpt>
      <trkpt lat="49.57878" lon="5.70337">
        <ele>279</ele>
        <time>2018-07-20T18:13:30Z</time>
      </trkpt>
      <trkpt lat="49.57879" lon="5.70353">
        <ele>281</ele>
        <time>2018-07-20T18:13:38Z</time>
      </trkpt>
      <trkpt lat="49.57881" lon="5.70367">
        <ele>286</ele>
        <time>2018-07-20T18:13:46Z</time>
      </trkpt>
      <trkpt lat="49.57884" lon="5.70382">
        <ele>288</ele>
        <time>2018-07-20T18:13:52Z</time>
      </trkpt>
      <trkpt lat="49.57886" lon="5.70406">
        <ele>293</ele>
        <time>2018-07-20T18:14:15Z</time>
      </trkpt>
      <trkpt lat="49.57888" lon="5.7042">
        <ele>290</ele>
        <time>2018-07-20T18:14:30Z</time>
      </trkpt>
      <trkpt lat="49.57892" lon="5.70433">
        <ele>290</ele>
        <time>2018-07-20T18:14:36Z</time>
      </trkpt>
      <trkpt lat="49.57893" lon="5.70448">
        <ele>292</ele>
        <time>2018-07-20T18:14:42Z</time>
      </trkpt>
      <trkpt lat="49.57896" lon="5.70461">
        <ele>290</ele>
        <time>2018-07-20T18:14:46Z</time>
      </trkpt>
      <trkpt lat="49.57899" lon="5.70474">
        <ele>290</ele>
        <time>2018-07-20T18:14:51Z</time>
      </trkpt>
      <trkpt lat="49.57904" lon="5.70488">
        <ele>287</ele>
        <time>2018-07-20T18:14:54Z</time>
      </trkpt>
      <trkpt lat="49.57909" lon="5.70501">
        <ele>288</ele>
        <time>2018-07-20T18:14:59Z</time>
      </trkpt>
      <trkpt lat="49.57917" lon="5.70511">
        <ele>291</ele>
        <time>2018-07-20T18:15:03Z</time>
      </trkpt>
      <trkpt lat="49.57927" lon="5.70511">
        <ele>293</ele>
        <time>2018-07-20T18:15:08Z</time>
      </trkpt>
      <trkpt lat="49.57937" lon="5.70509">
        <ele>294</ele>
        <time>2018-07-20T18:15:12Z</time>
      </trkpt>
      <trkpt lat="49.57947" lon="5.70505">
        <ele>295</ele>
        <time>2018-07-20T18:15:16Z</time>
      </trkpt>
      <trkpt lat="49.57958" lon="5.70503">
        <ele>299</ele>
        <time>2018-07-20T18:15:21Z</time>
      </trkpt>
      <trkpt lat="49.57967" lon="5.70501">
        <ele>296</ele>
        <time>2018-07-20T18:15:24Z</time>
      </trkpt>
      <trkpt lat="49.57979" lon="5.70498">
        <ele>297</ele>
        <time>2018-07-20T18:15:28Z</time>
      </trkpt>
      <trkpt lat="49.57988" lon="5.70494">
        <ele>298</ele>
        <time>2018-07-20T18:15:31Z</time>
      </trkpt>
      <trkpt lat="49.57998" lon="5.7049">
        <ele>299</ele>
        <time>2018-07-20T18:15:34Z</time>
      </trkpt>
      <trkpt lat="49.58007" lon="5.70486">
        <ele>300</ele>
        <time>2018-07-20T18:15:37Z</time>
      </trkpt>
      <trkpt lat="49.58016" lon="5.70481">
        <ele>301</ele>
        <time>2018-07-20T18:15:40Z</time>
      </trkpt>
      <trkpt lat="49.58025" lon="5.70477">
        <ele>300</ele>
        <time>2018-07-20T18:15:43Z</time>
      </trkpt>
      <trkpt lat="49.58034" lon="5.70473">
        <ele>301</ele>
        <time>2018-07-20T18:15:46Z</time>
      </trkpt>
      <trkpt lat="49.58044" lon="5.70468">
        <ele>302</ele>
        <time>2018-07-20T18:15:49Z</time>
      </trkpt>
      <trkpt lat="49.58053" lon="5.70466">
        <ele>303</ele>
        <time>2018-07-20T18:15:52Z</time>
      </trkpt>
      <trkpt lat="49.58063" lon="5.70462">
        <ele>307</ele>
        <time>2018-07-20T18:15:56Z</time>
      </trkpt>
      <trkpt lat="49.58073" lon="5.70459">
        <ele>305</ele>
        <time>2018-07-20T18:16:01Z</time>
      </trkpt>
      <trkpt lat="49.58082" lon="5.70458">
        <ele>308</ele>
        <time>2018-07-20T18:16:05Z</time>
      </trkpt>
      <trkpt lat="49.58093" lon="5.70457">
        <ele>309</ele>
        <time>2018-07-20T18:16:09Z</time>
      </trkpt>
      <trkpt lat="49.58102" lon="5.70456">
        <ele>307</ele>
        <time>2018-07-20T18:16:12Z</time>
      </trkpt>
      <trkpt lat="49.58115" lon="5.70455">
        <ele>308</ele>
        <time>2018-07-20T18:16:15Z</time>
      </trkpt>
      <trkpt lat="49.58137" lon="5.70451">
        <ele>306</ele>
        <time>2018-07-20T18:16:18Z</time>
      </trkpt>
      <trkpt lat="49.58147" lon="5.7045">
        <ele>307</ele>
        <time>2018-07-20T18:16:19Z</time>
      </trkpt>
      <trkpt lat="49.58159" lon="5.70448">
        <ele>305</ele>
        <time>2018-07-20T18:16:21Z</time>
      </trkpt>
      <trkpt lat="49.5817" lon="5.70446">
        <ele>304</ele>
        <time>2018-07-20T18:16:23Z</time>
      </trkpt>
      <trkpt lat="49.58181" lon="5.70444">
        <ele>303</ele>
        <time>2018-07-20T18:16:25Z</time>
      </trkpt>
      <trkpt lat="49.58194" lon="5.70441">
        <ele>304</ele>
        <time>2018-07-20T18:16:27Z</time>
      </trkpt>
      <trkpt lat="49.58207" lon="5.70438">
        <ele>304</ele>
        <time>2018-07-20T18:16:29Z</time>
      </trkpt>
      <trkpt lat="49.58219" lon="5.70435">
        <ele>304</ele>
        <time>2018-07-20T18:16:31Z</time>
      </trkpt>
      <trkpt lat="49.58231" lon="5.70433">
        <ele>304</ele>
        <time>2018-07-20T18:16:33Z</time>
      </trkpt>
      <trkpt lat="49.58243" lon="5.7043">
        <ele>304</ele>
        <time>2018-07-20T18:16:35Z</time>
      </trkpt>
      <trkpt lat="49.58254" lon="5.70428">
        <ele>304</ele>
        <time>2018-07-20T18:16:37Z</time>
      </trkpt>
      <trkpt lat="49.58265" lon="5.70427">
        <ele>305</ele>
        <time>2018-07-20T18:16:39Z</time>
      </trkpt>
      <trkpt lat="49.58277" lon="5.70429">
        <ele>305</ele>
        <time>2018-07-20T18:16:41Z</time>
      </trkpt>
      <trkpt lat="49.58288" lon="5.70431">
        <ele>304</ele>
        <time>2018-07-20T18:16:43Z</time>
      </trkpt>
      <trkpt lat="49.58298" lon="5.70434">
        <ele>304</ele>
        <time>2018-07-20T18:16:45Z</time>
      </trkpt>
      <trkpt lat="49.5831" lon="5.70435">
        <ele>304</ele>
        <time>2018-07-20T18:16:47Z</time>
      </trkpt>
      <trkpt lat="49.58321" lon="5.70437">
        <ele>305</ele>
        <time>2018-07-20T18:16:49Z</time>
      </trkpt>
      <trkpt lat="49.58331" lon="5.7044">
        <ele>305</ele>
        <time>2018-07-20T18:16:51Z</time>
      </trkpt>
      <trkpt lat="49.58342" lon="5.70443">
        <ele>305</ele>
        <time>2018-07-20T18:16:53Z</time>
      </trkpt>
      <trkpt lat="49.58352" lon="5.70448">
        <ele>305</ele>
        <time>2018-07-20T18:16:55Z</time>
      </trkpt>
      <trkpt lat="49.58363" lon="5.70452">
        <ele>305</ele>
        <time>2018-07-20T18:16:57Z</time>
      </trkpt>
      <trkpt lat="49.58373" lon="5.70456">
        <ele>306</ele>
        <time>2018-07-20T18:16:59Z</time>
      </trkpt>
      <trkpt lat="49.58383" lon="5.70459">
        <ele>306</ele>
        <time>2018-07-20T18:17:01Z</time>
      </trkpt>
      <trkpt lat="49.58393" lon="5.70463">
        <ele>306</ele>
        <time>2018-07-20T18:17:03Z</time>
      </trkpt>
      <trkpt lat="49.58403" lon="5.70467">
        <ele>306</ele>
        <time>2018-07-20T18:17:05Z</time>
      </trkpt>
      <trkpt lat="49.58413" lon="5.7047">
        <ele>307</ele>
        <time>2018-07-20T18:17:07Z</time>
      </trkpt>
      <trkpt lat="49.58424" lon="5.70474">
        <ele>307</ele>
        <time>2018-07-20T18:17:09Z</time>
      </trkpt>
      <trkpt lat="49.58434" lon="5.70477">
        <ele>306</ele>
        <time>2018-07-20T18:17:11Z</time>
      </trkpt>
      <trkpt lat="49.58444" lon="5.7048">
        <ele>307</ele>
        <time>2018-07-20T18:17:13Z</time>
      </trkpt>
      <trkpt lat="49.58453" lon="5.70482">
        <ele>306</ele>
        <time>2018-07-20T18:17:15Z</time>
      </trkpt>
      <trkpt lat="49.58462" lon="5.70486">
        <ele>306</ele>
        <time>2018-07-20T18:17:17Z</time>
      </trkpt>
      <trkpt lat="49.58472" lon="5.70489">
        <ele>306</ele>
        <time>2018-07-20T18:17:19Z</time>
      </trkpt>
      <trkpt lat="49.58482" lon="5.70492">
        <ele>307</ele>
        <time>2018-07-20T18:17:21Z</time>
      </trkpt>
      <trkpt lat="49.58491" lon="5.70495">
        <ele>307</ele>
        <time>2018-07-20T18:17:23Z</time>
      </trkpt>
      <trkpt lat="49.585" lon="5.70499">
        <ele>308</ele>
        <time>2018-07-20T18:17:25Z</time>
      </trkpt>
      <trkpt lat="49.5851" lon="5.70501">
        <ele>308</ele>
        <time>2018-07-20T18:17:27Z</time>
      </trkpt>
      <trkpt lat="49.58523" lon="5.70506">
        <ele>309</ele>
        <time>2018-07-20T18:17:30Z</time>
      </trkpt>
      <trkpt lat="49.58534" lon="5.70511">
        <ele>309</ele>
        <time>2018-07-20T18:17:33Z</time>
      </trkpt>
      <trkpt lat="49.58546" lon="5.70516">
        <ele>310</ele>
        <time>2018-07-20T18:17:36Z</time>
      </trkpt>
      <trkpt lat="49.58558" lon="5.70523">
        <ele>311</ele>
        <time>2018-07-20T18:17:39Z</time>
      </trkpt>
      <trkpt lat="49.58568" lon="5.70532">
        <ele>311</ele>
        <time>2018-07-20T18:17:42Z</time>
      </trkpt>
      <trkpt lat="49.58577" lon="5.70543">
        <ele>311</ele>
        <time>2018-07-20T18:17:45Z</time>
      </trkpt>
      <trkpt lat="49.58586" lon="5.70554">
        <ele>311</ele>
        <time>2018-07-20T18:17:48Z</time>
      </trkpt>
      <trkpt lat="49.58594" lon="5.70567">
        <ele>312</ele>
        <time>2018-07-20T18:17:51Z</time>
      </trkpt>
      <trkpt lat="49.58602" lon="5.70574">
        <ele>313</ele>
        <time>2018-07-20T18:17:53Z</time>
      </trkpt>
      <trkpt lat="49.5861" lon="5.70582">
        <ele>312</ele>
        <time>2018-07-20T18:17:55Z</time>
      </trkpt>
      <trkpt lat="49.58621" lon="5.70594">
        <ele>313</ele>
        <time>2018-07-20T18:17:58Z</time>
      </trkpt>
      <trkpt lat="49.58629" lon="5.70602">
        <ele>314</ele>
        <time>2018-07-20T18:18:00Z</time>
      </trkpt>
      <trkpt lat="49.58637" lon="5.70611">
        <ele>314</ele>
        <time>2018-07-20T18:18:02Z</time>
      </trkpt>
      <trkpt lat="49.58644" lon="5.70618">
        <ele>314</ele>
        <time>2018-07-20T18:18:04Z</time>
      </trkpt>
      <trkpt lat="49.58652" lon="5.70625">
        <ele>315</ele>
        <time>2018-07-20T18:18:06Z</time>
      </trkpt>
      <trkpt lat="49.58661" lon="5.70632">
        <ele>316</ele>
        <time>2018-07-20T18:18:09Z</time>
      </trkpt>
      <trkpt lat="49.5867" lon="5.70638">
        <ele>316</ele>
        <time>2018-07-20T18:18:11Z</time>
      </trkpt>
      <trkpt lat="49.5868" lon="5.70645">
        <ele>315</ele>
        <time>2018-07-20T18:18:12Z</time>
      </trkpt>
      <trkpt lat="49.58688" lon="5.70651">
        <ele>315</ele>
        <time>2018-07-20T18:18:14Z</time>
      </trkpt>
      <trkpt lat="49.58697" lon="5.70658">
        <ele>314</ele>
        <time>2018-07-20T18:18:16Z</time>
      </trkpt>
      <trkpt lat="49.58705" lon="5.70666">
        <ele>315</ele>
        <time>2018-07-20T18:18:18Z</time>
      </trkpt>
      <trkpt lat="49.58712" lon="5.70676">
        <ele>315</ele>
        <time>2018-07-20T18:18:20Z</time>
      </trkpt>
      <trkpt lat="49.58721" lon="5.70683">
        <ele>315</ele>
        <time>2018-07-20T18:18:23Z</time>
      </trkpt>
      <trkpt lat="49.58734" lon="5.70687">
        <ele>317</ele>
        <time>2018-07-20T18:18:26Z</time>
      </trkpt>
      <trkpt lat="49.58742" lon="5.70692">
        <ele>316</ele>
        <time>2018-07-20T18:18:27Z</time>
      </trkpt>
      <trkpt lat="49.58753" lon="5.70702">
        <ele>316</ele>
        <time>2018-07-20T18:18:30Z</time>
      </trkpt>
      <trkpt lat="49.58762" lon="5.70707">
        <ele>317</ele>
        <time>2018-07-20T18:18:32Z</time>
      </trkpt>
      <trkpt lat="49.58771" lon="5.70715">
        <ele>318</ele>
        <time>2018-07-20T18:18:36Z</time>
      </trkpt>
      <trkpt lat="49.58778" lon="5.70724">
        <ele>317</ele>
        <time>2018-07-20T18:18:39Z</time>
      </trkpt>
      <trkpt lat="49.58784" lon="5.70736">
        <ele>318</ele>
        <time>2018-07-20T18:18:42Z</time>
      </trkpt>
      <trkpt lat="49.58793" lon="5.7073">
        <ele>321</ele>
        <time>2018-07-20T18:18:51Z</time>
      </trkpt>
      <trkpt lat="49.58803" lon="5.7072">
        <ele>319</ele>
        <time>2018-07-20T18:18:56Z</time>
      </trkpt>
      <trkpt lat="49.58811" lon="5.70711">
        <ele>319</ele>
        <time>2018-07-20T18:18:59Z</time>
      </trkpt>
      <trkpt lat="49.58819" lon="5.70698">
        <ele>318</ele>
        <time>2018-07-20T18:19:03Z</time>
      </trkpt>
      <trkpt lat="49.58832" lon="5.70678">
        <ele>319</ele>
        <time>2018-07-20T18:19:06Z</time>
      </trkpt>
      <trkpt lat="49.58845" lon="5.70649">
        <ele>319</ele>
        <time>2018-07-20T18:19:08Z</time>
      </trkpt>
      <trkpt lat="49.58849" lon="5.70631">
        <ele>317</ele>
        <time>2018-07-20T18:19:10Z</time>
      </trkpt>
      <trkpt lat="49.58852" lon="5.70618">
        <ele>317</ele>
        <time>2018-07-20T18:19:12Z</time>
      </trkpt>
      <trkpt lat="49.58861" lon="5.70603">
        <ele>319</ele>
        <time>2018-07-20T18:19:13Z</time>
      </trkpt>
      <trkpt lat="49.58869" lon="5.70582">
        <ele>314</ele>
        <time>2018-07-20T18:19:15Z</time>
      </trkpt>
      <trkpt lat="49.58873" lon="5.70558">
        <ele>314</ele>
        <time>2018-07-20T18:19:17Z</time>
      </trkpt>
      <trkpt lat="49.5888" lon="5.70532">
        <ele>312</ele>
        <time>2018-07-20T18:19:19Z</time>
      </trkpt>
      <trkpt lat="49.58878" lon="5.7051">
        <ele>306</ele>
        <time>2018-07-20T18:19:47Z</time>
      </trkpt>
      <trkpt lat="49.58882" lon="5.70493">
        <ele>305</ele>
        <time>2018-07-20T18:19:48Z</time>
      </trkpt>
      <trkpt lat="49.58884" lon="5.70477">
        <ele>293</ele>
        <time>2018-07-20T18:19:53Z</time>
      </trkpt>
      <trkpt lat="49.58888" lon="5.7046">
        <ele>290</ele>
        <time>2018-07-20T18:19:58Z</time>
      </trkpt>
      <trkpt lat="49.58891" lon="5.70445">
        <ele>285</ele>
        <time>2018-07-20T18:20:02Z</time>
      </trkpt>
      <trkpt lat="49.58896" lon="5.70431">
        <ele>283</ele>
        <time>2018-07-20T18:20:06Z</time>
      </trkpt>
      <trkpt lat="49.58897" lon="5.70416">
        <ele>285</ele>
        <time>2018-07-20T18:20:10Z</time>
      </trkpt>
      <trkpt lat="49.58897" lon="5.70399">
        <ele>282</ele>
        <time>2018-07-20T18:20:15Z</time>
      </trkpt>
      <trkpt lat="49.58892" lon="5.70383">
        <ele>283</ele>
        <time>2018-07-20T18:20:19Z</time>
      </trkpt>
      <trkpt lat="49.58879" lon="5.70365">
        <ele>283</ele>
        <time>2018-07-20T18:20:21Z</time>
      </trkpt>
      <trkpt lat="49.5887" lon="5.70353">
        <ele>281</ele>
        <time>2018-07-20T18:20:23Z</time>
      </trkpt>
      <trkpt lat="49.5886" lon="5.7034">
        <ele>276</ele>
        <time>2018-07-20T18:20:25Z</time>
      </trkpt>
      <trkpt lat="49.58851" lon="5.70318">
        <ele>274</ele>
        <time>2018-07-20T18:20:28Z</time>
      </trkpt>
      <trkpt lat="49.58845" lon="5.70306">
        <ele>267</ele>
        <time>2018-07-20T18:20:32Z</time>
      </trkpt>
      <trkpt lat="49.58854" lon="5.70301">
        <ele>265</ele>
        <time>2018-07-20T18:20:41Z</time>
      </trkpt>
      <trkpt lat="49.5886" lon="5.70312">
        <ele>265</ele>
        <time>2018-07-20T18:20:46Z</time>
      </trkpt>
      <trkpt lat="49.58869" lon="5.7032">
        <ele>266</ele>
        <time>2018-07-20T18:20:50Z</time>
      </trkpt>
      <trkpt lat="49.58878" lon="5.70328">
        <ele>266</ele>
        <time>2018-07-20T18:20:53Z</time>
      </trkpt>
      <trkpt lat="49.58887" lon="5.70335">
        <ele>270</ele>
        <time>2018-07-20T18:20:57Z</time>
      </trkpt>
      <trkpt lat="49.58896" lon="5.70345">
        <ele>269</ele>
        <time>2018-07-20T18:21:02Z</time>
      </trkpt>
      <trkpt lat="49.58905" lon="5.70356">
        <ele>269</ele>
        <time>2018-07-20T18:21:05Z</time>
      </trkpt>
      <trkpt lat="49.58916" lon="5.70371">
        <ele>269</ele>
        <time>2018-07-20T18:21:08Z</time>
      </trkpt>
      <trkpt lat="49.58926" lon="5.70383">
        <ele>269</ele>
        <time>2018-07-20T18:21:10Z</time>
      </trkpt>
      <trkpt lat="49.58936" lon="5.70394">
        <ele>272</ele>
        <time>2018-07-20T18:21:13Z</time>
      </trkpt>
      <trkpt lat="49.58945" lon="5.70406">
        <ele>275</ele>
        <time>2018-07-20T18:21:16Z</time>
      </trkpt>
      <trkpt lat="49.58953" lon="5.70416">
        <ele>280</ele>
        <time>2018-07-20T18:21:19Z</time>
      </trkpt>
      <trkpt lat="49.58962" lon="5.70426">
        <ele>282</ele>
        <time>2018-07-20T18:21:23Z</time>
      </trkpt>
      <trkpt lat="49.58972" lon="5.70437">
        <ele>282</ele>
        <time>2018-07-20T18:21:25Z</time>
      </trkpt>
      <trkpt lat="49.5898" lon="5.70448">
        <ele>291</ele>
        <time>2018-07-20T18:21:30Z</time>
      </trkpt>
      <trkpt lat="49.5899" lon="5.70459">
        <ele>294</ele>
        <time>2018-07-20T18:21:34Z</time>
      </trkpt>
      <trkpt lat="49.58997" lon="5.70472">
        <ele>301</ele>
        <time>2018-07-20T18:21:36Z</time>
      </trkpt>
      <trkpt lat="49.59004" lon="5.70486">
        <ele>302</ele>
        <time>2018-07-20T18:21:40Z</time>
      </trkpt>
      <trkpt lat="49.5901" lon="5.70502">
        <ele>304</ele>
        <time>2018-07-20T18:21:42Z</time>
      </trkpt>
      <trkpt lat="49.59018" lon="5.70515">
        <ele>303</ele>
        <time>2018-07-20T18:21:45Z</time>
      </trkpt>
      <trkpt lat="49.59026" lon="5.70525">
        <ele>295</ele>
        <time>2018-07-20T18:21:49Z</time>
      </trkpt>
      <trkpt lat="49.5904" lon="5.70546">
        <ele>287</ele>
        <time>2018-07-20T18:21:51Z</time>
      </trkpt>
      <trkpt lat="49.59049" lon="5.70559">
        <ele>285</ele>
        <time>2018-07-20T18:21:52Z</time>
      </trkpt>
      <trkpt lat="49.59055" lon="5.70572">
        <ele>285</ele>
        <time>2018-07-20T18:21:55Z</time>
      </trkpt>
      <trkpt lat="49.59062" lon="5.70585">
        <ele>287</ele>
        <time>2018-07-20T18:21:57Z</time>
      </trkpt>
      <trkpt lat="49.59069" lon="5.70595">
        <ele>290</ele>
        <time>2018-07-20T18:22:01Z</time>
      </trkpt>
      <trkpt lat="49.59076" lon="5.70605">
        <ele>286</ele>
        <time>2018-07-20T18:22:04Z</time>
      </trkpt>
      <trkpt lat="49.59086" lon="5.70615">
        <ele>278</ele>
        <time>2018-07-20T18:22:08Z</time>
      </trkpt>
      <trkpt lat="49.59097" lon="5.70618">
        <ele>280</ele>
        <time>2018-07-20T18:22:11Z</time>
      </trkpt>
      <trkpt lat="49.59124" lon="5.70617">
        <ele>278</ele>
        <time>2018-07-20T18:22:12Z</time>
      </trkpt>
      <trkpt lat="49.5914" lon="5.70609">
        <ele>280</ele>
        <time>2018-07-20T18:22:14Z</time>
      </trkpt>
      <trkpt lat="49.59166" lon="5.70588">
        <ele>275</ele>
        <time>2018-07-20T18:22:17Z</time>
      </trkpt>
      <trkpt lat="49.59182" lon="5.70576">
        <ele>269</ele>
        <time>2018-07-20T18:22:18Z</time>
      </trkpt>
      <trkpt lat="49.5919" lon="5.70568">
        <ele>272</ele>
        <time>2018-07-20T18:22:21Z</time>
      </trkpt>
      <trkpt lat="49.592" lon="5.70571">
        <ele>276</ele>
        <time>2018-07-20T18:22:26Z</time>
      </trkpt>
      <trkpt lat="49.59209" lon="5.70577">
        <ele>279</ele>
        <time>2018-07-20T18:22:30Z</time>
      </trkpt>
      <trkpt lat="49.59219" lon="5.70575">
        <ele>277</ele>
        <time>2018-07-20T18:22:34Z</time>
      </trkpt>
      <trkpt lat="49.59229" lon="5.70572">
        <ele>268</ele>
        <time>2018-07-20T18:22:38Z</time>
      </trkpt>
      <trkpt lat="49.5924" lon="5.70565">
        <ele>267</ele>
        <time>2018-07-20T18:22:42Z</time>
      </trkpt>
      <trkpt lat="49.59247" lon="5.70556">
        <ele>270</ele>
        <time>2018-07-20T18:22:45Z</time>
      </trkpt>
      <trkpt lat="49.59256" lon="5.70547">
        <ele>271</ele>
        <time>2018-07-20T18:22:48Z</time>
      </trkpt>
      <trkpt lat="49.59265" lon="5.7054">
        <ele>277</ele>
        <time>2018-07-20T18:22:51Z</time>
      </trkpt>
      <trkpt lat="49.59273" lon="5.70532">
        <ele>278</ele>
        <time>2018-07-20T18:22:54Z</time>
      </trkpt>
      <trkpt lat="49.59281" lon="5.70526">
        <ele>278</ele>
        <time>2018-07-20T18:22:57Z</time>
      </trkpt>
      <trkpt lat="49.5929" lon="5.70519">
        <ele>279</ele>
        <time>2018-07-20T18:23:00Z</time>
      </trkpt>
      <trkpt lat="49.59299" lon="5.70514">
        <ele>281</ele>
        <time>2018-07-20T18:23:03Z</time>
      </trkpt>
      <trkpt lat="49.59318" lon="5.70508">
        <ele>280</ele>
        <time>2018-07-20T18:23:06Z</time>
      </trkpt>
      <trkpt lat="49.59327" lon="5.70505">
        <ele>277</ele>
        <time>2018-07-20T18:23:10Z</time>
      </trkpt>
      <trkpt lat="49.59345" lon="5.705">
        <ele>277</ele>
        <time>2018-07-20T18:23:14Z</time>
      </trkpt>
      <trkpt lat="49.59354" lon="5.70496">
        <ele>278</ele>
        <time>2018-07-20T18:23:16Z</time>
      </trkpt>
      <trkpt lat="49.59363" lon="5.70493">
        <ele>274</ele>
        <time>2018-07-20T18:23:19Z</time>
      </trkpt>
      <trkpt lat="49.59374" lon="5.70491">
        <ele>276</ele>
        <time>2018-07-20T18:23:24Z</time>
      </trkpt>
      <trkpt lat="49.59384" lon="5.70489">
        <ele>278</ele>
        <time>2018-07-20T18:23:28Z</time>
      </trkpt>
      <trkpt lat="49.59394" lon="5.70485">
        <ele>276</ele>
        <time>2018-07-20T18:23:30Z</time>
      </trkpt>
      <trkpt lat="49.59417" lon="5.70479">
        <ele>275</ele>
        <time>2018-07-20T18:23:32Z</time>
      </trkpt>
      <trkpt lat="49.59428" lon="5.70483">
        <ele>274</ele>
        <time>2018-07-20T18:23:34Z</time>
      </trkpt>
      <trkpt lat="49.59439" lon="5.70486">
        <ele>275</ele>
        <time>2018-07-20T18:23:36Z</time>
      </trkpt>
      <trkpt lat="49.59456" lon="5.7049">
        <ele>275</ele>
        <time>2018-07-20T18:23:38Z</time>
      </trkpt>
      <trkpt lat="49.59474" lon="5.70495">
        <ele>275</ele>
        <time>2018-07-20T18:23:40Z</time>
      </trkpt>
      <trkpt lat="49.59497" lon="5.70495">
        <ele>269</ele>
        <time>2018-07-20T18:23:42Z</time>
      </trkpt>
      <trkpt lat="49.59515" lon="5.70501">
        <ele>270</ele>
        <time>2018-07-20T18:23:44Z</time>
      </trkpt>
      <trkpt lat="49.59536" lon="5.70516">
        <ele>267</ele>
        <time>2018-07-20T18:23:46Z</time>
      </trkpt>
      <trkpt lat="49.5955" lon="5.70535">
        <ele>269</ele>
        <time>2018-07-20T18:23:48Z</time>
      </trkpt>
      <trkpt lat="49.59562" lon="5.70556">
        <ele>271</ele>
        <time>2018-07-20T18:23:50Z</time>
      </trkpt>
      <trkpt lat="49.59574" lon="5.70569">
        <ele>270</ele>
        <time>2018-07-20T18:23:52Z</time>
      </trkpt>
      <trkpt lat="49.59585" lon="5.70582">
        <ele>268</ele>
        <time>2018-07-20T18:23:54Z</time>
      </trkpt>
      <trkpt lat="49.59597" lon="5.70597">
        <ele>267</ele>
        <time>2018-07-20T18:23:56Z</time>
      </trkpt>
      <trkpt lat="49.59605" lon="5.70606">
        <ele>268</ele>
        <time>2018-07-20T18:23:58Z</time>
      </trkpt>
      <trkpt lat="49.59616" lon="5.70617">
        <ele>270</ele>
        <time>2018-07-20T18:24:00Z</time>
      </trkpt>
      <trkpt lat="49.59622" lon="5.70629">
        <ele>271</ele>
        <time>2018-07-20T18:24:02Z</time>
      </trkpt>
      <trkpt lat="49.59629" lon="5.7064">
        <ele>271</ele>
        <time>2018-07-20T18:24:05Z</time>
      </trkpt>
      <trkpt lat="49.59634" lon="5.70659">
        <ele>271</ele>
        <time>2018-07-20T18:24:07Z</time>
      </trkpt>
      <trkpt lat="49.5964" lon="5.7067">
        <ele>272</ele>
        <time>2018-07-20T18:24:09Z</time>
      </trkpt>
      <trkpt lat="49.59649" lon="5.70681">
        <ele>270</ele>
        <time>2018-07-20T18:24:12Z</time>
      </trkpt>
      <trkpt lat="49.59661" lon="5.70694">
        <ele>271</ele>
        <time>2018-07-20T18:24:14Z</time>
      </trkpt>
      <trkpt lat="49.5967" lon="5.70704">
        <ele>268</ele>
        <time>2018-07-20T18:24:16Z</time>
      </trkpt>
      <trkpt lat="49.59679" lon="5.70716">
        <ele>269</ele>
        <time>2018-07-20T18:24:19Z</time>
      </trkpt>
      <trkpt lat="49.59686" lon="5.70729">
        <ele>268</ele>
        <time>2018-07-20T18:24:21Z</time>
      </trkpt>
      <trkpt lat="49.59696" lon="5.70741">
        <ele>266</ele>
        <time>2018-07-20T18:24:23Z</time>
      </trkpt>
      <trkpt lat="49.59705" lon="5.70756">
        <ele>267</ele>
        <time>2018-07-20T18:24:26Z</time>
      </trkpt>
      <trkpt lat="49.59714" lon="5.70769">
        <ele>270</ele>
        <time>2018-07-20T18:24:29Z</time>
      </trkpt>
      <trkpt lat="49.5972" lon="5.70779">
        <ele>270</ele>
        <time>2018-07-20T18:24:31Z</time>
      </trkpt>
      <trkpt lat="49.59727" lon="5.70792">
        <ele>269</ele>
        <time>2018-07-20T18:24:33Z</time>
      </trkpt>
      <trkpt lat="49.59737" lon="5.70807">
        <ele>272</ele>
        <time>2018-07-20T18:24:36Z</time>
      </trkpt>
      <trkpt lat="49.59747" lon="5.70817">
        <ele>272</ele>
        <time>2018-07-20T18:24:39Z</time>
      </trkpt>
      <trkpt lat="49.59757" lon="5.70827">
        <ele>269</ele>
        <time>2018-07-20T18:24:41Z</time>
      </trkpt>
      <trkpt lat="49.59765" lon="5.70837">
        <ele>268</ele>
        <time>2018-07-20T18:24:43Z</time>
      </trkpt>
      <trkpt lat="49.59775" lon="5.70848">
        <ele>265</ele>
        <time>2018-07-20T18:24:45Z</time>
      </trkpt>
      <trkpt lat="49.59785" lon="5.70861">
        <ele>265</ele>
        <time>2018-07-20T18:24:47Z</time>
      </trkpt>
      <trkpt lat="49.59793" lon="5.70875">
        <ele>265</ele>
        <time>2018-07-20T18:24:48Z</time>
      </trkpt>
      <trkpt lat="49.59802" lon="5.70889">
        <ele>265</ele>
        <time>2018-07-20T18:24:51Z</time>
      </trkpt>
      <trkpt lat="49.59809" lon="5.709">
        <ele>266</ele>
        <time>2018-07-20T18:24:52Z</time>
      </trkpt>
      <trkpt lat="49.59817" lon="5.70913">
        <ele>268</ele>
        <time>2018-07-20T18:24:54Z</time>
      </trkpt>
      <trkpt lat="49.59824" lon="5.70924">
        <ele>268</ele>
        <time>2018-07-20T18:24:56Z</time>
      </trkpt>
      <trkpt lat="49.59835" lon="5.7094">
        <ele>270</ele>
        <time>2018-07-20T18:24:58Z</time>
      </trkpt>
      <trkpt lat="49.59846" lon="5.70954">
        <ele>270</ele>
        <time>2018-07-20T18:25:00Z</time>
      </trkpt>
      <trkpt lat="49.59854" lon="5.70966">
        <ele>272</ele>
        <time>2018-07-20T18:25:03Z</time>
      </trkpt>
      <trkpt lat="49.59864" lon="5.7098">
        <ele>275</ele>
        <time>2018-07-20T18:25:05Z</time>
      </trkpt>
      <trkpt lat="49.59872" lon="5.70993">
        <ele>275</ele>
        <time>2018-07-20T18:25:08Z</time>
      </trkpt>
      <trkpt lat="49.59878" lon="5.71003">
        <ele>275</ele>
        <time>2018-07-20T18:25:09Z</time>
      </trkpt>
      <trkpt lat="49.59881" lon="5.71021">
        <ele>275</ele>
        <time>2018-07-20T18:25:12Z</time>
      </trkpt>
      <trkpt lat="49.5989" lon="5.71037">
        <ele>275</ele>
        <time>2018-07-20T18:25:14Z</time>
      </trkpt>
      <trkpt lat="49.59897" lon="5.71052">
        <ele>274</ele>
        <time>2018-07-20T18:25:16Z</time>
      </trkpt>
      <trkpt lat="49.59906" lon="5.71067">
        <ele>271</ele>
        <time>2018-07-20T18:25:19Z</time>
      </trkpt>
      <trkpt lat="49.59918" lon="5.71082">
        <ele>271</ele>
        <time>2018-07-20T18:25:22Z</time>
      </trkpt>
      <trkpt lat="49.59927" lon="5.71086">
        <ele>271</ele>
        <time>2018-07-20T18:25:24Z</time>
      </trkpt>
      <trkpt lat="49.59936" lon="5.71101">
        <ele>272</ele>
        <time>2018-07-20T18:25:27Z</time>
      </trkpt>
      <trkpt lat="49.59941" lon="5.71118">
        <ele>273</ele>
        <time>2018-07-20T18:25:29Z</time>
      </trkpt>
      <trkpt lat="49.59947" lon="5.71132">
        <ele>272</ele>
        <time>2018-07-20T18:25:30Z</time>
      </trkpt>
      <trkpt lat="49.59953" lon="5.71146">
        <ele>273</ele>
        <time>2018-07-20T18:25:32Z</time>
      </trkpt>
      <trkpt lat="49.5996" lon="5.7116">
        <ele>274</ele>
        <time>2018-07-20T18:25:34Z</time>
      </trkpt>
      <trkpt lat="49.5997" lon="5.71167">
        <ele>273</ele>
        <time>2018-07-20T18:25:36Z</time>
      </trkpt>
      <trkpt lat="49.59976" lon="5.71185">
        <ele>274</ele>
        <time>2018-07-20T18:25:38Z</time>
      </trkpt>
      <trkpt lat="49.59983" lon="5.71197">
        <ele>275</ele>
        <time>2018-07-20T18:25:40Z</time>
      </trkpt>
      <trkpt lat="49.59989" lon="5.71209">
        <ele>275</ele>
        <time>2018-07-20T18:25:42Z</time>
      </trkpt>
      <trkpt lat="49.59999" lon="5.71221">
        <ele>273</ele>
        <time>2018-07-20T18:25:45Z</time>
      </trkpt>
      <trkpt lat="49.60007" lon="5.71231">
        <ele>273</ele>
        <time>2018-07-20T18:25:48Z</time>
      </trkpt>
      <trkpt lat="49.60012" lon="5.71242">
        <ele>273</ele>
        <time>2018-07-20T18:25:49Z</time>
      </trkpt>
      <trkpt lat="49.60019" lon="5.71251">
        <ele>272</ele>
        <time>2018-07-20T18:25:51Z</time>
      </trkpt>
      <trkpt lat="49.60028" lon="5.71262">
        <ele>275</ele>
        <time>2018-07-20T18:25:54Z</time>
      </trkpt>
      <trkpt lat="49.60041" lon="5.71274">
        <ele>280</ele>
        <time>2018-07-20T18:25:58Z</time>
      </trkpt>
      <trkpt lat="49.60052" lon="5.71278">
        <ele>280</ele>
        <time>2018-07-20T18:26:01Z</time>
      </trkpt>
      <trkpt lat="49.60061" lon="5.71284">
        <ele>276</ele>
        <time>2018-07-20T18:26:05Z</time>
      </trkpt>
      <trkpt lat="49.6008" lon="5.71282">
        <ele>277</ele>
        <time>2018-07-20T18:26:09Z</time>
      </trkpt>
      <trkpt lat="49.60094" lon="5.71278">
        <ele>277</ele>
        <time>2018-07-20T18:26:12Z</time>
      </trkpt>
      <trkpt lat="49.60108" lon="5.71276">
        <ele>275</ele>
        <time>2018-07-20T18:26:15Z</time>
      </trkpt>
      <trkpt lat="49.60116" lon="5.7127">
        <ele>276</ele>
        <time>2018-07-20T18:26:16Z</time>
      </trkpt>
      <trkpt lat="49.6013" lon="5.71266">
        <ele>277</ele>
        <time>2018-07-20T18:26:19Z</time>
      </trkpt>
      <trkpt lat="49.6014" lon="5.7126">
        <ele>280</ele>
        <time>2018-07-20T18:26:22Z</time>
      </trkpt>
      <trkpt lat="49.60149" lon="5.71252">
        <ele>279</ele>
        <time>2018-07-20T18:26:24Z</time>
      </trkpt>
      <trkpt lat="49.60158" lon="5.71247">
        <ele>281</ele>
        <time>2018-07-20T18:26:27Z</time>
      </trkpt>
      <trkpt lat="49.60169" lon="5.7124">
        <ele>281</ele>
        <time>2018-07-20T18:26:29Z</time>
      </trkpt>
      <trkpt lat="49.60176" lon="5.71233">
        <ele>283</ele>
        <time>2018-07-20T18:26:31Z</time>
      </trkpt>
      <trkpt lat="49.60188" lon="5.71232">
        <ele>282</ele>
        <time>2018-07-20T18:26:33Z</time>
      </trkpt>
      <trkpt lat="49.60207" lon="5.71235">
        <ele>274</ele>
        <time>2018-07-20T18:26:36Z</time>
      </trkpt>
      <trkpt lat="49.6022" lon="5.71231">
        <ele>271</ele>
        <time>2018-07-20T18:26:37Z</time>
      </trkpt>
      <trkpt lat="49.60229" lon="5.71224">
        <ele>271</ele>
        <time>2018-07-20T18:26:40Z</time>
      </trkpt>
      <trkpt lat="49.6024" lon="5.7122">
        <ele>271</ele>
        <time>2018-07-20T18:26:41Z</time>
      </trkpt>
      <trkpt lat="49.60249" lon="5.71218">
        <ele>270</ele>
        <time>2018-07-20T18:26:43Z</time>
      </trkpt>
      <trkpt lat="49.60258" lon="5.71215">
        <ele>272</ele>
        <time>2018-07-20T18:26:46Z</time>
      </trkpt>
      <trkpt lat="49.60269" lon="5.71216">
        <ele>272</ele>
        <time>2018-07-20T18:26:48Z</time>
      </trkpt>
      <trkpt lat="49.60278" lon="5.7121">
        <ele>275</ele>
        <time>2018-07-20T18:26:51Z</time>
      </trkpt>
      <trkpt lat="49.60287" lon="5.71207">
        <ele>279</ele>
        <time>2018-07-20T18:26:53Z</time>
      </trkpt>
      <trkpt lat="49.60296" lon="5.71205">
        <ele>283</ele>
        <time>2018-07-20T18:26:55Z</time>
      </trkpt>
      <trkpt lat="49.60308" lon="5.71203">
        <ele>284</ele>
        <time>2018-07-20T18:26:58Z</time>
      </trkpt>
      <trkpt lat="49.60319" lon="5.71202">
        <ele>282</ele>
        <time>2018-07-20T18:27:01Z</time>
      </trkpt>
      <trkpt lat="49.60331" lon="5.71201">
        <ele>279</ele>
        <time>2018-07-20T18:27:03Z</time>
      </trkpt>
      <trkpt lat="49.60345" lon="5.71195">
        <ele>279</ele>
        <time>2018-07-20T18:27:06Z</time>
      </trkpt>
      <trkpt lat="49.60358" lon="5.71197">
        <ele>278</ele>
        <time>2018-07-20T18:27:09Z</time>
      </trkpt>
      <trkpt lat="49.60368" lon="5.712">
        <ele>285</ele>
        <time>2018-07-20T18:27:15Z</time>
      </trkpt>
      <trkpt lat="49.60375" lon="5.71207">
        <ele>288</ele>
        <time>2018-07-20T18:27:19Z</time>
      </trkpt>
      <trkpt lat="49.60384" lon="5.71216">
        <ele>289</ele>
        <time>2018-07-20T18:27:23Z</time>
      </trkpt>
      <trkpt lat="49.60393" lon="5.71224">
        <ele>288</ele>
        <time>2018-07-20T18:27:27Z</time>
      </trkpt>
      <trkpt lat="49.60402" lon="5.71234">
        <ele>288</ele>
        <time>2018-07-20T18:27:31Z</time>
      </trkpt>
      <trkpt lat="49.60408" lon="5.71249">
        <ele>291</ele>
        <time>2018-07-20T18:27:35Z</time>
      </trkpt>
      <trkpt lat="49.60413" lon="5.71265">
        <ele>289</ele>
        <time>2018-07-20T18:27:40Z</time>
      </trkpt>
      <trkpt lat="49.60417" lon="5.71281">
        <ele>288</ele>
        <time>2018-07-20T18:27:44Z</time>
      </trkpt>
      <trkpt lat="49.60421" lon="5.71295">
        <ele>294</ele>
        <time>2018-07-20T18:27:50Z</time>
      </trkpt>
      <trkpt lat="49.60426" lon="5.71308">
        <ele>300</ele>
        <time>2018-07-20T18:27:55Z</time>
      </trkpt>
      <trkpt lat="49.60432" lon="5.7132">
        <ele>301</ele>
        <time>2018-07-20T18:27:59Z</time>
      </trkpt>
      <trkpt lat="49.60438" lon="5.71332">
        <ele>303</ele>
        <time>2018-07-20T18:28:03Z</time>
      </trkpt>
      <trkpt lat="49.60445" lon="5.71345">
        <ele>307</ele>
        <time>2018-07-20T18:28:08Z</time>
      </trkpt>
      <trkpt lat="49.60451" lon="5.71356">
        <ele>313</ele>
        <time>2018-07-20T18:28:14Z</time>
      </trkpt>
      <trkpt lat="49.60457" lon="5.71367">
        <ele>315</ele>
        <time>2018-07-20T18:28:19Z</time>
      </trkpt>
      <trkpt lat="49.60463" lon="5.71378">
        <ele>311</ele>
        <time>2018-07-20T18:28:25Z</time>
      </trkpt>
      <trkpt lat="49.60469" lon="5.7139">
        <ele>308</ele>
        <time>2018-07-20T18:28:31Z</time>
      </trkpt>
      <trkpt lat="49.60476" lon="5.714">
        <ele>306</ele>
        <time>2018-07-20T18:28:37Z</time>
      </trkpt>
      <trkpt lat="49.60485" lon="5.71408">
        <ele>303</ele>
        <time>2018-07-20T18:28:43Z</time>
      </trkpt>
      <trkpt lat="49.60494" lon="5.71413">
        <ele>302</ele>
        <time>2018-07-20T18:28:50Z</time>
      </trkpt>
      <trkpt lat="49.60502" lon="5.71421">
        <ele>310</ele>
        <time>2018-07-20T18:28:56Z</time>
      </trkpt>
      <trkpt lat="49.6051" lon="5.7143">
        <ele>309</ele>
        <time>2018-07-20T18:29:01Z</time>
      </trkpt>
      <trkpt lat="49.6052" lon="5.71436">
        <ele>310</ele>
        <time>2018-07-20T18:29:06Z</time>
      </trkpt>
      <trkpt lat="49.60531" lon="5.71439">
        <ele>314</ele>
        <time>2018-07-20T18:29:12Z</time>
      </trkpt>
      <trkpt lat="49.6054" lon="5.71438">
        <ele>321</ele>
        <time>2018-07-20T18:29:19Z</time>
      </trkpt>
      <trkpt lat="49.6055" lon="5.71438">
        <ele>316</ele>
        <time>2018-07-20T18:29:23Z</time>
      </trkpt>
      <trkpt lat="49.60561" lon="5.71438">
        <ele>320</ele>
        <time>2018-07-20T18:29:28Z</time>
      </trkpt>
      <trkpt lat="49.60558" lon="5.71453">
        <ele>320</ele>
        <time>2018-07-20T18:29:36Z</time>
      </trkpt>
      <trkpt lat="49.60551" lon="5.71462">
        <ele>320</ele>
        <time>2018-07-20T18:29:39Z</time>
      </trkpt>
      <trkpt lat="49.60542" lon="5.71469">
        <ele>321</ele>
        <time>2018-07-20T18:29:42Z</time>
      </trkpt>
      <trkpt lat="49.6053" lon="5.71473">
        <ele>324</ele>
        <time>2018-07-20T18:29:45Z</time>
      </trkpt>
      <trkpt lat="49.60517" lon="5.71476">
        <ele>320</ele>
        <time>2018-07-20T18:29:48Z</time>
      </trkpt>
      <trkpt lat="49.60505" lon="5.71482">
        <ele>318</ele>
        <time>2018-07-20T18:29:51Z</time>
      </trkpt>
      <trkpt lat="49.60493" lon="5.7149">
        <ele>317</ele>
        <time>2018-07-20T18:29:52Z</time>
      </trkpt>
      <trkpt lat="49.60483" lon="5.71497">
        <ele>320</ele>
        <time>2018-07-20T18:29:56Z</time>
      </trkpt>
      <trkpt lat="49.60473" lon="5.71502">
        <ele>322</ele>
        <time>2018-07-20T18:29:59Z</time>
      </trkpt>
      <trkpt lat="49.60463" lon="5.71504">
        <ele>324</ele>
        <time>2018-07-20T18:30:02Z</time>
      </trkpt>
      <trkpt lat="49.60451" lon="5.71506">
        <ele>324</ele>
        <time>2018-07-20T18:30:05Z</time>
      </trkpt>
      <trkpt lat="49.6044" lon="5.71508">
        <ele>326</ele>
        <time>2018-07-20T18:30:08Z</time>
      </trkpt>
      <trkpt lat="49.6043" lon="5.71508">
        <ele>328</ele>
        <time>2018-07-20T18:30:11Z</time>
      </trkpt>
      <trkpt lat="49.60421" lon="5.71505">
        <ele>331</ele>
        <time>2018-07-20T18:30:16Z</time>
      </trkpt>
      <trkpt lat="49.60411" lon="5.71501">
        <ele>332</ele>
        <time>2018-07-20T18:30:23Z</time>
      </trkpt>
      <trkpt lat="49.60401" lon="5.71498">
        <ele>336</ele>
        <time>2018-07-20T18:30:29Z</time>
      </trkpt>
      <trkpt lat="49.60392" lon="5.71496">
        <ele>333</ele>
        <time>2018-07-20T18:30:34Z</time>
      </trkpt>
      <trkpt lat="49.60382" lon="5.71491">
        <ele>332</ele>
        <time>2018-07-20T18:30:39Z</time>
      </trkpt>
      <trkpt lat="49.60372" lon="5.71489">
        <ele>332</ele>
        <time>2018-07-20T18:30:44Z</time>
      </trkpt>
      <trkpt lat="49.60362" lon="5.71486">
        <ele>332</ele>
        <time>2018-07-20T18:30:49Z</time>
      </trkpt>
      <trkpt lat="49.60353" lon="5.71485">
        <ele>332</ele>
        <time>2018-07-20T18:30:54Z</time>
      </trkpt>
      <trkpt lat="49.60343" lon="5.7148">
        <ele>334</ele>
        <time>2018-07-20T18:31:00Z</time>
      </trkpt>
      <trkpt lat="49.60333" lon="5.71474">
        <ele>336</ele>
        <time>2018-07-20T18:31:06Z</time>
      </trkpt>
      <trkpt lat="49.60324" lon="5.71468">
        <ele>335</ele>
        <time>2018-07-20T18:31:13Z</time>
      </trkpt>
      <trkpt lat="49.60314" lon="5.71467">
        <ele>334</ele>
        <time>2018-07-20T18:31:20Z</time>
      </trkpt>
      <trkpt lat="49.60303" lon="5.71466">
        <ele>333</ele>
        <time>2018-07-20T18:31:25Z</time>
      </trkpt>
      <trkpt lat="49.60292" lon="5.71467">
        <ele>338</ele>
        <time>2018-07-20T18:31:29Z</time>
      </trkpt>
      <trkpt lat="49.60283" lon="5.71472">
        <ele>335</ele>
        <time>2018-07-20T18:31:33Z</time>
      </trkpt>
      <trkpt lat="49.60277" lon="5.71485">
        <ele>334</ele>
        <time>2018-07-20T18:31:39Z</time>
      </trkpt>
      <trkpt lat="49.60273" lon="5.71499">
        <ele>332</ele>
        <time>2018-07-20T18:31:42Z</time>
      </trkpt>
      <trkpt lat="49.60268" lon="5.71513">
        <ele>335</ele>
        <time>2018-07-20T18:31:46Z</time>
      </trkpt>
      <trkpt lat="49.60263" lon="5.71528">
        <ele>337</ele>
        <time>2018-07-20T18:31:51Z</time>
      </trkpt>
      <trkpt lat="49.60259" lon="5.71542">
        <ele>336</ele>
        <time>2018-07-20T18:31:53Z</time>
      </trkpt>
      <trkpt lat="49.60254" lon="5.71557">
        <ele>335</ele>
        <time>2018-07-20T18:31:56Z</time>
      </trkpt>
      <trkpt lat="49.60245" lon="5.71581">
        <ele>336</ele>
        <time>2018-07-20T18:31:59Z</time>
      </trkpt>
      <trkpt lat="49.60232" lon="5.71594">
        <ele>334</ele>
        <time>2018-07-20T18:32:01Z</time>
      </trkpt>
      <trkpt lat="49.60217" lon="5.71608">
        <ele>335</ele>
        <time>2018-07-20T18:32:03Z</time>
      </trkpt>
      <trkpt lat="49.60209" lon="5.71624">
        <ele>333</ele>
        <time>2018-07-20T18:32:04Z</time>
      </trkpt>
      <trkpt lat="49.60201" lon="5.71636">
        <ele>332</ele>
        <time>2018-07-20T18:32:07Z</time>
      </trkpt>
      <trkpt lat="49.60194" lon="5.71646">
        <ele>331</ele>
        <time>2018-07-20T18:32:08Z</time>
      </trkpt>
      <trkpt lat="49.60185" lon="5.71652">
        <ele>331</ele>
        <time>2018-07-20T18:32:11Z</time>
      </trkpt>
      <trkpt lat="49.60173" lon="5.71653">
        <ele>330</ele>
        <time>2018-07-20T18:32:12Z</time>
      </trkpt>
      <trkpt lat="49.60161" lon="5.71663">
        <ele>326</ele>
        <time>2018-07-20T18:32:15Z</time>
      </trkpt>
      <trkpt lat="49.60147" lon="5.71665">
        <ele>326</ele>
        <time>2018-07-20T18:32:16Z</time>
      </trkpt>
      <trkpt lat="49.60131" lon="5.71677">
        <ele>325</ele>
        <time>2018-07-20T18:32:18Z</time>
      </trkpt>
      <trkpt lat="49.60117" lon="5.71689">
        <ele>326</ele>
        <time>2018-07-20T18:32:21Z</time>
      </trkpt>
      <trkpt lat="49.60103" lon="5.71706">
        <ele>326</ele>
        <time>2018-07-20T18:32:23Z</time>
      </trkpt>
      <trkpt lat="49.60093" lon="5.71716">
        <ele>326</ele>
        <time>2018-07-20T18:32:25Z</time>
      </trkpt>
      <trkpt lat="49.60085" lon="5.71724">
        <ele>324</ele>
        <time>2018-07-20T18:32:26Z</time>
      </trkpt>
      <trkpt lat="49.60081" lon="5.71736">
        <ele>321</ele>
        <time>2018-07-20T18:32:32Z</time>
      </trkpt>
      <trkpt lat="49.60091" lon="5.71743">
        <ele>321</ele>
        <time>2018-07-20T18:33:09Z</time>
      </trkpt>
      <trkpt lat="49.60102" lon="5.71746">
        <ele>321</ele>
        <time>2018-07-20T18:33:12Z</time>
      </trkpt>
      <trkpt lat="49.60114" lon="5.71749">
        <ele>321</ele>
        <time>2018-07-20T18:33:15Z</time>
      </trkpt>
      <trkpt lat="49.60126" lon="5.71754">
        <ele>321</ele>
        <time>2018-07-20T18:33:18Z</time>
      </trkpt>
      <trkpt lat="49.60137" lon="5.71758">
        <ele>321</ele>
        <time>2018-07-20T18:33:21Z</time>
      </trkpt>
      <trkpt lat="49.60147" lon="5.71764">
        <ele>320</ele>
        <time>2018-07-20T18:33:24Z</time>
      </trkpt>
      <trkpt lat="49.60158" lon="5.7177">
        <ele>320</ele>
        <time>2018-07-20T18:33:27Z</time>
      </trkpt>
      <trkpt lat="49.60168" lon="5.71774">
        <ele>320</ele>
        <time>2018-07-20T18:33:30Z</time>
      </trkpt>
      <trkpt lat="49.60179" lon="5.71778">
        <ele>321</ele>
        <time>2018-07-20T18:33:34Z</time>
      </trkpt>
      <trkpt lat="49.6019" lon="5.71782">
        <ele>321</ele>
        <time>2018-07-20T18:33:38Z</time>
      </trkpt>
      <trkpt lat="49.60201" lon="5.71785">
        <ele>321</ele>
        <time>2018-07-20T18:33:41Z</time>
      </trkpt>
      <trkpt lat="49.60212" lon="5.71787">
        <ele>321</ele>
        <time>2018-07-20T18:33:45Z</time>
      </trkpt>
      <trkpt lat="49.60222" lon="5.71788">
        <ele>323</ele>
        <time>2018-07-20T18:33:49Z</time>
      </trkpt>
      <trkpt lat="49.60232" lon="5.71789">
        <ele>323</ele>
        <time>2018-07-20T18:33:53Z</time>
      </trkpt>
      <trkpt lat="49.60242" lon="5.71791">
        <ele>324</ele>
        <time>2018-07-20T18:33:58Z</time>
      </trkpt>
      <trkpt lat="49.60252" lon="5.71793">
        <ele>325</ele>
        <time>2018-07-20T18:34:01Z</time>
      </trkpt>
      <trkpt lat="49.60261" lon="5.71794">
        <ele>325</ele>
        <time>2018-07-20T18:34:06Z</time>
      </trkpt>
      <trkpt lat="49.60271" lon="5.71795">
        <ele>326</ele>
        <time>2018-07-20T18:34:10Z</time>
      </trkpt>
      <trkpt lat="49.6028" lon="5.71798">
        <ele>328</ele>
        <time>2018-07-20T18:34:13Z</time>
      </trkpt>
      <trkpt lat="49.6029" lon="5.71799">
        <ele>332</ele>
        <time>2018-07-20T18:34:18Z</time>
      </trkpt>
      <trkpt lat="49.603" lon="5.718">
        <ele>331</ele>
        <time>2018-07-20T18:34:21Z</time>
      </trkpt>
      <trkpt lat="49.6031" lon="5.71799">
        <ele>332</ele>
        <time>2018-07-20T18:34:24Z</time>
      </trkpt>
      <trkpt lat="49.60319" lon="5.71798">
        <ele>334</ele>
        <time>2018-07-20T18:34:27Z</time>
      </trkpt>
      <trkpt lat="49.60329" lon="5.71799">
        <ele>333</ele>
        <time>2018-07-20T18:34:30Z</time>
      </trkpt>
      <trkpt lat="49.60339" lon="5.718">
        <ele>333</ele>
        <time>2018-07-20T18:34:33Z</time>
      </trkpt>
      <trkpt lat="49.60348" lon="5.71802">
        <ele>332</ele>
        <time>2018-07-20T18:34:36Z</time>
      </trkpt>
      <trkpt lat="49.60358" lon="5.71803">
        <ele>335</ele>
        <time>2018-07-20T18:34:39Z</time>
      </trkpt>
      <trkpt lat="49.60367" lon="5.71805">
        <ele>334</ele>
        <time>2018-07-20T18:34:42Z</time>
      </trkpt>
      <trkpt lat="49.60377" lon="5.7181">
        <ele>338</ele>
        <time>2018-07-20T18:34:46Z</time>
      </trkpt>
      <trkpt lat="49.60387" lon="5.71817">
        <ele>339</ele>
        <time>2018-07-20T18:34:50Z</time>
      </trkpt>
      <trkpt lat="49.60398" lon="5.71823">
        <ele>338</ele>
        <time>2018-07-20T18:34:54Z</time>
      </trkpt>
      <trkpt lat="49.60408" lon="5.71828">
        <ele>337</ele>
        <time>2018-07-20T18:34:59Z</time>
      </trkpt>
      <trkpt lat="49.60417" lon="5.71834">
        <ele>335</ele>
        <time>2018-07-20T18:35:02Z</time>
      </trkpt>
      <trkpt lat="49.60427" lon="5.71837">
        <ele>335</ele>
        <time>2018-07-20T18:35:06Z</time>
      </trkpt>
      <trkpt lat="49.60437" lon="5.71842">
        <ele>337</ele>
        <time>2018-07-20T18:35:10Z</time>
      </trkpt>
      <trkpt lat="49.60447" lon="5.71845">
        <ele>339</ele>
        <time>2018-07-20T18:35:14Z</time>
      </trkpt>
      <trkpt lat="49.60457" lon="5.71849">
        <ele>339</ele>
        <time>2018-07-20T18:35:18Z</time>
      </trkpt>
      <trkpt lat="49.60468" lon="5.71853">
        <ele>341</ele>
        <time>2018-07-20T18:35:23Z</time>
      </trkpt>
      <trkpt lat="49.60477" lon="5.71858">
        <ele>344</ele>
        <time>2018-07-20T18:35:28Z</time>
      </trkpt>
      <trkpt lat="49.60487" lon="5.71863">
        <ele>346</ele>
        <time>2018-07-20T18:35:33Z</time>
      </trkpt>
      <trkpt lat="49.60497" lon="5.71865">
        <ele>347</ele>
        <time>2018-07-20T18:35:38Z</time>
      </trkpt>
      <trkpt lat="49.60506" lon="5.71864">
        <ele>350</ele>
        <time>2018-07-20T18:35:43Z</time>
      </trkpt>
      <trkpt lat="49.60515" lon="5.71863">
        <ele>352</ele>
        <time>2018-07-20T18:35:48Z</time>
      </trkpt>
      <trkpt lat="49.60525" lon="5.71868">
        <ele>353</ele>
        <time>2018-07-20T18:35:54Z</time>
      </trkpt>
      <trkpt lat="49.6053" lon="5.7188">
        <ele>359</ele>
        <time>2018-07-20T18:36:01Z</time>
      </trkpt>
      <trkpt lat="49.60535" lon="5.71894">
        <ele>359</ele>
        <time>2018-07-20T18:36:05Z</time>
      </trkpt>
      <trkpt lat="49.60539" lon="5.71911">
        <ele>359</ele>
        <time>2018-07-20T18:36:09Z</time>
      </trkpt>
      <trkpt lat="49.60547" lon="5.71936">
        <ele>358</ele>
        <time>2018-07-20T18:36:11Z</time>
      </trkpt>
      <trkpt lat="49.60552" lon="5.71951">
        <ele>357</ele>
        <time>2018-07-20T18:36:13Z</time>
      </trkpt>
      <trkpt lat="49.60557" lon="5.7197">
        <ele>355</ele>
        <time>2018-07-20T18:36:16Z</time>
      </trkpt>
      <trkpt lat="49.60562" lon="5.71989">
        <ele>351</ele>
        <time>2018-07-20T18:36:17Z</time>
      </trkpt>
      <trkpt lat="49.60562" lon="5.72012">
        <ele>351</ele>
        <time>2018-07-20T18:36:19Z</time>
      </trkpt>
      <trkpt lat="49.6056" lon="5.72031">
        <ele>353</ele>
        <time>2018-07-20T18:36:21Z</time>
      </trkpt>
      <trkpt lat="49.60557" lon="5.72051">
        <ele>355</ele>
        <time>2018-07-20T18:36:23Z</time>
      </trkpt>
      <trkpt lat="49.6056" lon="5.72068">
        <ele>352</ele>
        <time>2018-07-20T18:36:25Z</time>
      </trkpt>
      <trkpt lat="49.60561" lon="5.72085">
        <ele>353</ele>
        <time>2018-07-20T18:36:29Z</time>
      </trkpt>
      <trkpt lat="49.60564" lon="5.72098">
        <ele>350</ele>
        <time>2018-07-20T18:36:33Z</time>
      </trkpt>
      <trkpt lat="49.60573" lon="5.72108">
        <ele>350</ele>
        <time>2018-07-20T18:36:39Z</time>
      </trkpt>
      <trkpt lat="49.60581" lon="5.7212">
        <ele>355</ele>
        <time>2018-07-20T18:36:43Z</time>
      </trkpt>
      <trkpt lat="49.60589" lon="5.72131">
        <ele>356</ele>
        <time>2018-07-20T18:36:48Z</time>
      </trkpt>
      <trkpt lat="49.60596" lon="5.72143">
        <ele>357</ele>
        <time>2018-07-20T18:36:51Z</time>
      </trkpt>
      <trkpt lat="49.60603" lon="5.72156">
        <ele>354</ele>
        <time>2018-07-20T18:36:55Z</time>
      </trkpt>
      <trkpt lat="49.6061" lon="5.72171">
        <ele>359</ele>
        <time>2018-07-20T18:36:59Z</time>
      </trkpt>
      <trkpt lat="49.60618" lon="5.72197">
        <ele>360</ele>
        <time>2018-07-20T18:37:02Z</time>
      </trkpt>
      <trkpt lat="49.60625" lon="5.72208">
        <ele>357</ele>
        <time>2018-07-20T18:37:07Z</time>
      </trkpt>
      <trkpt lat="49.60632" lon="5.72218">
        <ele>358</ele>
        <time>2018-07-20T18:37:10Z</time>
      </trkpt>
      <trkpt lat="49.60639" lon="5.72233">
        <ele>361</ele>
        <time>2018-07-20T18:37:15Z</time>
      </trkpt>
      <trkpt lat="49.60644" lon="5.72246">
        <ele>358</ele>
        <time>2018-07-20T18:37:17Z</time>
      </trkpt>
      <trkpt lat="49.6065" lon="5.7226">
        <ele>358</ele>
        <time>2018-07-20T18:37:21Z</time>
      </trkpt>
      <trkpt lat="49.60655" lon="5.72273">
        <ele>357</ele>
        <time>2018-07-20T18:37:23Z</time>
      </trkpt>
      <trkpt lat="49.60664" lon="5.72298">
        <ele>352</ele>
        <time>2018-07-20T18:37:27Z</time>
      </trkpt>
      <trkpt lat="49.60669" lon="5.72316">
        <ele>350</ele>
        <time>2018-07-20T18:37:28Z</time>
      </trkpt>
      <trkpt lat="49.60677" lon="5.72335">
        <ele>349</ele>
        <time>2018-07-20T18:37:31Z</time>
      </trkpt>
      <trkpt lat="49.60685" lon="5.72354">
        <ele>348</ele>
        <time>2018-07-20T18:37:34Z</time>
      </trkpt>
      <trkpt lat="49.60689" lon="5.7237">
        <ele>350</ele>
        <time>2018-07-20T18:37:36Z</time>
      </trkpt>
      <trkpt lat="49.60696" lon="5.72389">
        <ele>351</ele>
        <time>2018-07-20T18:37:39Z</time>
      </trkpt>
      <trkpt lat="49.60702" lon="5.72407">
        <ele>351</ele>
        <time>2018-07-20T18:37:41Z</time>
      </trkpt>
      <trkpt lat="49.60706" lon="5.72423">
        <ele>353</ele>
        <time>2018-07-20T18:37:42Z</time>
      </trkpt>
      <trkpt lat="49.60712" lon="5.7244">
        <ele>353</ele>
        <time>2018-07-20T18:37:44Z</time>
      </trkpt>
      <trkpt lat="49.60718" lon="5.72453">
        <ele>353</ele>
        <time>2018-07-20T18:37:46Z</time>
      </trkpt>
      <trkpt lat="49.60724" lon="5.72463">
        <ele>353</ele>
        <time>2018-07-20T18:37:48Z</time>
      </trkpt>
      <trkpt lat="49.60733" lon="5.72471">
        <ele>353</ele>
        <time>2018-07-20T18:37:50Z</time>
      </trkpt>
      <trkpt lat="49.60741" lon="5.72479">
        <ele>356</ele>
        <time>2018-07-20T18:37:53Z</time>
      </trkpt>
      <trkpt lat="49.60749" lon="5.72486">
        <ele>360</ele>
        <time>2018-07-20T18:37:57Z</time>
      </trkpt>
      <trkpt lat="49.60759" lon="5.72494">
        <ele>356</ele>
        <time>2018-07-20T18:38:01Z</time>
      </trkpt>
      <trkpt lat="49.60767" lon="5.725">
        <ele>359</ele>
        <time>2018-07-20T18:38:05Z</time>
      </trkpt>
      <trkpt lat="49.60776" lon="5.72505">
        <ele>361</ele>
        <time>2018-07-20T18:38:09Z</time>
      </trkpt>
      <trkpt lat="49.60786" lon="5.72512">
        <ele>356</ele>
        <time>2018-07-20T18:38:13Z</time>
      </trkpt>
      <trkpt lat="49.60796" lon="5.72518">
        <ele>358</ele>
        <time>2018-07-20T18:38:18Z</time>
      </trkpt>
      <trkpt lat="49.60806" lon="5.72527">
        <ele>358</ele>
        <time>2018-07-20T18:38:21Z</time>
      </trkpt>
      <trkpt lat="49.60818" lon="5.7253">
        <ele>357</ele>
        <time>2018-07-20T18:38:25Z</time>
      </trkpt>
      <trkpt lat="49.60827" lon="5.72533">
        <ele>356</ele>
        <time>2018-07-20T18:38:28Z</time>
      </trkpt>
      <trkpt lat="49.60836" lon="5.72538">
        <ele>363</ele>
        <time>2018-07-20T18:38:31Z</time>
      </trkpt>
      <trkpt lat="49.60846" lon="5.72544">
        <ele>373</ele>
        <time>2018-07-20T18:38:35Z</time>
      </trkpt>
      <trkpt lat="49.60854" lon="5.72552">
        <ele>376</ele>
        <time>2018-07-20T18:38:39Z</time>
      </trkpt>
      <trkpt lat="49.60863" lon="5.72559">
        <ele>377</ele>
        <time>2018-07-20T18:38:44Z</time>
      </trkpt>
      <trkpt lat="49.60873" lon="5.72568">
        <ele>376</ele>
        <time>2018-07-20T18:38:47Z</time>
      </trkpt>
      <trkpt lat="49.6088" lon="5.7258">
        <ele>373</ele>
        <time>2018-07-20T18:38:50Z</time>
      </trkpt>
      <trkpt lat="49.60889" lon="5.72591">
        <ele>372</ele>
        <time>2018-07-20T18:38:54Z</time>
      </trkpt>
      <trkpt lat="49.60899" lon="5.72601">
        <ele>372</ele>
        <time>2018-07-20T18:38:56Z</time>
      </trkpt>
      <trkpt lat="49.60909" lon="5.72611">
        <ele>368</ele>
        <time>2018-07-20T18:39:00Z</time>
      </trkpt>
      <trkpt lat="49.6092" lon="5.7262">
        <ele>366</ele>
        <time>2018-07-20T18:39:02Z</time>
      </trkpt>
      <trkpt lat="49.6093" lon="5.72627">
        <ele>368</ele>
        <time>2018-07-20T18:39:05Z</time>
      </trkpt>
      <trkpt lat="49.60939" lon="5.72633">
        <ele>370</ele>
        <time>2018-07-20T18:39:10Z</time>
      </trkpt>
      <trkpt lat="49.6095" lon="5.72636">
        <ele>370</ele>
        <time>2018-07-20T18:39:17Z</time>
      </trkpt>
      <trkpt lat="49.60958" lon="5.72643">
        <ele>372</ele>
        <time>2018-07-20T18:39:23Z</time>
      </trkpt>
      <trkpt lat="49.60967" lon="5.72649">
        <ele>372</ele>
        <time>2018-07-20T18:39:29Z</time>
      </trkpt>
      <trkpt lat="49.60977" lon="5.72651">
        <ele>372</ele>
        <time>2018-07-20T18:39:32Z</time>
      </trkpt>
      <trkpt lat="49.60987" lon="5.7265">
        <ele>372</ele>
        <time>2018-07-20T18:39:36Z</time>
      </trkpt>
      <trkpt lat="49.60998" lon="5.7265">
        <ele>375</ele>
        <time>2018-07-20T18:39:40Z</time>
      </trkpt>
      <trkpt lat="49.61008" lon="5.72651">
        <ele>379</ele>
        <time>2018-07-20T18:39:45Z</time>
      </trkpt>
      <trkpt lat="49.61019" lon="5.72657">
        <ele>378</ele>
        <time>2018-07-20T18:39:49Z</time>
      </trkpt>
      <trkpt lat="49.61029" lon="5.72666">
        <ele>377</ele>
        <time>2018-07-20T18:39:52Z</time>
      </trkpt>
      <trkpt lat="49.61042" lon="5.7268">
        <ele>376</ele>
        <time>2018-07-20T18:39:55Z</time>
      </trkpt>
      <trkpt lat="49.6105" lon="5.72688">
        <ele>376</ele>
        <time>2018-07-20T18:39:57Z</time>
      </trkpt>
      <trkpt lat="49.61061" lon="5.72704">
        <ele>373</ele>
        <time>2018-07-20T18:39:58Z</time>
      </trkpt>
      <trkpt lat="49.61068" lon="5.72725">
        <ele>374</ele>
        <time>2018-07-20T18:40:00Z</time>
      </trkpt>
      <trkpt lat="49.61075" lon="5.72743">
        <ele>373</ele>
        <time>2018-07-20T18:40:02Z</time>
      </trkpt>
      <trkpt lat="49.61081" lon="5.72766">
        <ele>373</ele>
        <time>2018-07-20T18:40:04Z</time>
      </trkpt>
      <trkpt lat="49.61088" lon="5.72783">
        <ele>373</ele>
        <time>2018-07-20T18:40:07Z</time>
      </trkpt>
      <trkpt lat="49.61096" lon="5.72801">
        <ele>372</ele>
        <time>2018-07-20T18:40:09Z</time>
      </trkpt>
      <trkpt lat="49.61103" lon="5.72812">
        <ele>370</ele>
        <time>2018-07-20T18:40:11Z</time>
      </trkpt>
      <trkpt lat="49.61112" lon="5.72824">
        <ele>371</ele>
        <time>2018-07-20T18:40:12Z</time>
      </trkpt>
      <trkpt lat="49.61117" lon="5.72838">
        <ele>371</ele>
        <time>2018-07-20T18:40:14Z</time>
      </trkpt>
      <trkpt lat="49.61117" lon="5.72853">
        <ele>370</ele>
        <time>2018-07-20T18:40:16Z</time>
      </trkpt>
      <trkpt lat="49.61122" lon="5.72865">
        <ele>370</ele>
        <time>2018-07-20T18:40:20Z</time>
      </trkpt>
      <trkpt lat="49.61132" lon="5.72871">
        <ele>373</ele>
        <time>2018-07-20T18:40:25Z</time>
      </trkpt>
      <trkpt lat="49.61146" lon="5.72861">
        <ele>372</ele>
        <time>2018-07-20T18:40:28Z</time>
      </trkpt>
      <trkpt lat="49.61156" lon="5.72852">
        <ele>370</ele>
        <time>2018-07-20T18:40:30Z</time>
      </trkpt>
      <trkpt lat="49.61164" lon="5.72844">
        <ele>369</ele>
        <time>2018-07-20T18:40:32Z</time>
      </trkpt>
      <trkpt lat="49.61173" lon="5.72836">
        <ele>370</ele>
        <time>2018-07-20T18:40:35Z</time>
      </trkpt>
      <trkpt lat="49.61182" lon="5.72827">
        <ele>370</ele>
        <time>2018-07-20T18:40:36Z</time>
      </trkpt>
      <trkpt lat="49.61192" lon="5.72819">
        <ele>370</ele>
        <time>2018-07-20T18:40:38Z</time>
      </trkpt>
      <trkpt lat="49.61202" lon="5.7281">
        <ele>369</ele>
        <time>2018-07-20T18:40:40Z</time>
      </trkpt>
      <trkpt lat="49.61212" lon="5.72804">
        <ele>371</ele>
        <time>2018-07-20T18:40:42Z</time>
      </trkpt>
      <trkpt lat="49.61221" lon="5.72797">
        <ele>373</ele>
        <time>2018-07-20T18:40:44Z</time>
      </trkpt>
      <trkpt lat="49.61232" lon="5.7279">
        <ele>372</ele>
        <time>2018-07-20T18:40:46Z</time>
      </trkpt>
      <trkpt lat="49.61242" lon="5.72791">
        <ele>371</ele>
        <time>2018-07-20T18:40:50Z</time>
      </trkpt>
      <trkpt lat="49.61239" lon="5.72804">
        <ele>369</ele>
        <time>2018-07-20T18:40:55Z</time>
      </trkpt>
      <trkpt lat="49.61235" lon="5.72819">
        <ele>373</ele>
        <time>2018-07-20T18:40:58Z</time>
      </trkpt>
      <trkpt lat="49.61232" lon="5.72843">
        <ele>374</ele>
        <time>2018-07-20T18:41:00Z</time>
      </trkpt>
      <trkpt lat="49.61229" lon="5.72857">
        <ele>375</ele>
        <time>2018-07-20T18:41:04Z</time>
      </trkpt>
      <trkpt lat="49.61227" lon="5.72875">
        <ele>374</ele>
        <time>2018-07-20T18:41:08Z</time>
      </trkpt>
      <trkpt lat="49.61222" lon="5.72897">
        <ele>376</ele>
        <time>2018-07-20T18:41:10Z</time>
      </trkpt>
      <trkpt lat="49.61216" lon="5.72912">
        <ele>377</ele>
        <time>2018-07-20T18:41:12Z</time>
      </trkpt>
      <trkpt lat="49.61205" lon="5.72926">
        <ele>375</ele>
        <time>2018-07-20T18:41:14Z</time>
      </trkpt>
      <trkpt lat="49.61213" lon="5.72938">
        <ele>368</ele>
        <time>2018-07-20T18:41:19Z</time>
      </trkpt>
      <trkpt lat="49.6123" lon="5.72949">
        <ele>367</ele>
        <time>2018-07-20T18:41:22Z</time>
      </trkpt>
      <trkpt lat="49.61241" lon="5.72954">
        <ele>367</ele>
        <time>2018-07-20T18:41:25Z</time>
      </trkpt>
      <trkpt lat="49.61253" lon="5.72959">
        <ele>366</ele>
        <time>2018-07-20T18:41:28Z</time>
      </trkpt>
      <trkpt lat="49.61265" lon="5.72961">
        <ele>366</ele>
        <time>2018-07-20T18:41:31Z</time>
      </trkpt>
      <trkpt lat="49.61274" lon="5.72963">
        <ele>368</ele>
        <time>2018-07-20T18:41:35Z</time>
      </trkpt>
      <trkpt lat="49.61284" lon="5.72966">
        <ele>369</ele>
        <time>2018-07-20T18:41:38Z</time>
      </trkpt>
      <trkpt lat="49.61297" lon="5.7297">
        <ele>372</ele>
        <time>2018-07-20T18:41:41Z</time>
      </trkpt>
      <trkpt lat="49.61309" lon="5.72972">
        <ele>374</ele>
        <time>2018-07-20T18:41:44Z</time>
      </trkpt>
      <trkpt lat="49.6132" lon="5.72977">
        <ele>376</ele>
        <time>2018-07-20T18:41:47Z</time>
      </trkpt>
      <trkpt lat="49.61331" lon="5.72982">
        <ele>377</ele>
        <time>2018-07-20T18:41:50Z</time>
      </trkpt>
      <trkpt lat="49.61342" lon="5.72985">
        <ele>375</ele>
        <time>2018-07-20T18:41:53Z</time>
      </trkpt>
      <trkpt lat="49.61353" lon="5.72988">
        <ele>375</ele>
        <time>2018-07-20T18:41:56Z</time>
      </trkpt>
      <trkpt lat="49.61362" lon="5.72991">
        <ele>372</ele>
        <time>2018-07-20T18:41:59Z</time>
      </trkpt>
      <trkpt lat="49.61373" lon="5.72996">
        <ele>373</ele>
        <time>2018-07-20T18:42:03Z</time>
      </trkpt>
      <trkpt lat="49.61388" lon="5.73005">
        <ele>376</ele>
        <time>2018-07-20T18:42:05Z</time>
      </trkpt>
      <trkpt lat="49.61401" lon="5.73008">
        <ele>374</ele>
        <time>2018-07-20T18:42:08Z</time>
      </trkpt>
      <trkpt lat="49.61411" lon="5.73009">
        <ele>371</ele>
        <time>2018-07-20T18:42:10Z</time>
      </trkpt>
      <trkpt lat="49.61424" lon="5.73012">
        <ele>373</ele>
        <time>2018-07-20T18:42:13Z</time>
      </trkpt>
      <trkpt lat="49.61436" lon="5.73014">
        <ele>372</ele>
        <time>2018-07-20T18:42:16Z</time>
      </trkpt>
      <trkpt lat="49.61449" lon="5.73016">
        <ele>375</ele>
        <time>2018-07-20T18:42:19Z</time>
      </trkpt>
      <trkpt lat="49.6146" lon="5.73018">
        <ele>374</ele>
        <time>2018-07-20T18:42:22Z</time>
      </trkpt>
      <trkpt lat="49.61472" lon="5.73022">
        <ele>373</ele>
        <time>2018-07-20T18:42:25Z</time>
      </trkpt>
      <trkpt lat="49.61483" lon="5.73026">
        <ele>376</ele>
        <time>2018-07-20T18:42:27Z</time>
      </trkpt>
      <trkpt lat="49.61492" lon="5.73029">
        <ele>376</ele>
        <time>2018-07-20T18:42:29Z</time>
      </trkpt>
      <trkpt lat="49.61501" lon="5.73037">
        <ele>375</ele>
        <time>2018-07-20T18:42:31Z</time>
      </trkpt>
      <trkpt lat="49.61511" lon="5.73047">
        <ele>375</ele>
        <time>2018-07-20T18:42:33Z</time>
      </trkpt>
      <trkpt lat="49.61522" lon="5.73064">
        <ele>376</ele>
        <time>2018-07-20T18:42:35Z</time>
      </trkpt>
      <trkpt lat="49.6153" lon="5.73076">
        <ele>376</ele>
        <time>2018-07-20T18:42:37Z</time>
      </trkpt>
      <trkpt lat="49.6154" lon="5.73088">
        <ele>377</ele>
        <time>2018-07-20T18:42:39Z</time>
      </trkpt>
      <trkpt lat="49.61549" lon="5.73103">
        <ele>377</ele>
        <time>2018-07-20T18:42:41Z</time>
      </trkpt>
      <trkpt lat="49.61559" lon="5.73115">
        <ele>378</ele>
        <time>2018-07-20T18:42:43Z</time>
      </trkpt>
      <trkpt lat="49.61568" lon="5.73123">
        <ele>378</ele>
        <time>2018-07-20T18:42:45Z</time>
      </trkpt>
      <trkpt lat="49.61577" lon="5.7313">
        <ele>377</ele>
        <time>2018-07-20T18:42:47Z</time>
      </trkpt>
      <trkpt lat="49.61587" lon="5.73138">
        <ele>378</ele>
        <time>2018-07-20T18:42:50Z</time>
      </trkpt>
      <trkpt lat="49.61603" lon="5.73146">
        <ele>378</ele>
        <time>2018-07-20T18:42:55Z</time>
      </trkpt>
      <trkpt lat="49.61615" lon="5.73153">
        <ele>378</ele>
        <time>2018-07-20T18:42:58Z</time>
      </trkpt>
      <trkpt lat="49.61626" lon="5.73158">
        <ele>378</ele>
        <time>2018-07-20T18:43:01Z</time>
      </trkpt>
      <trkpt lat="49.61636" lon="5.73167">
        <ele>379</ele>
        <time>2018-07-20T18:43:04Z</time>
      </trkpt>
      <trkpt lat="49.61646" lon="5.73175">
        <ele>381</ele>
        <time>2018-07-20T18:43:07Z</time>
      </trkpt>
      <trkpt lat="49.61655" lon="5.73186">
        <ele>382</ele>
        <time>2018-07-20T18:43:10Z</time>
      </trkpt>
      <trkpt lat="49.61664" lon="5.73195">
        <ele>382</ele>
        <time>2018-07-20T18:43:13Z</time>
      </trkpt>
      <trkpt lat="49.61678" lon="5.73212">
        <ele>383</ele>
        <time>2018-07-20T18:43:19Z</time>
      </trkpt>
      <trkpt lat="49.61686" lon="5.73224">
        <ele>384</ele>
        <time>2018-07-20T18:43:22Z</time>
      </trkpt>
      <trkpt lat="49.61693" lon="5.73236">
        <ele>382</ele>
        <time>2018-07-20T18:43:26Z</time>
      </trkpt>
      <trkpt lat="49.617" lon="5.73248">
        <ele>385</ele>
        <time>2018-07-20T18:43:29Z</time>
      </trkpt>
      <trkpt lat="49.61708" lon="5.73259">
        <ele>385</ele>
        <time>2018-07-20T18:43:32Z</time>
      </trkpt>
      <trkpt lat="49.61716" lon="5.73273">
        <ele>382</ele>
        <time>2018-07-20T18:43:35Z</time>
      </trkpt>
      <trkpt lat="49.61724" lon="5.73287">
        <ele>381</ele>
        <time>2018-07-20T18:43:38Z</time>
      </trkpt>
      <trkpt lat="49.61734" lon="5.73309">
        <ele>380</ele>
        <time>2018-07-20T18:43:41Z</time>
      </trkpt>
      <trkpt lat="49.6174" lon="5.73327">
        <ele>381</ele>
        <time>2018-07-20T18:43:44Z</time>
      </trkpt>
      <trkpt lat="49.61749" lon="5.73342">
        <ele>379</ele>
        <time>2018-07-20T18:43:46Z</time>
      </trkpt>
      <trkpt lat="49.61753" lon="5.73358">
        <ele>381</ele>
        <time>2018-07-20T18:43:48Z</time>
      </trkpt>
      <trkpt lat="49.61763" lon="5.73377">
        <ele>382</ele>
        <time>2018-07-20T18:43:51Z</time>
      </trkpt>
      <trkpt lat="49.61771" lon="5.73389">
        <ele>382</ele>
        <time>2018-07-20T18:43:53Z</time>
      </trkpt>
      <trkpt lat="49.61777" lon="5.73402">
        <ele>382</ele>
        <time>2018-07-20T18:43:55Z</time>
      </trkpt>
      <trkpt lat="49.61786" lon="5.73416">
        <ele>380</ele>
        <time>2018-07-20T18:43:57Z</time>
      </trkpt>
      <trkpt lat="49.61791" lon="5.73429">
        <ele>380</ele>
        <time>2018-07-20T18:43:59Z</time>
      </trkpt>
      <trkpt lat="49.61798" lon="5.73441">
        <ele>380</ele>
        <time>2018-07-20T18:44:01Z</time>
      </trkpt>
      <trkpt lat="49.61805" lon="5.73455">
        <ele>383</ele>
        <time>2018-07-20T18:44:03Z</time>
      </trkpt>
      <trkpt lat="49.61811" lon="5.7347">
        <ele>386</ele>
        <time>2018-07-20T18:44:05Z</time>
      </trkpt>
      <trkpt lat="49.61815" lon="5.73486">
        <ele>385</ele>
        <time>2018-07-20T18:44:07Z</time>
      </trkpt>
      <trkpt lat="49.61818" lon="5.735">
        <ele>386</ele>
        <time>2018-07-20T18:44:09Z</time>
      </trkpt>
      <trkpt lat="49.61822" lon="5.73513">
        <ele>388</ele>
        <time>2018-07-20T18:44:12Z</time>
      </trkpt>
      <trkpt lat="49.61827" lon="5.73528">
        <ele>390</ele>
        <time>2018-07-20T18:44:13Z</time>
      </trkpt>
      <trkpt lat="49.61831" lon="5.73545">
        <ele>390</ele>
        <time>2018-07-20T18:44:15Z</time>
      </trkpt>
      <trkpt lat="49.61835" lon="5.73564">
        <ele>390</ele>
        <time>2018-07-20T18:44:17Z</time>
      </trkpt>
      <trkpt lat="49.6184" lon="5.73581">
        <ele>391</ele>
        <time>2018-07-20T18:44:19Z</time>
      </trkpt>
      <trkpt lat="49.61844" lon="5.73597">
        <ele>390</ele>
        <time>2018-07-20T18:44:21Z</time>
      </trkpt>
      <trkpt lat="49.6185" lon="5.73612">
        <ele>390</ele>
        <time>2018-07-20T18:44:23Z</time>
      </trkpt>
      <trkpt lat="49.61857" lon="5.73626">
        <ele>390</ele>
        <time>2018-07-20T18:44:26Z</time>
      </trkpt>
      <trkpt lat="49.61864" lon="5.7364">
        <ele>389</ele>
        <time>2018-07-20T18:44:27Z</time>
      </trkpt>
      <trkpt lat="49.6187" lon="5.73655">
        <ele>388</ele>
        <time>2018-07-20T18:44:29Z</time>
      </trkpt>
      <trkpt lat="49.61876" lon="5.73668">
        <ele>388</ele>
        <time>2018-07-20T18:44:31Z</time>
      </trkpt>
      <trkpt lat="49.61883" lon="5.73682">
        <ele>387</ele>
        <time>2018-07-20T18:44:34Z</time>
      </trkpt>
      <trkpt lat="49.61891" lon="5.73696">
        <ele>388</ele>
        <time>2018-07-20T18:44:36Z</time>
      </trkpt>
      <trkpt lat="49.619" lon="5.7371">
        <ele>388</ele>
        <time>2018-07-20T18:44:38Z</time>
      </trkpt>
      <trkpt lat="49.61908" lon="5.73724">
        <ele>388</ele>
        <time>2018-07-20T18:44:39Z</time>
      </trkpt>
      <trkpt lat="49.61916" lon="5.73738">
        <ele>387</ele>
        <time>2018-07-20T18:44:42Z</time>
      </trkpt>
      <trkpt lat="49.61923" lon="5.73754">
        <ele>387</ele>
        <time>2018-07-20T18:44:43Z</time>
      </trkpt>
      <trkpt lat="49.61931" lon="5.73766">
        <ele>387</ele>
        <time>2018-07-20T18:44:46Z</time>
      </trkpt>
      <trkpt lat="49.61937" lon="5.73783">
        <ele>389</ele>
        <time>2018-07-20T18:44:48Z</time>
      </trkpt>
      <trkpt lat="49.61942" lon="5.73797">
        <ele>389</ele>
        <time>2018-07-20T18:44:49Z</time>
      </trkpt>
      <trkpt lat="49.61949" lon="5.73813">
        <ele>388</ele>
        <time>2018-07-20T18:44:52Z</time>
      </trkpt>
      <trkpt lat="49.61957" lon="5.7384">
        <ele>388</ele>
        <time>2018-07-20T18:44:54Z</time>
      </trkpt>
      <trkpt lat="49.61964" lon="5.7386">
        <ele>386</ele>
        <time>2018-07-20T18:44:56Z</time>
      </trkpt>
      <trkpt lat="49.6197" lon="5.73879">
        <ele>386</ele>
        <time>2018-07-20T18:44:58Z</time>
      </trkpt>
      <trkpt lat="49.61976" lon="5.73899">
        <ele>385</ele>
        <time>2018-07-20T18:45:00Z</time>
      </trkpt>
      <trkpt lat="49.61982" lon="5.73919">
        <ele>385</ele>
        <time>2018-07-20T18:45:02Z</time>
      </trkpt>
      <trkpt lat="49.61989" lon="5.7394">
        <ele>384</ele>
        <time>2018-07-20T18:45:04Z</time>
      </trkpt>
      <trkpt lat="49.61994" lon="5.7396">
        <ele>384</ele>
        <time>2018-07-20T18:45:06Z</time>
      </trkpt>
      <trkpt lat="49.61999" lon="5.7398">
        <ele>385</ele>
        <time>2018-07-20T18:45:08Z</time>
      </trkpt>
      <trkpt lat="49.62004" lon="5.74001">
        <ele>384</ele>
        <time>2018-07-20T18:45:10Z</time>
      </trkpt>
      <trkpt lat="49.62009" lon="5.74023">
        <ele>384</ele>
        <time>2018-07-20T18:45:12Z</time>
      </trkpt>
      <trkpt lat="49.62016" lon="5.74045">
        <ele>382</ele>
        <time>2018-07-20T18:45:14Z</time>
      </trkpt>
      <trkpt lat="49.62021" lon="5.74065">
        <ele>382</ele>
        <time>2018-07-20T18:45:16Z</time>
      </trkpt>
      <trkpt lat="49.62028" lon="5.74087">
        <ele>382</ele>
        <time>2018-07-20T18:45:18Z</time>
      </trkpt>
      <trkpt lat="49.62034" lon="5.7411">
        <ele>382</ele>
        <time>2018-07-20T18:45:20Z</time>
      </trkpt>
      <trkpt lat="49.62041" lon="5.74132">
        <ele>380</ele>
        <time>2018-07-20T18:45:22Z</time>
      </trkpt>
      <trkpt lat="49.62047" lon="5.74152">
        <ele>380</ele>
        <time>2018-07-20T18:45:24Z</time>
      </trkpt>
      <trkpt lat="49.62051" lon="5.74171">
        <ele>380</ele>
        <time>2018-07-20T18:45:26Z</time>
      </trkpt>
      <trkpt lat="49.62057" lon="5.74191">
        <ele>380</ele>
        <time>2018-07-20T18:45:28Z</time>
      </trkpt>
      <trkpt lat="49.62062" lon="5.74213">
        <ele>380</ele>
        <time>2018-07-20T18:45:31Z</time>
      </trkpt>
      <trkpt lat="49.62067" lon="5.74233">
        <ele>380</ele>
        <time>2018-07-20T18:45:32Z</time>
      </trkpt>
      <trkpt lat="49.62073" lon="5.74254">
        <ele>381</ele>
        <time>2018-07-20T18:45:34Z</time>
      </trkpt>
      <trkpt lat="49.62078" lon="5.74273">
        <ele>380</ele>
        <time>2018-07-20T18:45:36Z</time>
      </trkpt>
      <trkpt lat="49.62083" lon="5.74295">
        <ele>382</ele>
        <time>2018-07-20T18:45:38Z</time>
      </trkpt>
      <trkpt lat="49.62089" lon="5.74312">
        <ele>380</ele>
        <time>2018-07-20T18:45:41Z</time>
      </trkpt>
      <trkpt lat="49.62094" lon="5.74332">
        <ele>381</ele>
        <time>2018-07-20T18:45:42Z</time>
      </trkpt>
      <trkpt lat="49.621" lon="5.74351">
        <ele>381</ele>
        <time>2018-07-20T18:45:45Z</time>
      </trkpt>
      <trkpt lat="49.62106" lon="5.74374">
        <ele>381</ele>
        <time>2018-07-20T18:45:46Z</time>
      </trkpt>
      <trkpt lat="49.62112" lon="5.74394">
        <ele>380</ele>
        <time>2018-07-20T18:45:48Z</time>
      </trkpt>
      <trkpt lat="49.62117" lon="5.74415">
        <ele>381</ele>
        <time>2018-07-20T18:45:51Z</time>
      </trkpt>
      <trkpt lat="49.62122" lon="5.74435">
        <ele>381</ele>
        <time>2018-07-20T18:45:52Z</time>
      </trkpt>
      <trkpt lat="49.62128" lon="5.74453">
        <ele>380</ele>
        <time>2018-07-20T18:45:54Z</time>
      </trkpt>
      <trkpt lat="49.62133" lon="5.74474">
        <ele>380</ele>
        <time>2018-07-20T18:45:56Z</time>
      </trkpt>
      <trkpt lat="49.62137" lon="5.74494">
        <ele>380</ele>
        <time>2018-07-20T18:45:59Z</time>
      </trkpt>
      <trkpt lat="49.62142" lon="5.74513">
        <ele>381</ele>
        <time>2018-07-20T18:46:01Z</time>
      </trkpt>
      <trkpt lat="49.62147" lon="5.74532">
        <ele>381</ele>
        <time>2018-07-20T18:46:02Z</time>
      </trkpt>
      <trkpt lat="49.62151" lon="5.74551">
        <ele>382</ele>
        <time>2018-07-20T18:46:04Z</time>
      </trkpt>
      <trkpt lat="49.62157" lon="5.7457">
        <ele>380</ele>
        <time>2018-07-20T18:46:06Z</time>
      </trkpt>
      <trkpt lat="49.62161" lon="5.74588">
        <ele>382</ele>
        <time>2018-07-20T18:46:08Z</time>
      </trkpt>
      <trkpt lat="49.62165" lon="5.74607">
        <ele>382</ele>
        <time>2018-07-20T18:46:10Z</time>
      </trkpt>
      <trkpt lat="49.62169" lon="5.74627">
        <ele>383</ele>
        <time>2018-07-20T18:46:12Z</time>
      </trkpt>
      <trkpt lat="49.62172" lon="5.74645">
        <ele>382</ele>
        <time>2018-07-20T18:46:14Z</time>
      </trkpt>
      <trkpt lat="49.62175" lon="5.74662">
        <ele>383</ele>
        <time>2018-07-20T18:46:16Z</time>
      </trkpt>
      <trkpt lat="49.62177" lon="5.74679">
        <ele>385</ele>
        <time>2018-07-20T18:46:18Z</time>
      </trkpt>
      <trkpt lat="49.62181" lon="5.74694">
        <ele>385</ele>
        <time>2018-07-20T18:46:20Z</time>
      </trkpt>
      <trkpt lat="49.62183" lon="5.74713">
        <ele>385</ele>
        <time>2018-07-20T18:46:22Z</time>
      </trkpt>
      <trkpt lat="49.62185" lon="5.74731">
        <ele>386</ele>
        <time>2018-07-20T18:46:24Z</time>
      </trkpt>
      <trkpt lat="49.62188" lon="5.74751">
        <ele>385</ele>
        <time>2018-07-20T18:46:26Z</time>
      </trkpt>
      <trkpt lat="49.62191" lon="5.74772">
        <ele>385</ele>
        <time>2018-07-20T18:46:28Z</time>
      </trkpt>
      <trkpt lat="49.62195" lon="5.74793">
        <ele>386</ele>
        <time>2018-07-20T18:46:31Z</time>
      </trkpt>
      <trkpt lat="49.622" lon="5.74815">
        <ele>385</ele>
        <time>2018-07-20T18:46:32Z</time>
      </trkpt>
      <trkpt lat="49.62204" lon="5.74837">
        <ele>384</ele>
        <time>2018-07-20T18:46:34Z</time>
      </trkpt>
      <trkpt lat="49.62207" lon="5.74859">
        <ele>383</ele>
        <time>2018-07-20T18:46:36Z</time>
      </trkpt>
      <trkpt lat="49.62209" lon="5.74882">
        <ele>383</ele>
        <time>2018-07-20T18:46:38Z</time>
      </trkpt>
      <trkpt lat="49.6221" lon="5.74905">
        <ele>382</ele>
        <time>2018-07-20T18:46:40Z</time>
      </trkpt>
      <trkpt lat="49.62211" lon="5.74929">
        <ele>383</ele>
        <time>2018-07-20T18:46:42Z</time>
      </trkpt>
      <trkpt lat="49.62213" lon="5.74953">
        <ele>382</ele>
        <time>2018-07-20T18:46:44Z</time>
      </trkpt>
      <trkpt lat="49.62213" lon="5.74976">
        <ele>382</ele>
        <time>2018-07-20T18:46:47Z</time>
      </trkpt>
      <trkpt lat="49.62212" lon="5.75001">
        <ele>382</ele>
        <time>2018-07-20T18:46:48Z</time>
      </trkpt>
      <trkpt lat="49.6221" lon="5.75025">
        <ele>382</ele>
        <time>2018-07-20T18:46:50Z</time>
      </trkpt>
      <trkpt lat="49.62207" lon="5.75051">
        <ele>381</ele>
        <time>2018-07-20T18:46:52Z</time>
      </trkpt>
      <trkpt lat="49.62204" lon="5.75079">
        <ele>379</ele>
        <time>2018-07-20T18:46:54Z</time>
      </trkpt>
      <trkpt lat="49.62201" lon="5.75107">
        <ele>380</ele>
        <time>2018-07-20T18:46:56Z</time>
      </trkpt>
      <trkpt lat="49.62205" lon="5.75134">
        <ele>379</ele>
        <time>2018-07-20T18:46:59Z</time>
      </trkpt>
      <trkpt lat="49.62208" lon="5.75158">
        <ele>380</ele>
        <time>2018-07-20T18:47:00Z</time>
      </trkpt>
      <trkpt lat="49.62211" lon="5.75173">
        <ele>379</ele>
        <time>2018-07-20T18:47:02Z</time>
      </trkpt>
      <trkpt lat="49.62213" lon="5.75188">
        <ele>379</ele>
        <time>2018-07-20T18:47:07Z</time>
      </trkpt>
      <trkpt lat="49.62219" lon="5.75202">
        <ele>381</ele>
        <time>2018-07-20T18:47:32Z</time>
      </trkpt>
      <trkpt lat="49.62225" lon="5.75217">
        <ele>380</ele>
        <time>2018-07-20T18:47:35Z</time>
      </trkpt>
      <trkpt lat="49.62233" lon="5.75235">
        <ele>380</ele>
        <time>2018-07-20T18:47:37Z</time>
      </trkpt>
      <trkpt lat="49.62239" lon="5.75249">
        <ele>380</ele>
        <time>2018-07-20T18:47:40Z</time>
      </trkpt>
      <trkpt lat="49.62248" lon="5.75263">
        <ele>380</ele>
        <time>2018-07-20T18:47:43Z</time>
      </trkpt>
      <trkpt lat="49.62257" lon="5.75274">
        <ele>379</ele>
        <time>2018-07-20T18:47:45Z</time>
      </trkpt>
      <trkpt lat="49.62265" lon="5.75282">
        <ele>378</ele>
        <time>2018-07-20T18:47:48Z</time>
      </trkpt>
      <trkpt lat="49.62274" lon="5.75294">
        <ele>379</ele>
        <time>2018-07-20T18:47:49Z</time>
      </trkpt>
      <trkpt lat="49.62284" lon="5.75304">
        <ele>379</ele>
        <time>2018-07-20T18:47:52Z</time>
      </trkpt>
      <trkpt lat="49.62292" lon="5.75317">
        <ele>380</ele>
        <time>2018-07-20T18:47:53Z</time>
      </trkpt>
      <trkpt lat="49.62302" lon="5.75328">
        <ele>378</ele>
        <time>2018-07-20T18:47:56Z</time>
      </trkpt>
      <trkpt lat="49.62312" lon="5.75337">
        <ele>378</ele>
        <time>2018-07-20T18:47:58Z</time>
      </trkpt>
      <trkpt lat="49.6232" lon="5.75349">
        <ele>378</ele>
        <time>2018-07-20T18:47:59Z</time>
      </trkpt>
      <trkpt lat="49.62326" lon="5.75359">
        <ele>379</ele>
        <time>2018-07-20T18:48:01Z</time>
      </trkpt>
      <trkpt lat="49.62334" lon="5.75371">
        <ele>379</ele>
        <time>2018-07-20T18:48:03Z</time>
      </trkpt>
      <trkpt lat="49.62341" lon="5.75383">
        <ele>381</ele>
        <time>2018-07-20T18:48:05Z</time>
      </trkpt>
      <trkpt lat="49.62348" lon="5.75398">
        <ele>381</ele>
        <time>2018-07-20T18:48:07Z</time>
      </trkpt>
      <trkpt lat="49.62354" lon="5.75412">
        <ele>382</ele>
        <time>2018-07-20T18:48:09Z</time>
      </trkpt>
      <trkpt lat="49.62361" lon="5.75427">
        <ele>382</ele>
        <time>2018-07-20T18:48:12Z</time>
      </trkpt>
      <trkpt lat="49.62368" lon="5.75441">
        <ele>382</ele>
        <time>2018-07-20T18:48:14Z</time>
      </trkpt>
      <trkpt lat="49.62378" lon="5.75457">
        <ele>381</ele>
        <time>2018-07-20T18:48:16Z</time>
      </trkpt>
      <trkpt lat="49.62392" lon="5.75477">
        <ele>380</ele>
        <time>2018-07-20T18:48:20Z</time>
      </trkpt>
      <trkpt lat="49.62402" lon="5.75485">
        <ele>379</ele>
        <time>2018-07-20T18:48:21Z</time>
      </trkpt>
      <trkpt lat="49.62412" lon="5.75497">
        <ele>377</ele>
        <time>2018-07-20T18:48:23Z</time>
      </trkpt>
      <trkpt lat="49.62422" lon="5.75507">
        <ele>377</ele>
        <time>2018-07-20T18:48:25Z</time>
      </trkpt>
      <trkpt lat="49.62432" lon="5.75519">
        <ele>377</ele>
        <time>2018-07-20T18:48:27Z</time>
      </trkpt>
      <trkpt lat="49.62442" lon="5.75534">
        <ele>377</ele>
        <time>2018-07-20T18:48:29Z</time>
      </trkpt>
      <trkpt lat="49.62453" lon="5.7555">
        <ele>377</ele>
        <time>2018-07-20T18:48:31Z</time>
      </trkpt>
      <trkpt lat="49.62463" lon="5.75562">
        <ele>376</ele>
        <time>2018-07-20T18:48:34Z</time>
      </trkpt>
      <trkpt lat="49.62471" lon="5.75579">
        <ele>377</ele>
        <time>2018-07-20T18:48:36Z</time>
      </trkpt>
      <trkpt lat="49.6248" lon="5.75594">
        <ele>379</ele>
        <time>2018-07-20T18:48:38Z</time>
      </trkpt>
      <trkpt lat="49.6249" lon="5.75608">
        <ele>378</ele>
        <time>2018-07-20T18:48:40Z</time>
      </trkpt>
      <trkpt lat="49.62499" lon="5.75624">
        <ele>378</ele>
        <time>2018-07-20T18:48:41Z</time>
      </trkpt>
      <trkpt lat="49.62508" lon="5.75637">
        <ele>376</ele>
        <time>2018-07-20T18:48:43Z</time>
      </trkpt>
      <trkpt lat="49.62514" lon="5.75648">
        <ele>375</ele>
        <time>2018-07-20T18:48:46Z</time>
      </trkpt>
      <trkpt lat="49.62522" lon="5.75659">
        <ele>374</ele>
        <time>2018-07-20T18:48:48Z</time>
      </trkpt>
      <trkpt lat="49.62529" lon="5.75673">
        <ele>373</ele>
        <time>2018-07-20T18:48:49Z</time>
      </trkpt>
      <trkpt lat="49.62537" lon="5.75686">
        <ele>372</ele>
        <time>2018-07-20T18:48:51Z</time>
      </trkpt>
      <trkpt lat="49.62544" lon="5.75699">
        <ele>372</ele>
        <time>2018-07-20T18:48:54Z</time>
      </trkpt>
      <trkpt lat="49.62549" lon="5.75714">
        <ele>372</ele>
        <time>2018-07-20T18:48:55Z</time>
      </trkpt>
      <trkpt lat="49.62554" lon="5.7573">
        <ele>373</ele>
        <time>2018-07-20T18:48:58Z</time>
      </trkpt>
      <trkpt lat="49.62559" lon="5.75746">
        <ele>374</ele>
        <time>2018-07-20T18:49:00Z</time>
      </trkpt>
      <trkpt lat="49.62564" lon="5.75759">
        <ele>375</ele>
        <time>2018-07-20T18:49:01Z</time>
      </trkpt>
      <trkpt lat="49.62572" lon="5.75774">
        <ele>373</ele>
        <time>2018-07-20T18:49:03Z</time>
      </trkpt>
      <trkpt lat="49.62578" lon="5.75785">
        <ele>374</ele>
        <time>2018-07-20T18:49:05Z</time>
      </trkpt>
      <trkpt lat="49.62586" lon="5.75797">
        <ele>373</ele>
        <time>2018-07-20T18:49:07Z</time>
      </trkpt>
      <trkpt lat="49.62593" lon="5.75811">
        <ele>373</ele>
        <time>2018-07-20T18:49:09Z</time>
      </trkpt>
      <trkpt lat="49.62601" lon="5.75825">
        <ele>373</ele>
        <time>2018-07-20T18:49:12Z</time>
      </trkpt>
      <trkpt lat="49.62609" lon="5.75836">
        <ele>373</ele>
        <time>2018-07-20T18:49:13Z</time>
      </trkpt>
      <trkpt lat="49.62616" lon="5.7585">
        <ele>373</ele>
        <time>2018-07-20T18:49:15Z</time>
      </trkpt>
      <trkpt lat="49.62624" lon="5.75863">
        <ele>374</ele>
        <time>2018-07-20T18:49:17Z</time>
      </trkpt>
      <trkpt lat="49.62632" lon="5.75876">
        <ele>373</ele>
        <time>2018-07-20T18:49:19Z</time>
      </trkpt>
      <trkpt lat="49.6264" lon="5.75889">
        <ele>374</ele>
        <time>2018-07-20T18:49:21Z</time>
      </trkpt>
      <trkpt lat="49.62647" lon="5.759">
        <ele>373</ele>
        <time>2018-07-20T18:49:23Z</time>
      </trkpt>
      <trkpt lat="49.62654" lon="5.75912">
        <ele>373</ele>
        <time>2018-07-20T18:49:25Z</time>
      </trkpt>
      <trkpt lat="49.62662" lon="5.75922">
        <ele>373</ele>
        <time>2018-07-20T18:49:27Z</time>
      </trkpt>
      <trkpt lat="49.62669" lon="5.75934">
        <ele>373</ele>
        <time>2018-07-20T18:49:29Z</time>
      </trkpt>
      <trkpt lat="49.62677" lon="5.75947">
        <ele>373</ele>
        <time>2018-07-20T18:49:32Z</time>
      </trkpt>
      <trkpt lat="49.62685" lon="5.75957">
        <ele>374</ele>
        <time>2018-07-20T18:49:33Z</time>
      </trkpt>
      <trkpt lat="49.62693" lon="5.7597">
        <ele>374</ele>
        <time>2018-07-20T18:49:35Z</time>
      </trkpt>
      <trkpt lat="49.62699" lon="5.75982">
        <ele>373</ele>
        <time>2018-07-20T18:49:37Z</time>
      </trkpt>
      <trkpt lat="49.62706" lon="5.75995">
        <ele>374</ele>
        <time>2018-07-20T18:49:39Z</time>
      </trkpt>
      <trkpt lat="49.62714" lon="5.7601">
        <ele>374</ele>
        <time>2018-07-20T18:49:42Z</time>
      </trkpt>
      <trkpt lat="49.62719" lon="5.76024">
        <ele>374</ele>
        <time>2018-07-20T18:49:44Z</time>
      </trkpt>
      <trkpt lat="49.62725" lon="5.76037">
        <ele>373</ele>
        <time>2018-07-20T18:49:46Z</time>
      </trkpt>
      <trkpt lat="49.62732" lon="5.76051">
        <ele>374</ele>
        <time>2018-07-20T18:49:48Z</time>
      </trkpt>
      <trkpt lat="49.62739" lon="5.76065">
        <ele>374</ele>
        <time>2018-07-20T18:49:50Z</time>
      </trkpt>
      <trkpt lat="49.62745" lon="5.76081">
        <ele>375</ele>
        <time>2018-07-20T18:49:52Z</time>
      </trkpt>
      <trkpt lat="49.6275" lon="5.76095">
        <ele>375</ele>
        <time>2018-07-20T18:49:54Z</time>
      </trkpt>
      <trkpt lat="49.62756" lon="5.76107">
        <ele>374</ele>
        <time>2018-07-20T18:49:56Z</time>
      </trkpt>
      <trkpt lat="49.62758" lon="5.76121">
        <ele>373</ele>
        <time>2018-07-20T18:50:11Z</time>
      </trkpt>
      <trkpt lat="49.62761" lon="5.76138">
        <ele>372</ele>
        <time>2018-07-20T18:50:15Z</time>
      </trkpt>
      <trkpt lat="49.62765" lon="5.76155">
        <ele>373</ele>
        <time>2018-07-20T18:50:18Z</time>
      </trkpt>
      <trkpt lat="49.62769" lon="5.76171">
        <ele>372</ele>
        <time>2018-07-20T18:50:21Z</time>
      </trkpt>
      <trkpt lat="49.62774" lon="5.76183">
        <ele>366</ele>
        <time>2018-07-20T18:50:24Z</time>
      </trkpt>
      <trkpt lat="49.62788" lon="5.76203">
        <ele>363</ele>
        <time>2018-07-20T18:50:26Z</time>
      </trkpt>
      <trkpt lat="49.62795" lon="5.76221">
        <ele>363</ele>
        <time>2018-07-20T18:50:28Z</time>
      </trkpt>
      <trkpt lat="49.62801" lon="5.76234">
        <ele>362</ele>
        <time>2018-07-20T18:50:31Z</time>
      </trkpt>
      <trkpt lat="49.6281" lon="5.7623">
        <ele>359</ele>
        <time>2018-07-20T18:50:37Z</time>
      </trkpt>
      <trkpt lat="49.62811" lon="5.76212">
        <ele>358</ele>
        <time>2018-07-20T18:50:41Z</time>
      </trkpt>
      <trkpt lat="49.62818" lon="5.762">
        <ele>361</ele>
        <time>2018-07-20T18:50:46Z</time>
      </trkpt>
      <trkpt lat="49.62828" lon="5.76194">
        <ele>360</ele>
        <time>2018-07-20T18:50:48Z</time>
      </trkpt>
      <trkpt lat="49.62843" lon="5.76187">
        <ele>354</ele>
        <time>2018-07-20T18:50:49Z</time>
      </trkpt>
      <trkpt lat="49.6285" lon="5.76177">
        <ele>353</ele>
        <time>2018-07-20T18:50:52Z</time>
      </trkpt>
      <trkpt lat="49.62853" lon="5.7616">
        <ele>354</ele>
        <time>2018-07-20T18:50:56Z</time>
      </trkpt>
      <trkpt lat="49.62851" lon="5.76143">
        <ele>358</ele>
        <time>2018-07-20T18:51:00Z</time>
      </trkpt>
      <trkpt lat="49.62853" lon="5.76127">
        <ele>356</ele>
        <time>2018-07-20T18:51:06Z</time>
      </trkpt>
      <trkpt lat="49.62862" lon="5.76118">
        <ele>347</ele>
        <time>2018-07-20T18:51:07Z</time>
      </trkpt>
      <trkpt lat="49.62874" lon="5.76111">
        <ele>344</ele>
        <time>2018-07-20T18:51:09Z</time>
      </trkpt>
      <trkpt lat="49.62888" lon="5.76106">
        <ele>344</ele>
        <time>2018-07-20T18:51:11Z</time>
      </trkpt>
      <trkpt lat="49.62897" lon="5.76102">
        <ele>341</ele>
        <time>2018-07-20T18:51:13Z</time>
      </trkpt>
      <trkpt lat="49.62907" lon="5.76101">
        <ele>337</ele>
        <time>2018-07-20T18:51:16Z</time>
      </trkpt>
      <trkpt lat="49.62913" lon="5.76116">
        <ele>336</ele>
        <time>2018-07-20T18:52:26Z</time>
      </trkpt>
      <trkpt lat="49.62924" lon="5.76112">
        <ele>333</ele>
        <time>2018-07-20T18:53:28Z</time>
      </trkpt>
      <trkpt lat="49.62935" lon="5.76107">
        <ele>332</ele>
        <time>2018-07-20T18:53:30Z</time>
      </trkpt>
      <trkpt lat="49.62949" lon="5.76101">
        <ele>331</ele>
        <time>2018-07-20T18:53:32Z</time>
      </trkpt>
      <trkpt lat="49.62964" lon="5.76096">
        <ele>332</ele>
        <time>2018-07-20T18:53:34Z</time>
      </trkpt>
      <trkpt lat="49.62983" lon="5.76082">
        <ele>330</ele>
        <time>2018-07-20T18:53:36Z</time>
      </trkpt>
      <trkpt lat="49.62996" lon="5.76073">
        <ele>327</ele>
        <time>2018-07-20T18:53:39Z</time>
      </trkpt>
      <trkpt lat="49.63005" lon="5.7607">
        <ele>328</ele>
        <time>2018-07-20T18:53:40Z</time>
      </trkpt>
      <trkpt lat="49.63005" lon="5.76055">
        <ele>326</ele>
        <time>2018-07-20T18:53:46Z</time>
      </trkpt>
      <trkpt lat="49.63002" lon="5.76039">
        <ele>325</ele>
        <time>2018-07-20T18:53:48Z</time>
      </trkpt>
      <trkpt lat="49.62998" lon="5.76019">
        <ele>327</ele>
        <time>2018-07-20T18:53:50Z</time>
      </trkpt>
      <trkpt lat="49.62994" lon="5.76006">
        <ele>325</ele>
        <time>2018-07-20T18:53:52Z</time>
      </trkpt>
      <trkpt lat="49.6299" lon="5.75991">
        <ele>325</ele>
        <time>2018-07-20T18:53:54Z</time>
      </trkpt>
      <trkpt lat="49.62987" lon="5.75975">
        <ele>325</ele>
        <time>2018-07-20T18:53:56Z</time>
      </trkpt>
      <trkpt lat="49.62981" lon="5.7596">
        <ele>323</ele>
        <time>2018-07-20T18:53:58Z</time>
      </trkpt>
      <trkpt lat="49.62978" lon="5.75944">
        <ele>324</ele>
        <time>2018-07-20T18:54:00Z</time>
      </trkpt>
      <trkpt lat="49.62973" lon="5.75924">
        <ele>325</ele>
        <time>2018-07-20T18:54:03Z</time>
      </trkpt>
      <trkpt lat="49.62969" lon="5.75908">
        <ele>323</ele>
        <time>2018-07-20T18:54:06Z</time>
      </trkpt>
      <trkpt lat="49.62966" lon="5.75891">
        <ele>320</ele>
        <time>2018-07-20T18:54:07Z</time>
      </trkpt>
      <trkpt lat="49.62961" lon="5.75875">
        <ele>320</ele>
        <time>2018-07-20T18:54:10Z</time>
      </trkpt>
      <trkpt lat="49.62955" lon="5.75863">
        <ele>319</ele>
        <time>2018-07-20T18:54:12Z</time>
      </trkpt>
      <trkpt lat="49.62953" lon="5.75847">
        <ele>319</ele>
        <time>2018-07-20T18:54:14Z</time>
      </trkpt>
      <trkpt lat="49.62944" lon="5.75828">
        <ele>320</ele>
        <time>2018-07-20T18:54:16Z</time>
      </trkpt>
      <trkpt lat="49.62937" lon="5.75814">
        <ele>323</ele>
        <time>2018-07-20T18:54:18Z</time>
      </trkpt>
      <trkpt lat="49.6293" lon="5.75801">
        <ele>320</ele>
        <time>2018-07-20T18:54:21Z</time>
      </trkpt>
      <trkpt lat="49.62924" lon="5.75789">
        <ele>320</ele>
        <time>2018-07-20T18:54:23Z</time>
      </trkpt>
      <trkpt lat="49.62916" lon="5.75779">
        <ele>320</ele>
        <time>2018-07-20T18:54:24Z</time>
      </trkpt>
      <trkpt lat="49.62908" lon="5.75771">
        <ele>322</ele>
        <time>2018-07-20T18:54:26Z</time>
      </trkpt>
      <trkpt lat="49.629" lon="5.75763">
        <ele>322</ele>
        <time>2018-07-20T18:54:29Z</time>
      </trkpt>
      <trkpt lat="49.62889" lon="5.75757">
        <ele>318</ele>
        <time>2018-07-20T18:54:30Z</time>
      </trkpt>
      <trkpt lat="49.6288" lon="5.75748">
        <ele>320</ele>
        <time>2018-07-20T18:54:32Z</time>
      </trkpt>
      <trkpt lat="49.62868" lon="5.75741">
        <ele>320</ele>
        <time>2018-07-20T18:54:35Z</time>
      </trkpt>
      <trkpt lat="49.62859" lon="5.75736">
        <ele>322</ele>
        <time>2018-07-20T18:54:36Z</time>
      </trkpt>
      <trkpt lat="49.62849" lon="5.75729">
        <ele>324</ele>
        <time>2018-07-20T18:54:38Z</time>
      </trkpt>
      <trkpt lat="49.62838" lon="5.75718">
        <ele>327</ele>
        <time>2018-07-20T18:54:41Z</time>
      </trkpt>
      <trkpt lat="49.6283" lon="5.75708">
        <ele>331</ele>
        <time>2018-07-20T18:54:43Z</time>
      </trkpt>
      <trkpt lat="49.6282" lon="5.75703">
        <ele>330</ele>
        <time>2018-07-20T18:54:44Z</time>
      </trkpt>
      <trkpt lat="49.62811" lon="5.75701">
        <ele>330</ele>
        <time>2018-07-20T18:54:46Z</time>
      </trkpt>
      <trkpt lat="49.628" lon="5.75695">
        <ele>329</ele>
        <time>2018-07-20T18:54:49Z</time>
      </trkpt>
      <trkpt lat="49.62794" lon="5.75682">
        <ele>326</ele>
        <time>2018-07-20T18:54:51Z</time>
      </trkpt>
      <trkpt lat="49.62806" lon="5.75667">
        <ele>324</ele>
        <time>2018-07-20T18:54:54Z</time>
      </trkpt>
      <trkpt lat="49.62818" lon="5.75668">
        <ele>318</ele>
        <time>2018-07-20T18:54:57Z</time>
      </trkpt>
      <trkpt lat="49.62827" lon="5.7566">
        <ele>318</ele>
        <time>2018-07-20T18:54:59Z</time>
      </trkpt>
      <trkpt lat="49.62839" lon="5.75653">
        <ele>319</ele>
        <time>2018-07-20T18:55:01Z</time>
      </trkpt>
      <trkpt lat="49.6285" lon="5.75648">
        <ele>321</ele>
        <time>2018-07-20T18:55:03Z</time>
      </trkpt>
      <trkpt lat="49.62863" lon="5.75644">
        <ele>322</ele>
        <time>2018-07-20T18:55:04Z</time>
      </trkpt>
      <trkpt lat="49.62872" lon="5.75639">
        <ele>322</ele>
        <time>2018-07-20T18:55:07Z</time>
      </trkpt>
      <trkpt lat="49.62886" lon="5.75633">
        <ele>323</ele>
        <time>2018-07-20T18:55:09Z</time>
      </trkpt>
      <trkpt lat="49.629" lon="5.75624">
        <ele>322</ele>
        <time>2018-07-20T18:55:10Z</time>
      </trkpt>
      <trkpt lat="49.62915" lon="5.75615">
        <ele>322</ele>
        <time>2018-07-20T18:55:13Z</time>
      </trkpt>
      <trkpt lat="49.62924" lon="5.75606">
        <ele>321</ele>
        <time>2018-07-20T18:55:15Z</time>
      </trkpt>
      <trkpt lat="49.62936" lon="5.75598">
        <ele>322</ele>
        <time>2018-07-20T18:55:17Z</time>
      </trkpt>
      <trkpt lat="49.62947" lon="5.75591">
        <ele>321</ele>
        <time>2018-07-20T18:55:19Z</time>
      </trkpt>
      <trkpt lat="49.62959" lon="5.75579">
        <ele>320</ele>
        <time>2018-07-20T18:55:21Z</time>
      </trkpt>
      <trkpt lat="49.62972" lon="5.7557">
        <ele>320</ele>
        <time>2018-07-20T18:55:23Z</time>
      </trkpt>
      <trkpt lat="49.62983" lon="5.75562">
        <ele>318</ele>
        <time>2018-07-20T18:55:25Z</time>
      </trkpt>
      <trkpt lat="49.62996" lon="5.75557">
        <ele>320</ele>
        <time>2018-07-20T18:55:27Z</time>
      </trkpt>
      <trkpt lat="49.63004" lon="5.7555">
        <ele>319</ele>
        <time>2018-07-20T18:55:30Z</time>
      </trkpt>
      <trkpt lat="49.63012" lon="5.75543">
        <ele>322</ele>
        <time>2018-07-20T18:55:32Z</time>
      </trkpt>
      <trkpt lat="49.63022" lon="5.7554">
        <ele>325</ele>
        <time>2018-07-20T18:55:36Z</time>
      </trkpt>
      <trkpt lat="49.63031" lon="5.75536">
        <ele>330</ele>
        <time>2018-07-20T18:55:39Z</time>
      </trkpt>
      <trkpt lat="49.63041" lon="5.75532">
        <ele>331</ele>
        <time>2018-07-20T18:55:42Z</time>
      </trkpt>
      <trkpt lat="49.63052" lon="5.75527">
        <ele>331</ele>
        <time>2018-07-20T18:55:45Z</time>
      </trkpt>
      <trkpt lat="49.63063" lon="5.75524">
        <ele>330</ele>
        <time>2018-07-20T18:55:48Z</time>
      </trkpt>
      <trkpt lat="49.63074" lon="5.75521">
        <ele>329</ele>
        <time>2018-07-20T18:55:51Z</time>
      </trkpt>
      <trkpt lat="49.63086" lon="5.75518">
        <ele>329</ele>
        <time>2018-07-20T18:55:55Z</time>
      </trkpt>
      <trkpt lat="49.63095" lon="5.75515">
        <ele>327</ele>
        <time>2018-07-20T18:55:57Z</time>
      </trkpt>
      <trkpt lat="49.63106" lon="5.75509">
        <ele>326</ele>
        <time>2018-07-20T18:55:58Z</time>
      </trkpt>
      <trkpt lat="49.63119" lon="5.75499">
        <ele>324</ele>
        <time>2018-07-20T18:56:00Z</time>
      </trkpt>
      <trkpt lat="49.6313" lon="5.75497">
        <ele>325</ele>
        <time>2018-07-20T18:56:02Z</time>
      </trkpt>
      <trkpt lat="49.63139" lon="5.75496">
        <ele>328</ele>
        <time>2018-07-20T18:56:04Z</time>
      </trkpt>
      <trkpt lat="49.63152" lon="5.75503">
        <ele>328</ele>
        <time>2018-07-20T18:56:06Z</time>
      </trkpt>
      <trkpt lat="49.63162" lon="5.75504">
        <ele>328</ele>
        <time>2018-07-20T18:56:09Z</time>
      </trkpt>
      <trkpt lat="49.63173" lon="5.75507">
        <ele>328</ele>
        <time>2018-07-20T18:56:11Z</time>
      </trkpt>
      <trkpt lat="49.63185" lon="5.75511">
        <ele>327</ele>
        <time>2018-07-20T18:56:13Z</time>
      </trkpt>
      <trkpt lat="49.63194" lon="5.75518">
        <ele>327</ele>
        <time>2018-07-20T18:56:15Z</time>
      </trkpt>
      <trkpt lat="49.63205" lon="5.7552">
        <ele>324</ele>
        <time>2018-07-20T18:56:16Z</time>
      </trkpt>
      <trkpt lat="49.63216" lon="5.75522">
        <ele>325</ele>
        <time>2018-07-20T18:56:19Z</time>
      </trkpt>
      <trkpt lat="49.63229" lon="5.75528">
        <ele>328</ele>
        <time>2018-07-20T18:56:21Z</time>
      </trkpt>
      <trkpt lat="49.63238" lon="5.7553">
        <ele>329</ele>
        <time>2018-07-20T18:56:24Z</time>
      </trkpt>
      <trkpt lat="49.63248" lon="5.75528">
        <ele>329</ele>
        <time>2018-07-20T18:56:26Z</time>
      </trkpt>
      <trkpt lat="49.63259" lon="5.75524">
        <ele>328</ele>
        <time>2018-07-20T18:56:28Z</time>
      </trkpt>
      <trkpt lat="49.6327" lon="5.75519">
        <ele>329</ele>
        <time>2018-07-20T18:56:29Z</time>
      </trkpt>
      <trkpt lat="49.63283" lon="5.75517">
        <ele>330</ele>
        <time>2018-07-20T18:56:31Z</time>
      </trkpt>
      <trkpt lat="49.63294" lon="5.75513">
        <ele>330</ele>
        <time>2018-07-20T18:56:33Z</time>
      </trkpt>
      <trkpt lat="49.63301" lon="5.75525">
        <ele>329</ele>
        <time>2018-07-20T18:56:36Z</time>
      </trkpt>
      <trkpt lat="49.63301" lon="5.75542">
        <ele>328</ele>
        <time>2018-07-20T18:56:39Z</time>
      </trkpt>
      <trkpt lat="49.63304" lon="5.75557">
        <ele>329</ele>
        <time>2018-07-20T18:56:41Z</time>
      </trkpt>
      <trkpt lat="49.63307" lon="5.75573">
        <ele>328</ele>
        <time>2018-07-20T18:56:43Z</time>
      </trkpt>
      <trkpt lat="49.63311" lon="5.75591">
        <ele>328</ele>
        <time>2018-07-20T18:56:45Z</time>
      </trkpt>
      <trkpt lat="49.63316" lon="5.7561">
        <ele>327</ele>
        <time>2018-07-20T18:56:47Z</time>
      </trkpt>
      <trkpt lat="49.63321" lon="5.7563">
        <ele>326</ele>
        <time>2018-07-20T18:56:49Z</time>
      </trkpt>
      <trkpt lat="49.63326" lon="5.75651">
        <ele>326</ele>
        <time>2018-07-20T18:56:51Z</time>
      </trkpt>
      <trkpt lat="49.63332" lon="5.75677">
        <ele>326</ele>
        <time>2018-07-20T18:56:53Z</time>
      </trkpt>
      <trkpt lat="49.63337" lon="5.75701">
        <ele>326</ele>
        <time>2018-07-20T18:56:55Z</time>
      </trkpt>
      <trkpt lat="49.63342" lon="5.75728">
        <ele>325</ele>
        <time>2018-07-20T18:56:56Z</time>
      </trkpt>
      <trkpt lat="49.63346" lon="5.75755">
        <ele>325</ele>
        <time>2018-07-20T18:56:58Z</time>
      </trkpt>
      <trkpt lat="49.63351" lon="5.75786">
        <ele>324</ele>
        <time>2018-07-20T18:57:00Z</time>
      </trkpt>
      <trkpt lat="49.63356" lon="5.75816">
        <ele>325</ele>
        <time>2018-07-20T18:57:02Z</time>
      </trkpt>
      <trkpt lat="49.63362" lon="5.75846">
        <ele>323</ele>
        <time>2018-07-20T18:57:05Z</time>
      </trkpt>
      <trkpt lat="49.63366" lon="5.75876">
        <ele>322</ele>
        <time>2018-07-20T18:57:06Z</time>
      </trkpt>
      <trkpt lat="49.63371" lon="5.75907">
        <ele>322</ele>
        <time>2018-07-20T18:57:08Z</time>
      </trkpt>
      <trkpt lat="49.63376" lon="5.75935">
        <ele>321</ele>
        <time>2018-07-20T18:57:10Z</time>
      </trkpt>
      <trkpt lat="49.63381" lon="5.75964">
        <ele>322</ele>
        <time>2018-07-20T18:57:13Z</time>
      </trkpt>
      <trkpt lat="49.63384" lon="5.75995">
        <ele>322</ele>
        <time>2018-07-20T18:57:14Z</time>
      </trkpt>
      <trkpt lat="49.63385" lon="5.76024">
        <ele>323</ele>
        <time>2018-07-20T18:57:16Z</time>
      </trkpt>
      <trkpt lat="49.6338" lon="5.76054">
        <ele>322</ele>
        <time>2018-07-20T18:57:19Z</time>
      </trkpt>
      <trkpt lat="49.63378" lon="5.76084">
        <ele>322</ele>
        <time>2018-07-20T18:57:21Z</time>
      </trkpt>
      <trkpt lat="49.63375" lon="5.76113">
        <ele>322</ele>
        <time>2018-07-20T18:57:22Z</time>
      </trkpt>
      <trkpt lat="49.63372" lon="5.76127">
        <ele>321</ele>
        <time>2018-07-20T18:57:24Z</time>
      </trkpt>
      <trkpt lat="49.63369" lon="5.76157">
        <ele>320</ele>
        <time>2018-07-20T18:57:26Z</time>
      </trkpt>
      <trkpt lat="49.63368" lon="5.76186">
        <ele>320</ele>
        <time>2018-07-20T18:57:28Z</time>
      </trkpt>
      <trkpt lat="49.63368" lon="5.76213">
        <ele>319</ele>
        <time>2018-07-20T18:57:29Z</time>
      </trkpt>
      <trkpt lat="49.6337" lon="5.76241">
        <ele>318</ele>
        <time>2018-07-20T18:57:32Z</time>
      </trkpt>
      <trkpt lat="49.63373" lon="5.76266">
        <ele>319</ele>
        <time>2018-07-20T18:57:33Z</time>
      </trkpt>
      <trkpt lat="49.6338" lon="5.76292">
        <ele>318</ele>
        <time>2018-07-20T18:57:36Z</time>
      </trkpt>
      <trkpt lat="49.63387" lon="5.76317">
        <ele>318</ele>
        <time>2018-07-20T18:57:37Z</time>
      </trkpt>
      <trkpt lat="49.63398" lon="5.76342">
        <ele>318</ele>
        <time>2018-07-20T18:57:40Z</time>
      </trkpt>
      <trkpt lat="49.63407" lon="5.76367">
        <ele>317</ele>
        <time>2018-07-20T18:57:42Z</time>
      </trkpt>
      <trkpt lat="49.63415" lon="5.76394">
        <ele>316</ele>
        <time>2018-07-20T18:57:44Z</time>
      </trkpt>
      <trkpt lat="49.63424" lon="5.76422">
        <ele>315</ele>
        <time>2018-07-20T18:57:46Z</time>
      </trkpt>
      <trkpt lat="49.63433" lon="5.76452">
        <ele>313</ele>
        <time>2018-07-20T18:57:48Z</time>
      </trkpt>
      <trkpt lat="49.63442" lon="5.76479">
        <ele>311</ele>
        <time>2018-07-20T18:57:49Z</time>
      </trkpt>
      <trkpt lat="49.63455" lon="5.76504">
        <ele>308</ele>
        <time>2018-07-20T18:57:52Z</time>
      </trkpt>
      <trkpt lat="49.63468" lon="5.76526">
        <ele>307</ele>
        <time>2018-07-20T18:57:54Z</time>
      </trkpt>
      <trkpt lat="49.63478" lon="5.76541">
        <ele>305</ele>
        <time>2018-07-20T18:57:55Z</time>
      </trkpt>
      <trkpt lat="49.63486" lon="5.76553">
        <ele>305</ele>
        <time>2018-07-20T18:57:58Z</time>
      </trkpt>
    </trkseg>
  </trk>
</gpx>